<?xml version="1.0" encoding="UTF-8" standalone="no" ?>
<gpx xmlns="http://www.topografix.com/GPX/1/1" xmlns:xsi="http://www.w3.org/2001/XMLSchema-instance" xsi:schemaLocation="http://www.topografix.com/GPX/1/1 http://www.topografix.com/GPX/1/1/gpx.xsd" version="1.1" creator="VisuGPX - https://www.visugpx.com">
  <metadata>
    <name>BPM - Joigny</name>
    <desc><![CDATA[Randonnée Villeneuve sur Yonne - Joigny  Bon Pied Marlysien]]></desc>
  </metadata>
  <trk>
    <name><![CDATA[BPM - Joigny_1]]></name>
    <trkseg>
      <trkpt lat="48.08498" lon="3.28725">
        <ele>100.3</ele>
        <time>2018-09-29T07:30:33Z</time>
      </trkpt>
      <trkpt lat="48.08498" lon="3.28725">
        <ele>98.5</ele>
        <time>2018-09-29T07:30:33Z</time>
      </trkpt>
      <trkpt lat="48.08498" lon="3.28724">
        <ele>98.6</ele>
        <time>2018-09-29T07:30:34Z</time>
      </trkpt>
      <trkpt lat="48.08498" lon="3.28722">
        <ele>88.1</ele>
        <time>2018-09-29T07:30:42Z</time>
      </trkpt>
      <trkpt lat="48.08498" lon="3.28722">
        <ele>87.1</ele>
        <time>2018-09-29T07:30:43Z</time>
      </trkpt>
      <trkpt lat="48.08498" lon="3.2872">
        <ele>84.2</ele>
        <time>2018-09-29T07:30:51Z</time>
      </trkpt>
      <trkpt lat="48.08498" lon="3.28721">
        <ele>84.3</ele>
        <time>2018-09-29T07:30:58Z</time>
      </trkpt>
      <trkpt lat="48.08497" lon="3.28722">
        <ele>81.8</ele>
        <time>2018-09-29T07:33:02Z</time>
      </trkpt>
      <trkpt lat="48.08497" lon="3.28722">
        <ele>81.8</ele>
        <time>2018-09-29T07:33:03Z</time>
      </trkpt>
      <trkpt lat="48.0849" lon="3.28724">
        <ele>81.8</ele>
        <time>2018-09-29T07:33:11Z</time>
      </trkpt>
      <trkpt lat="48.08487" lon="3.28724">
        <ele>81.3</ele>
        <time>2018-09-29T07:33:18Z</time>
      </trkpt>
      <trkpt lat="48.08485" lon="3.28725">
        <ele>80.9</ele>
        <time>2018-09-29T07:33:25Z</time>
      </trkpt>
      <trkpt lat="48.08478" lon="3.28728">
        <ele>80.4</ele>
        <time>2018-09-29T07:33:32Z</time>
      </trkpt>
      <trkpt lat="48.08471" lon="3.28729">
        <ele>79.7</ele>
        <time>2018-09-29T07:33:39Z</time>
      </trkpt>
      <trkpt lat="48.08465" lon="3.2873">
        <ele>77.9</ele>
        <time>2018-09-29T07:33:46Z</time>
      </trkpt>
      <trkpt lat="48.08459" lon="3.28731">
        <ele>76.2</ele>
        <time>2018-09-29T07:33:53Z</time>
      </trkpt>
      <trkpt lat="48.08452" lon="3.28732">
        <ele>73.7</ele>
        <time>2018-09-29T07:34:00Z</time>
      </trkpt>
      <trkpt lat="48.08445" lon="3.28733">
        <ele>71.6</ele>
        <time>2018-09-29T07:34:07Z</time>
      </trkpt>
      <trkpt lat="48.08439" lon="3.28734">
        <ele>69.8</ele>
        <time>2018-09-29T07:34:14Z</time>
      </trkpt>
      <trkpt lat="48.08433" lon="3.28742">
        <ele>68</ele>
        <time>2018-09-29T07:34:21Z</time>
      </trkpt>
      <trkpt lat="48.08427" lon="3.28746">
        <ele>66.7</ele>
        <time>2018-09-29T07:34:28Z</time>
      </trkpt>
      <trkpt lat="48.08424" lon="3.28755">
        <ele>65.5</ele>
        <time>2018-09-29T07:34:35Z</time>
      </trkpt>
      <trkpt lat="48.08425" lon="3.28765">
        <ele>64.5</ele>
        <time>2018-09-29T07:34:42Z</time>
      </trkpt>
      <trkpt lat="48.08427" lon="3.28776">
        <ele>63.3</ele>
        <time>2018-09-29T07:34:49Z</time>
      </trkpt>
      <trkpt lat="48.08428" lon="3.28786">
        <ele>63</ele>
        <time>2018-09-29T07:34:56Z</time>
      </trkpt>
      <trkpt lat="48.08429" lon="3.28797">
        <ele>63.1</ele>
        <time>2018-09-29T07:35:03Z</time>
      </trkpt>
      <trkpt lat="48.08429" lon="3.28808">
        <ele>63.7</ele>
        <time>2018-09-29T07:35:09Z</time>
      </trkpt>
      <trkpt lat="48.0843" lon="3.2882">
        <ele>64.4</ele>
        <time>2018-09-29T07:35:16Z</time>
      </trkpt>
      <trkpt lat="48.08431" lon="3.28832">
        <ele>65.5</ele>
        <time>2018-09-29T07:35:23Z</time>
      </trkpt>
      <trkpt lat="48.08433" lon="3.28843">
        <ele>66.2</ele>
        <time>2018-09-29T07:35:30Z</time>
      </trkpt>
      <trkpt lat="48.08435" lon="3.28855">
        <ele>66.6</ele>
        <time>2018-09-29T07:35:37Z</time>
      </trkpt>
      <trkpt lat="48.08436" lon="3.28866">
        <ele>68.2</ele>
        <time>2018-09-29T07:35:43Z</time>
      </trkpt>
      <trkpt lat="48.08437" lon="3.28876">
        <ele>68.8</ele>
        <time>2018-09-29T07:35:50Z</time>
      </trkpt>
      <trkpt lat="48.08438" lon="3.28888">
        <ele>71.9</ele>
        <time>2018-09-29T07:35:57Z</time>
      </trkpt>
      <trkpt lat="48.08438" lon="3.28898">
        <ele>72</ele>
        <time>2018-09-29T07:36:04Z</time>
      </trkpt>
      <trkpt lat="48.0844" lon="3.28909">
        <ele>72.8</ele>
        <time>2018-09-29T07:36:10Z</time>
      </trkpt>
      <trkpt lat="48.08442" lon="3.2892">
        <ele>74.7</ele>
        <time>2018-09-29T07:36:16Z</time>
      </trkpt>
      <trkpt lat="48.08445" lon="3.28932">
        <ele>78.4</ele>
        <time>2018-09-29T07:36:22Z</time>
      </trkpt>
      <trkpt lat="48.08446" lon="3.28942">
        <ele>77.7</ele>
        <time>2018-09-29T07:36:27Z</time>
      </trkpt>
      <trkpt lat="48.08448" lon="3.28953">
        <ele>79</ele>
        <time>2018-09-29T07:36:33Z</time>
      </trkpt>
      <trkpt lat="48.08449" lon="3.28965">
        <ele>78.9</ele>
        <time>2018-09-29T07:36:40Z</time>
      </trkpt>
      <trkpt lat="48.08451" lon="3.28977">
        <ele>78.9</ele>
        <time>2018-09-29T07:36:47Z</time>
      </trkpt>
      <trkpt lat="48.08452" lon="3.28988">
        <ele>76.7</ele>
        <time>2018-09-29T07:36:53Z</time>
      </trkpt>
      <trkpt lat="48.08453" lon="3.29">
        <ele>76.1</ele>
        <time>2018-09-29T07:37:00Z</time>
      </trkpt>
      <trkpt lat="48.08454" lon="3.29012">
        <ele>76.1</ele>
        <time>2018-09-29T07:37:06Z</time>
      </trkpt>
      <trkpt lat="48.08455" lon="3.29024">
        <ele>74.6</ele>
        <time>2018-09-29T07:37:13Z</time>
      </trkpt>
      <trkpt lat="48.08457" lon="3.29035">
        <ele>74.6</ele>
        <time>2018-09-29T07:37:20Z</time>
      </trkpt>
      <trkpt lat="48.08458" lon="3.29047">
        <ele>74.9</ele>
        <time>2018-09-29T07:37:27Z</time>
      </trkpt>
      <trkpt lat="48.0846" lon="3.29058">
        <ele>73.5</ele>
        <time>2018-09-29T07:37:33Z</time>
      </trkpt>
      <trkpt lat="48.0846" lon="3.2907">
        <ele>75.4</ele>
        <time>2018-09-29T07:37:39Z</time>
      </trkpt>
      <trkpt lat="48.08462" lon="3.29081">
        <ele>74.6</ele>
        <time>2018-09-29T07:37:45Z</time>
      </trkpt>
      <trkpt lat="48.08463" lon="3.29092">
        <ele>73.9</ele>
        <time>2018-09-29T07:37:52Z</time>
      </trkpt>
      <trkpt lat="48.08464" lon="3.29104">
        <ele>73.8</ele>
        <time>2018-09-29T07:37:58Z</time>
      </trkpt>
      <trkpt lat="48.08459" lon="3.29113">
        <ele>75.1</ele>
        <time>2018-09-29T07:38:05Z</time>
      </trkpt>
      <trkpt lat="48.08452" lon="3.29111">
        <ele>73.9</ele>
        <time>2018-09-29T07:38:12Z</time>
      </trkpt>
      <trkpt lat="48.08445" lon="3.29111">
        <ele>74.1</ele>
        <time>2018-09-29T07:38:19Z</time>
      </trkpt>
      <trkpt lat="48.08437" lon="3.29111">
        <ele>73.2</ele>
        <time>2018-09-29T07:38:25Z</time>
      </trkpt>
      <trkpt lat="48.08429" lon="3.29116">
        <ele>72.9</ele>
        <time>2018-09-29T07:38:31Z</time>
      </trkpt>
      <trkpt lat="48.08426" lon="3.29129">
        <ele>73</ele>
        <time>2018-09-29T07:38:34Z</time>
      </trkpt>
      <trkpt lat="48.08425" lon="3.2914">
        <ele>72.2</ele>
        <time>2018-09-29T07:38:37Z</time>
      </trkpt>
      <trkpt lat="48.08424" lon="3.29151">
        <ele>73</ele>
        <time>2018-09-29T07:38:40Z</time>
      </trkpt>
      <trkpt lat="48.08425" lon="3.29152">
        <ele>71.4</ele>
        <time>2018-09-29T07:38:47Z</time>
      </trkpt>
      <trkpt lat="48.08425" lon="3.29151">
        <ele>70.5</ele>
        <time>2018-09-29T07:38:54Z</time>
      </trkpt>
      <trkpt lat="48.08426" lon="3.29156">
        <ele>70.2</ele>
        <time>2018-09-29T07:39:09Z</time>
      </trkpt>
      <trkpt lat="48.08422" lon="3.29146">
        <ele>68.6</ele>
        <time>2018-09-29T07:39:12Z</time>
      </trkpt>
      <trkpt lat="48.08416" lon="3.29137">
        <ele>69</ele>
        <time>2018-09-29T07:39:15Z</time>
      </trkpt>
      <trkpt lat="48.0841" lon="3.29128">
        <ele>68.3</ele>
        <time>2018-09-29T07:39:18Z</time>
      </trkpt>
      <trkpt lat="48.08404" lon="3.2912">
        <ele>68.2</ele>
        <time>2018-09-29T07:39:22Z</time>
      </trkpt>
      <trkpt lat="48.08399" lon="3.29111">
        <ele>68.1</ele>
        <time>2018-09-29T07:39:26Z</time>
      </trkpt>
      <trkpt lat="48.08392" lon="3.2911">
        <ele>68</ele>
        <time>2018-09-29T07:39:33Z</time>
      </trkpt>
      <trkpt lat="48.08391" lon="3.29102">
        <ele>68</ele>
        <time>2018-09-29T07:39:40Z</time>
      </trkpt>
      <trkpt lat="48.08385" lon="3.29095">
        <ele>68.6</ele>
        <time>2018-09-29T07:39:47Z</time>
      </trkpt>
      <trkpt lat="48.08377" lon="3.29094">
        <ele>69.2</ele>
        <time>2018-09-29T07:39:53Z</time>
      </trkpt>
      <trkpt lat="48.0837" lon="3.2909">
        <ele>69.2</ele>
        <time>2018-09-29T07:39:57Z</time>
      </trkpt>
      <trkpt lat="48.08361" lon="3.29086">
        <ele>68.5</ele>
        <time>2018-09-29T07:40:01Z</time>
      </trkpt>
      <trkpt lat="48.08354" lon="3.29083">
        <ele>67.1</ele>
        <time>2018-09-29T07:40:05Z</time>
      </trkpt>
      <trkpt lat="48.08346" lon="3.29079">
        <ele>65</ele>
        <time>2018-09-29T07:40:09Z</time>
      </trkpt>
      <trkpt lat="48.08339" lon="3.29074">
        <ele>64.4</ele>
        <time>2018-09-29T07:40:13Z</time>
      </trkpt>
      <trkpt lat="48.08331" lon="3.2907">
        <ele>62.3</ele>
        <time>2018-09-29T07:40:17Z</time>
      </trkpt>
      <trkpt lat="48.08324" lon="3.29065">
        <ele>62.9</ele>
        <time>2018-09-29T07:40:22Z</time>
      </trkpt>
      <trkpt lat="48.08316" lon="3.29062">
        <ele>64.5</ele>
        <time>2018-09-29T07:40:29Z</time>
      </trkpt>
      <trkpt lat="48.08309" lon="3.2906">
        <ele>66.6</ele>
        <time>2018-09-29T07:40:35Z</time>
      </trkpt>
      <trkpt lat="48.08303" lon="3.2906">
        <ele>65.7</ele>
        <time>2018-09-29T07:40:42Z</time>
      </trkpt>
      <trkpt lat="48.08298" lon="3.29061">
        <ele>68</ele>
        <time>2018-09-29T07:40:49Z</time>
      </trkpt>
      <trkpt lat="48.08294" lon="3.29059">
        <ele>69.4</ele>
        <time>2018-09-29T07:40:56Z</time>
      </trkpt>
      <trkpt lat="48.08292" lon="3.29058">
        <ele>70.2</ele>
        <time>2018-09-29T07:41:03Z</time>
      </trkpt>
      <trkpt lat="48.08289" lon="3.29066">
        <ele>71.2</ele>
        <time>2018-09-29T07:41:10Z</time>
      </trkpt>
      <trkpt lat="48.08286" lon="3.29074">
        <ele>71.3</ele>
        <time>2018-09-29T07:41:17Z</time>
      </trkpt>
      <trkpt lat="48.08284" lon="3.29084">
        <ele>72.1</ele>
        <time>2018-09-29T07:41:24Z</time>
      </trkpt>
      <trkpt lat="48.08281" lon="3.29094">
        <ele>74.2</ele>
        <time>2018-09-29T07:41:30Z</time>
      </trkpt>
      <trkpt lat="48.08279" lon="3.29105">
        <ele>74.1</ele>
        <time>2018-09-29T07:41:37Z</time>
      </trkpt>
      <trkpt lat="48.08276" lon="3.29116">
        <ele>73.9</ele>
        <time>2018-09-29T07:41:44Z</time>
      </trkpt>
      <trkpt lat="48.08273" lon="3.29125">
        <ele>74.5</ele>
        <time>2018-09-29T07:41:51Z</time>
      </trkpt>
      <trkpt lat="48.08271" lon="3.29134">
        <ele>75.1</ele>
        <time>2018-09-29T07:41:58Z</time>
      </trkpt>
      <trkpt lat="48.08268" lon="3.29144">
        <ele>75</ele>
        <time>2018-09-29T07:42:05Z</time>
      </trkpt>
      <trkpt lat="48.08265" lon="3.29153">
        <ele>75.2</ele>
        <time>2018-09-29T07:42:12Z</time>
      </trkpt>
      <trkpt lat="48.08263" lon="3.29161">
        <ele>74.8</ele>
        <time>2018-09-29T07:42:19Z</time>
      </trkpt>
      <trkpt lat="48.0826" lon="3.2917">
        <ele>75.2</ele>
        <time>2018-09-29T07:42:26Z</time>
      </trkpt>
      <trkpt lat="48.08258" lon="3.29178">
        <ele>75.3</ele>
        <time>2018-09-29T07:42:33Z</time>
      </trkpt>
      <trkpt lat="48.08255" lon="3.29187">
        <ele>73.9</ele>
        <time>2018-09-29T07:42:40Z</time>
      </trkpt>
      <trkpt lat="48.08254" lon="3.29193">
        <ele>74.2</ele>
        <time>2018-09-29T07:42:47Z</time>
      </trkpt>
      <trkpt lat="48.0825" lon="3.29204">
        <ele>76.4</ele>
        <time>2018-09-29T07:42:54Z</time>
      </trkpt>
      <trkpt lat="48.08247" lon="3.29214">
        <ele>77</ele>
        <time>2018-09-29T07:43:01Z</time>
      </trkpt>
      <trkpt lat="48.08245" lon="3.29225">
        <ele>76.6</ele>
        <time>2018-09-29T07:43:07Z</time>
      </trkpt>
      <trkpt lat="48.08241" lon="3.29235">
        <ele>77.6</ele>
        <time>2018-09-29T07:43:13Z</time>
      </trkpt>
      <trkpt lat="48.08239" lon="3.29245">
        <ele>78.8</ele>
        <time>2018-09-29T07:43:19Z</time>
      </trkpt>
      <trkpt lat="48.08238" lon="3.29251">
        <ele>79.1</ele>
        <time>2018-09-29T07:43:26Z</time>
      </trkpt>
      <trkpt lat="48.08234" lon="3.29262">
        <ele>77.5</ele>
        <time>2018-09-29T07:43:33Z</time>
      </trkpt>
      <trkpt lat="48.08232" lon="3.29273">
        <ele>78.7</ele>
        <time>2018-09-29T07:43:39Z</time>
      </trkpt>
      <trkpt lat="48.0823" lon="3.29286">
        <ele>76.8</ele>
        <time>2018-09-29T07:43:45Z</time>
      </trkpt>
      <trkpt lat="48.08227" lon="3.29296">
        <ele>76.8</ele>
        <time>2018-09-29T07:43:51Z</time>
      </trkpt>
      <trkpt lat="48.08224" lon="3.29307">
        <ele>79.1</ele>
        <time>2018-09-29T07:43:57Z</time>
      </trkpt>
      <trkpt lat="48.08223" lon="3.29318">
        <ele>73.5</ele>
        <time>2018-09-29T07:44:02Z</time>
      </trkpt>
      <trkpt lat="48.08221" lon="3.29329">
        <ele>76</ele>
        <time>2018-09-29T07:44:09Z</time>
      </trkpt>
      <trkpt lat="48.0822" lon="3.29341">
        <ele>74.3</ele>
        <time>2018-09-29T07:44:15Z</time>
      </trkpt>
      <trkpt lat="48.08217" lon="3.29351">
        <ele>76.1</ele>
        <time>2018-09-29T07:44:21Z</time>
      </trkpt>
      <trkpt lat="48.08214" lon="3.29361">
        <ele>75.7</ele>
        <time>2018-09-29T07:44:27Z</time>
      </trkpt>
      <trkpt lat="48.08211" lon="3.29371">
        <ele>76.6</ele>
        <time>2018-09-29T07:44:33Z</time>
      </trkpt>
      <trkpt lat="48.08209" lon="3.29383">
        <ele>77.1</ele>
        <time>2018-09-29T07:44:40Z</time>
      </trkpt>
      <trkpt lat="48.08207" lon="3.29394">
        <ele>77.2</ele>
        <time>2018-09-29T07:44:46Z</time>
      </trkpt>
      <trkpt lat="48.08202" lon="3.29399">
        <ele>76.8</ele>
        <time>2018-09-29T07:44:53Z</time>
      </trkpt>
      <trkpt lat="48.082" lon="3.2941">
        <ele>76.3</ele>
        <time>2018-09-29T07:45:00Z</time>
      </trkpt>
      <trkpt lat="48.082" lon="3.29421">
        <ele>75.2</ele>
        <time>2018-09-29T07:45:07Z</time>
      </trkpt>
      <trkpt lat="48.08199" lon="3.29426">
        <ele>74</ele>
        <time>2018-09-29T07:45:14Z</time>
      </trkpt>
      <trkpt lat="48.08194" lon="3.29431">
        <ele>74</ele>
        <time>2018-09-29T07:45:21Z</time>
      </trkpt>
      <trkpt lat="48.0819" lon="3.29438">
        <ele>79.2</ele>
        <time>2018-09-29T07:45:28Z</time>
      </trkpt>
      <trkpt lat="48.08189" lon="3.29444">
        <ele>82.1</ele>
        <time>2018-09-29T07:45:35Z</time>
      </trkpt>
      <trkpt lat="48.08188" lon="3.29452">
        <ele>83.7</ele>
        <time>2018-09-29T07:45:42Z</time>
      </trkpt>
      <trkpt lat="48.0819" lon="3.29462">
        <ele>86.4</ele>
        <time>2018-09-29T07:45:49Z</time>
      </trkpt>
      <trkpt lat="48.0819" lon="3.29472">
        <ele>88.2</ele>
        <time>2018-09-29T07:45:56Z</time>
      </trkpt>
      <trkpt lat="48.08189" lon="3.2948">
        <ele>87.9</ele>
        <time>2018-09-29T07:46:03Z</time>
      </trkpt>
      <trkpt lat="48.08187" lon="3.29488">
        <ele>87.8</ele>
        <time>2018-09-29T07:46:10Z</time>
      </trkpt>
      <trkpt lat="48.08189" lon="3.29499">
        <ele>89.6</ele>
        <time>2018-09-29T07:46:16Z</time>
      </trkpt>
      <trkpt lat="48.0819" lon="3.29508">
        <ele>92.4</ele>
        <time>2018-09-29T07:46:23Z</time>
      </trkpt>
      <trkpt lat="48.0819" lon="3.29511">
        <ele>95.3</ele>
        <time>2018-09-29T07:46:30Z</time>
      </trkpt>
      <trkpt lat="48.08188" lon="3.29522">
        <ele>95.4</ele>
        <time>2018-09-29T07:46:35Z</time>
      </trkpt>
      <trkpt lat="48.08186" lon="3.29534">
        <ele>98.2</ele>
        <time>2018-09-29T07:46:42Z</time>
      </trkpt>
      <trkpt lat="48.08185" lon="3.29542">
        <ele>94.1</ele>
        <time>2018-09-29T07:46:49Z</time>
      </trkpt>
      <trkpt lat="48.08185" lon="3.29542">
        <ele>94.1</ele>
        <time>2018-09-29T07:46:55Z</time>
      </trkpt>
      <trkpt lat="48.08182" lon="3.29553">
        <ele>100.6</ele>
        <time>2018-09-29T07:47:00Z</time>
      </trkpt>
      <trkpt lat="48.08182" lon="3.29563">
        <ele>101.5</ele>
        <time>2018-09-29T07:47:07Z</time>
      </trkpt>
      <trkpt lat="48.08182" lon="3.29573">
        <ele>97.9</ele>
        <time>2018-09-29T07:47:14Z</time>
      </trkpt>
      <trkpt lat="48.08182" lon="3.29581">
        <ele>94.5</ele>
        <time>2018-09-29T07:47:21Z</time>
      </trkpt>
      <trkpt lat="48.0818" lon="3.29587">
        <ele>88</ele>
        <time>2018-09-29T07:47:28Z</time>
      </trkpt>
      <trkpt lat="48.08178" lon="3.29595">
        <ele>86</ele>
        <time>2018-09-29T07:47:35Z</time>
      </trkpt>
      <trkpt lat="48.08176" lon="3.29606">
        <ele>80.6</ele>
        <time>2018-09-29T07:47:42Z</time>
      </trkpt>
      <trkpt lat="48.08174" lon="3.29617">
        <ele>77.2</ele>
        <time>2018-09-29T07:47:49Z</time>
      </trkpt>
      <trkpt lat="48.08174" lon="3.29628">
        <ele>74.3</ele>
        <time>2018-09-29T07:47:56Z</time>
      </trkpt>
      <trkpt lat="48.08171" lon="3.29638">
        <ele>72.3</ele>
        <time>2018-09-29T07:48:02Z</time>
      </trkpt>
      <trkpt lat="48.08169" lon="3.29647">
        <ele>73.2</ele>
        <time>2018-09-29T07:48:09Z</time>
      </trkpt>
      <trkpt lat="48.08169" lon="3.29657">
        <ele>71.8</ele>
        <time>2018-09-29T07:48:16Z</time>
      </trkpt>
      <trkpt lat="48.0817" lon="3.29668">
        <ele>72</ele>
        <time>2018-09-29T07:48:22Z</time>
      </trkpt>
      <trkpt lat="48.08169" lon="3.29679">
        <ele>70.9</ele>
        <time>2018-09-29T07:48:28Z</time>
      </trkpt>
      <trkpt lat="48.08168" lon="3.2969">
        <ele>69.9</ele>
        <time>2018-09-29T07:48:35Z</time>
      </trkpt>
      <trkpt lat="48.08166" lon="3.29702">
        <ele>68.2</ele>
        <time>2018-09-29T07:48:42Z</time>
      </trkpt>
      <trkpt lat="48.08165" lon="3.29714">
        <ele>68.9</ele>
        <time>2018-09-29T07:48:49Z</time>
      </trkpt>
      <trkpt lat="48.08165" lon="3.29726">
        <ele>67.8</ele>
        <time>2018-09-29T07:48:56Z</time>
      </trkpt>
      <trkpt lat="48.08166" lon="3.29737">
        <ele>67.7</ele>
        <time>2018-09-29T07:49:03Z</time>
      </trkpt>
      <trkpt lat="48.08166" lon="3.29747">
        <ele>69.3</ele>
        <time>2018-09-29T07:49:10Z</time>
      </trkpt>
      <trkpt lat="48.08163" lon="3.29757">
        <ele>70.1</ele>
        <time>2018-09-29T07:49:16Z</time>
      </trkpt>
      <trkpt lat="48.08163" lon="3.29768">
        <ele>69.5</ele>
        <time>2018-09-29T07:49:23Z</time>
      </trkpt>
      <trkpt lat="48.08158" lon="3.29777">
        <ele>69.5</ele>
        <time>2018-09-29T07:49:28Z</time>
      </trkpt>
      <trkpt lat="48.08158" lon="3.29788">
        <ele>74.6</ele>
        <time>2018-09-29T07:49:35Z</time>
      </trkpt>
      <trkpt lat="48.08156" lon="3.29799">
        <ele>76.2</ele>
        <time>2018-09-29T07:49:42Z</time>
      </trkpt>
      <trkpt lat="48.08155" lon="3.2981">
        <ele>76.7</ele>
        <time>2018-09-29T07:49:49Z</time>
      </trkpt>
      <trkpt lat="48.08155" lon="3.29822">
        <ele>77.9</ele>
        <time>2018-09-29T07:49:56Z</time>
      </trkpt>
      <trkpt lat="48.08153" lon="3.29833">
        <ele>78.2</ele>
        <time>2018-09-29T07:50:03Z</time>
      </trkpt>
      <trkpt lat="48.08151" lon="3.29843">
        <ele>78.5</ele>
        <time>2018-09-29T07:50:10Z</time>
      </trkpt>
      <trkpt lat="48.0815" lon="3.29854">
        <ele>76.3</ele>
        <time>2018-09-29T07:50:17Z</time>
      </trkpt>
      <trkpt lat="48.08149" lon="3.29865">
        <ele>75.4</ele>
        <time>2018-09-29T07:50:24Z</time>
      </trkpt>
      <trkpt lat="48.08148" lon="3.29873">
        <ele>71.9</ele>
        <time>2018-09-29T07:50:31Z</time>
      </trkpt>
      <trkpt lat="48.0815" lon="3.29884">
        <ele>72.1</ele>
        <time>2018-09-29T07:50:38Z</time>
      </trkpt>
      <trkpt lat="48.0815" lon="3.29896">
        <ele>74.4</ele>
        <time>2018-09-29T07:50:45Z</time>
      </trkpt>
      <trkpt lat="48.08146" lon="3.29905">
        <ele>75.9</ele>
        <time>2018-09-29T07:50:51Z</time>
      </trkpt>
      <trkpt lat="48.08141" lon="3.29914">
        <ele>78.3</ele>
        <time>2018-09-29T07:50:57Z</time>
      </trkpt>
      <trkpt lat="48.08135" lon="3.29923">
        <ele>79.1</ele>
        <time>2018-09-29T07:51:04Z</time>
      </trkpt>
      <trkpt lat="48.08128" lon="3.29927">
        <ele>78.5</ele>
        <time>2018-09-29T07:51:10Z</time>
      </trkpt>
      <trkpt lat="48.0812" lon="3.29929">
        <ele>78.4</ele>
        <time>2018-09-29T07:51:17Z</time>
      </trkpt>
      <trkpt lat="48.08112" lon="3.29928">
        <ele>78.1</ele>
        <time>2018-09-29T07:51:24Z</time>
      </trkpt>
      <trkpt lat="48.08104" lon="3.29928">
        <ele>77.4</ele>
        <time>2018-09-29T07:51:31Z</time>
      </trkpt>
      <trkpt lat="48.08097" lon="3.29928">
        <ele>76.6</ele>
        <time>2018-09-29T07:51:38Z</time>
      </trkpt>
      <trkpt lat="48.08089" lon="3.29927">
        <ele>75.7</ele>
        <time>2018-09-29T07:51:45Z</time>
      </trkpt>
      <trkpt lat="48.08081" lon="3.29927">
        <ele>75.6</ele>
        <time>2018-09-29T07:51:52Z</time>
      </trkpt>
      <trkpt lat="48.08074" lon="3.29926">
        <ele>75.2</ele>
        <time>2018-09-29T07:51:59Z</time>
      </trkpt>
      <trkpt lat="48.08065" lon="3.29923">
        <ele>75.4</ele>
        <time>2018-09-29T07:52:05Z</time>
      </trkpt>
      <trkpt lat="48.08058" lon="3.29921">
        <ele>75.8</ele>
        <time>2018-09-29T07:52:12Z</time>
      </trkpt>
      <trkpt lat="48.08051" lon="3.29919">
        <ele>76.9</ele>
        <time>2018-09-29T07:52:18Z</time>
      </trkpt>
      <trkpt lat="48.08044" lon="3.29919">
        <ele>78.1</ele>
        <time>2018-09-29T07:52:25Z</time>
      </trkpt>
      <trkpt lat="48.08037" lon="3.29917">
        <ele>77.7</ele>
        <time>2018-09-29T07:52:32Z</time>
      </trkpt>
      <trkpt lat="48.0803" lon="3.29916">
        <ele>79</ele>
        <time>2018-09-29T07:52:39Z</time>
      </trkpt>
      <trkpt lat="48.08021" lon="3.29916">
        <ele>79.7</ele>
        <time>2018-09-29T07:52:46Z</time>
      </trkpt>
      <trkpt lat="48.08013" lon="3.29913">
        <ele>83.4</ele>
        <time>2018-09-29T07:52:52Z</time>
      </trkpt>
      <trkpt lat="48.08005" lon="3.2991">
        <ele>82.4</ele>
        <time>2018-09-29T07:52:58Z</time>
      </trkpt>
      <trkpt lat="48.07998" lon="3.29911">
        <ele>82.8</ele>
        <time>2018-09-29T07:53:05Z</time>
      </trkpt>
      <trkpt lat="48.07992" lon="3.29916">
        <ele>80</ele>
        <time>2018-09-29T07:53:12Z</time>
      </trkpt>
      <trkpt lat="48.07987" lon="3.29924">
        <ele>79.5</ele>
        <time>2018-09-29T07:53:19Z</time>
      </trkpt>
      <trkpt lat="48.0798" lon="3.29927">
        <ele>79.3</ele>
        <time>2018-09-29T07:53:26Z</time>
      </trkpt>
      <trkpt lat="48.07971" lon="3.29928">
        <ele>78.6</ele>
        <time>2018-09-29T07:53:33Z</time>
      </trkpt>
      <trkpt lat="48.07964" lon="3.29927">
        <ele>77.9</ele>
        <time>2018-09-29T07:53:39Z</time>
      </trkpt>
      <trkpt lat="48.07955" lon="3.29927">
        <ele>78.1</ele>
        <time>2018-09-29T07:53:46Z</time>
      </trkpt>
      <trkpt lat="48.07947" lon="3.29924">
        <ele>77.6</ele>
        <time>2018-09-29T07:53:52Z</time>
      </trkpt>
      <trkpt lat="48.07941" lon="3.29919">
        <ele>76.5</ele>
        <time>2018-09-29T07:53:57Z</time>
      </trkpt>
      <trkpt lat="48.07933" lon="3.29918">
        <ele>76.8</ele>
        <time>2018-09-29T07:54:04Z</time>
      </trkpt>
      <trkpt lat="48.07926" lon="3.29914">
        <ele>76.6</ele>
        <time>2018-09-29T07:54:11Z</time>
      </trkpt>
      <trkpt lat="48.07918" lon="3.2991">
        <ele>75.5</ele>
        <time>2018-09-29T07:54:18Z</time>
      </trkpt>
      <trkpt lat="48.07911" lon="3.29907">
        <ele>73.8</ele>
        <time>2018-09-29T07:54:24Z</time>
      </trkpt>
      <trkpt lat="48.07903" lon="3.29904">
        <ele>75.7</ele>
        <time>2018-09-29T07:54:31Z</time>
      </trkpt>
      <trkpt lat="48.07896" lon="3.29901">
        <ele>74.6</ele>
        <time>2018-09-29T07:54:38Z</time>
      </trkpt>
      <trkpt lat="48.07889" lon="3.29898">
        <ele>75.8</ele>
        <time>2018-09-29T07:54:44Z</time>
      </trkpt>
      <trkpt lat="48.07882" lon="3.29896">
        <ele>76.2</ele>
        <time>2018-09-29T07:54:50Z</time>
      </trkpt>
      <trkpt lat="48.07875" lon="3.29891">
        <ele>76.2</ele>
        <time>2018-09-29T07:54:56Z</time>
      </trkpt>
      <trkpt lat="48.07868" lon="3.29888">
        <ele>76.6</ele>
        <time>2018-09-29T07:55:02Z</time>
      </trkpt>
      <trkpt lat="48.0786" lon="3.29882">
        <ele>76.2</ele>
        <time>2018-09-29T07:55:08Z</time>
      </trkpt>
      <trkpt lat="48.07853" lon="3.29878">
        <ele>75.2</ele>
        <time>2018-09-29T07:55:14Z</time>
      </trkpt>
      <trkpt lat="48.07845" lon="3.29875">
        <ele>76.4</ele>
        <time>2018-09-29T07:55:21Z</time>
      </trkpt>
      <trkpt lat="48.07838" lon="3.29872">
        <ele>75.9</ele>
        <time>2018-09-29T07:55:28Z</time>
      </trkpt>
      <trkpt lat="48.07831" lon="3.2987">
        <ele>77.1</ele>
        <time>2018-09-29T07:55:35Z</time>
      </trkpt>
      <trkpt lat="48.07824" lon="3.29866">
        <ele>76.8</ele>
        <time>2018-09-29T07:55:41Z</time>
      </trkpt>
      <trkpt lat="48.07816" lon="3.29862">
        <ele>76.5</ele>
        <time>2018-09-29T07:55:48Z</time>
      </trkpt>
      <trkpt lat="48.07809" lon="3.29858">
        <ele>74.5</ele>
        <time>2018-09-29T07:55:55Z</time>
      </trkpt>
      <trkpt lat="48.07802" lon="3.29855">
        <ele>75.2</ele>
        <time>2018-09-29T07:56:02Z</time>
      </trkpt>
      <trkpt lat="48.07794" lon="3.29853">
        <ele>73.4</ele>
        <time>2018-09-29T07:56:09Z</time>
      </trkpt>
      <trkpt lat="48.07787" lon="3.29848">
        <ele>73.4</ele>
        <time>2018-09-29T07:56:15Z</time>
      </trkpt>
      <trkpt lat="48.0778" lon="3.29844">
        <ele>72.2</ele>
        <time>2018-09-29T07:56:22Z</time>
      </trkpt>
      <trkpt lat="48.07774" lon="3.29837">
        <ele>72.1</ele>
        <time>2018-09-29T07:56:27Z</time>
      </trkpt>
      <trkpt lat="48.07768" lon="3.29829">
        <ele>72.1</ele>
        <time>2018-09-29T07:56:33Z</time>
      </trkpt>
      <trkpt lat="48.07761" lon="3.29825">
        <ele>73</ele>
        <time>2018-09-29T07:56:39Z</time>
      </trkpt>
      <trkpt lat="48.07754" lon="3.29826">
        <ele>73.7</ele>
        <time>2018-09-29T07:56:46Z</time>
      </trkpt>
      <trkpt lat="48.07747" lon="3.29825">
        <ele>73.7</ele>
        <time>2018-09-29T07:56:53Z</time>
      </trkpt>
      <trkpt lat="48.0774" lon="3.29828">
        <ele>74.1</ele>
        <time>2018-09-29T07:57:00Z</time>
      </trkpt>
      <trkpt lat="48.07736" lon="3.29836">
        <ele>74.3</ele>
        <time>2018-09-29T07:57:07Z</time>
      </trkpt>
      <trkpt lat="48.07731" lon="3.29845">
        <ele>75.3</ele>
        <time>2018-09-29T07:57:12Z</time>
      </trkpt>
      <trkpt lat="48.07727" lon="3.29854">
        <ele>76.7</ele>
        <time>2018-09-29T07:57:18Z</time>
      </trkpt>
      <trkpt lat="48.07723" lon="3.29863">
        <ele>77.8</ele>
        <time>2018-09-29T07:57:24Z</time>
      </trkpt>
      <trkpt lat="48.07717" lon="3.29871">
        <ele>80.7</ele>
        <time>2018-09-29T07:57:31Z</time>
      </trkpt>
      <trkpt lat="48.07713" lon="3.29875">
        <ele>80.7</ele>
        <time>2018-09-29T07:57:38Z</time>
      </trkpt>
      <trkpt lat="48.07712" lon="3.29874">
        <ele>80.9</ele>
        <time>2018-09-29T07:57:45Z</time>
      </trkpt>
      <trkpt lat="48.07712" lon="3.29874">
        <ele>80.9</ele>
        <time>2018-09-29T07:57:47Z</time>
      </trkpt>
      <trkpt lat="48.07708" lon="3.29869">
        <ele>82.4</ele>
        <time>2018-09-29T07:58:00Z</time>
      </trkpt>
      <trkpt lat="48.07703" lon="3.29864">
        <ele>83</ele>
        <time>2018-09-29T07:58:07Z</time>
      </trkpt>
      <trkpt lat="48.07696" lon="3.29858">
        <ele>81.3</ele>
        <time>2018-09-29T07:58:14Z</time>
      </trkpt>
      <trkpt lat="48.07691" lon="3.29851">
        <ele>81.9</ele>
        <time>2018-09-29T07:58:21Z</time>
      </trkpt>
      <trkpt lat="48.07685" lon="3.29844">
        <ele>81</ele>
        <time>2018-09-29T07:58:26Z</time>
      </trkpt>
      <trkpt lat="48.07678" lon="3.29838">
        <ele>81.4</ele>
        <time>2018-09-29T07:58:33Z</time>
      </trkpt>
      <trkpt lat="48.0767" lon="3.29834">
        <ele>80.6</ele>
        <time>2018-09-29T07:58:40Z</time>
      </trkpt>
      <trkpt lat="48.07662" lon="3.29831">
        <ele>81.3</ele>
        <time>2018-09-29T07:58:47Z</time>
      </trkpt>
      <trkpt lat="48.07654" lon="3.2983">
        <ele>81.6</ele>
        <time>2018-09-29T07:58:54Z</time>
      </trkpt>
      <trkpt lat="48.07649" lon="3.29829">
        <ele>80.8</ele>
        <time>2018-09-29T07:59:01Z</time>
      </trkpt>
      <trkpt lat="48.07646" lon="3.29828">
        <ele>81</ele>
        <time>2018-09-29T07:59:08Z</time>
      </trkpt>
      <trkpt lat="48.07638" lon="3.29828">
        <ele>82.5</ele>
        <time>2018-09-29T07:59:15Z</time>
      </trkpt>
      <trkpt lat="48.07629" lon="3.29826">
        <ele>82.7</ele>
        <time>2018-09-29T07:59:21Z</time>
      </trkpt>
      <trkpt lat="48.07622" lon="3.29824">
        <ele>83.3</ele>
        <time>2018-09-29T07:59:26Z</time>
      </trkpt>
      <trkpt lat="48.07615" lon="3.2982">
        <ele>83</ele>
        <time>2018-09-29T07:59:31Z</time>
      </trkpt>
      <trkpt lat="48.07608" lon="3.29816">
        <ele>82.6</ele>
        <time>2018-09-29T07:59:36Z</time>
      </trkpt>
      <trkpt lat="48.07601" lon="3.29814">
        <ele>82.9</ele>
        <time>2018-09-29T07:59:42Z</time>
      </trkpt>
      <trkpt lat="48.07594" lon="3.29811">
        <ele>82.9</ele>
        <time>2018-09-29T07:59:48Z</time>
      </trkpt>
      <trkpt lat="48.07586" lon="3.29811">
        <ele>83.6</ele>
        <time>2018-09-29T07:59:55Z</time>
      </trkpt>
      <trkpt lat="48.07579" lon="3.29812">
        <ele>84.3</ele>
        <time>2018-09-29T08:00:02Z</time>
      </trkpt>
      <trkpt lat="48.07573" lon="3.29819">
        <ele>84.9</ele>
        <time>2018-09-29T08:00:09Z</time>
      </trkpt>
      <trkpt lat="48.07567" lon="3.29826">
        <ele>84.8</ele>
        <time>2018-09-29T08:00:15Z</time>
      </trkpt>
      <trkpt lat="48.07563" lon="3.29835">
        <ele>84.5</ele>
        <time>2018-09-29T08:00:21Z</time>
      </trkpt>
      <trkpt lat="48.07557" lon="3.29842">
        <ele>85.5</ele>
        <time>2018-09-29T08:00:28Z</time>
      </trkpt>
      <trkpt lat="48.07552" lon="3.2985">
        <ele>86.6</ele>
        <time>2018-09-29T08:00:35Z</time>
      </trkpt>
      <trkpt lat="48.07546" lon="3.29856">
        <ele>87.4</ele>
        <time>2018-09-29T08:00:42Z</time>
      </trkpt>
      <trkpt lat="48.0754" lon="3.29863">
        <ele>88.3</ele>
        <time>2018-09-29T08:00:49Z</time>
      </trkpt>
      <trkpt lat="48.07533" lon="3.29868">
        <ele>88.4</ele>
        <time>2018-09-29T08:00:56Z</time>
      </trkpt>
      <trkpt lat="48.07526" lon="3.29872">
        <ele>88.4</ele>
        <time>2018-09-29T08:01:02Z</time>
      </trkpt>
      <trkpt lat="48.07519" lon="3.29876">
        <ele>88.4</ele>
        <time>2018-09-29T08:01:09Z</time>
      </trkpt>
      <trkpt lat="48.07512" lon="3.29882">
        <ele>88.5</ele>
        <time>2018-09-29T08:01:15Z</time>
      </trkpt>
      <trkpt lat="48.07504" lon="3.29887">
        <ele>88.4</ele>
        <time>2018-09-29T08:01:22Z</time>
      </trkpt>
      <trkpt lat="48.075" lon="3.29892">
        <ele>90.1</ele>
        <time>2018-09-29T08:01:29Z</time>
      </trkpt>
      <trkpt lat="48.07493" lon="3.29897">
        <ele>91.3</ele>
        <time>2018-09-29T08:01:36Z</time>
      </trkpt>
      <trkpt lat="48.07486" lon="3.29901">
        <ele>91.5</ele>
        <time>2018-09-29T08:01:42Z</time>
      </trkpt>
      <trkpt lat="48.07479" lon="3.29905">
        <ele>91.7</ele>
        <time>2018-09-29T08:01:48Z</time>
      </trkpt>
      <trkpt lat="48.07472" lon="3.29909">
        <ele>92.6</ele>
        <time>2018-09-29T08:01:55Z</time>
      </trkpt>
      <trkpt lat="48.07465" lon="3.29914">
        <ele>92.7</ele>
        <time>2018-09-29T08:02:01Z</time>
      </trkpt>
      <trkpt lat="48.07459" lon="3.29921">
        <ele>93.5</ele>
        <time>2018-09-29T08:02:07Z</time>
      </trkpt>
      <trkpt lat="48.07456" lon="3.29927">
        <ele>92.9</ele>
        <time>2018-09-29T08:02:14Z</time>
      </trkpt>
      <trkpt lat="48.07452" lon="3.29936">
        <ele>96</ele>
        <time>2018-09-29T08:02:20Z</time>
      </trkpt>
      <trkpt lat="48.07448" lon="3.29946">
        <ele>102.3</ele>
        <time>2018-09-29T08:02:26Z</time>
      </trkpt>
      <trkpt lat="48.07445" lon="3.29956">
        <ele>103.9</ele>
        <time>2018-09-29T08:02:31Z</time>
      </trkpt>
      <trkpt lat="48.07442" lon="3.29966">
        <ele>101.7</ele>
        <time>2018-09-29T08:02:37Z</time>
      </trkpt>
      <trkpt lat="48.07439" lon="3.29977">
        <ele>102.9</ele>
        <time>2018-09-29T08:02:44Z</time>
      </trkpt>
      <trkpt lat="48.07437" lon="3.29987">
        <ele>106.4</ele>
        <time>2018-09-29T08:02:51Z</time>
      </trkpt>
      <trkpt lat="48.07434" lon="3.29999">
        <ele>107.5</ele>
        <time>2018-09-29T08:02:58Z</time>
      </trkpt>
      <trkpt lat="48.07431" lon="3.30008">
        <ele>109.6</ele>
        <time>2018-09-29T08:03:04Z</time>
      </trkpt>
      <trkpt lat="48.07428" lon="3.30019">
        <ele>108</ele>
        <time>2018-09-29T08:03:09Z</time>
      </trkpt>
      <trkpt lat="48.07422" lon="3.30027">
        <ele>108.3</ele>
        <time>2018-09-29T08:03:15Z</time>
      </trkpt>
      <trkpt lat="48.07418" lon="3.30036">
        <ele>106.1</ele>
        <time>2018-09-29T08:03:20Z</time>
      </trkpt>
      <trkpt lat="48.07414" lon="3.30046">
        <ele>106.1</ele>
        <time>2018-09-29T08:03:25Z</time>
      </trkpt>
      <trkpt lat="48.0741" lon="3.30055">
        <ele>108.6</ele>
        <time>2018-09-29T08:03:31Z</time>
      </trkpt>
      <trkpt lat="48.07405" lon="3.30062">
        <ele>109.3</ele>
        <time>2018-09-29T08:03:38Z</time>
      </trkpt>
      <trkpt lat="48.07401" lon="3.3007">
        <ele>110.8</ele>
        <time>2018-09-29T08:03:45Z</time>
      </trkpt>
      <trkpt lat="48.07396" lon="3.3008">
        <ele>112.4</ele>
        <time>2018-09-29T08:03:51Z</time>
      </trkpt>
      <trkpt lat="48.07393" lon="3.30088">
        <ele>108.5</ele>
        <time>2018-09-29T08:03:58Z</time>
      </trkpt>
      <trkpt lat="48.0739" lon="3.301">
        <ele>107.3</ele>
        <time>2018-09-29T08:04:04Z</time>
      </trkpt>
      <trkpt lat="48.07387" lon="3.30109">
        <ele>107.4</ele>
        <time>2018-09-29T08:04:09Z</time>
      </trkpt>
      <trkpt lat="48.07384" lon="3.3012">
        <ele>111.5</ele>
        <time>2018-09-29T08:04:15Z</time>
      </trkpt>
      <trkpt lat="48.07381" lon="3.3013">
        <ele>112.5</ele>
        <time>2018-09-29T08:04:20Z</time>
      </trkpt>
      <trkpt lat="48.07377" lon="3.30141">
        <ele>111.7</ele>
        <time>2018-09-29T08:04:25Z</time>
      </trkpt>
      <trkpt lat="48.07374" lon="3.30151">
        <ele>111.8</ele>
        <time>2018-09-29T08:04:31Z</time>
      </trkpt>
      <trkpt lat="48.0737" lon="3.3016">
        <ele>115.6</ele>
        <time>2018-09-29T08:04:38Z</time>
      </trkpt>
      <trkpt lat="48.07366" lon="3.3017">
        <ele>116.2</ele>
        <time>2018-09-29T08:04:44Z</time>
      </trkpt>
      <trkpt lat="48.07363" lon="3.30181">
        <ele>115.2</ele>
        <time>2018-09-29T08:04:50Z</time>
      </trkpt>
      <trkpt lat="48.07358" lon="3.30191">
        <ele>116.7</ele>
        <time>2018-09-29T08:04:56Z</time>
      </trkpt>
      <trkpt lat="48.07353" lon="3.30201">
        <ele>119.4</ele>
        <time>2018-09-29T08:05:02Z</time>
      </trkpt>
      <trkpt lat="48.07351" lon="3.30206">
        <ele>118.3</ele>
        <time>2018-09-29T08:05:09Z</time>
      </trkpt>
      <trkpt lat="48.07351" lon="3.30206">
        <ele>118.3</ele>
        <time>2018-09-29T08:05:12Z</time>
      </trkpt>
      <trkpt lat="48.07346" lon="3.30216">
        <ele>119.1</ele>
        <time>2018-09-29T08:05:19Z</time>
      </trkpt>
      <trkpt lat="48.07343" lon="3.30227">
        <ele>117.3</ele>
        <time>2018-09-29T08:05:26Z</time>
      </trkpt>
      <trkpt lat="48.07339" lon="3.30237">
        <ele>119.3</ele>
        <time>2018-09-29T08:05:32Z</time>
      </trkpt>
      <trkpt lat="48.07335" lon="3.30246">
        <ele>118.9</ele>
        <time>2018-09-29T08:05:37Z</time>
      </trkpt>
      <trkpt lat="48.0733" lon="3.30256">
        <ele>119</ele>
        <time>2018-09-29T08:05:43Z</time>
      </trkpt>
      <trkpt lat="48.07325" lon="3.30266">
        <ele>119.2</ele>
        <time>2018-09-29T08:05:50Z</time>
      </trkpt>
      <trkpt lat="48.07321" lon="3.30276">
        <ele>117.8</ele>
        <time>2018-09-29T08:05:56Z</time>
      </trkpt>
      <trkpt lat="48.07317" lon="3.30287">
        <ele>116.7</ele>
        <time>2018-09-29T08:06:03Z</time>
      </trkpt>
      <trkpt lat="48.07313" lon="3.30298">
        <ele>120.6</ele>
        <time>2018-09-29T08:06:10Z</time>
      </trkpt>
      <trkpt lat="48.07309" lon="3.30307">
        <ele>122.1</ele>
        <time>2018-09-29T08:06:15Z</time>
      </trkpt>
      <trkpt lat="48.07305" lon="3.30318">
        <ele>121.6</ele>
        <time>2018-09-29T08:06:20Z</time>
      </trkpt>
      <trkpt lat="48.07301" lon="3.30328">
        <ele>122.6</ele>
        <time>2018-09-29T08:06:25Z</time>
      </trkpt>
      <trkpt lat="48.07296" lon="3.30337">
        <ele>124.4</ele>
        <time>2018-09-29T08:06:31Z</time>
      </trkpt>
      <trkpt lat="48.07291" lon="3.30345">
        <ele>126.1</ele>
        <time>2018-09-29T08:06:37Z</time>
      </trkpt>
      <trkpt lat="48.07286" lon="3.30353">
        <ele>127.8</ele>
        <time>2018-09-29T08:06:43Z</time>
      </trkpt>
      <trkpt lat="48.0728" lon="3.3036">
        <ele>130.2</ele>
        <time>2018-09-29T08:06:49Z</time>
      </trkpt>
      <trkpt lat="48.07276" lon="3.3037">
        <ele>129.7</ele>
        <time>2018-09-29T08:06:54Z</time>
      </trkpt>
      <trkpt lat="48.0727" lon="3.30377">
        <ele>132</ele>
        <time>2018-09-29T08:07:00Z</time>
      </trkpt>
      <trkpt lat="48.07265" lon="3.30385">
        <ele>132.6</ele>
        <time>2018-09-29T08:07:07Z</time>
      </trkpt>
      <trkpt lat="48.07258" lon="3.30392">
        <ele>132.9</ele>
        <time>2018-09-29T08:07:14Z</time>
      </trkpt>
      <trkpt lat="48.07251" lon="3.30399">
        <ele>133</ele>
        <time>2018-09-29T08:07:21Z</time>
      </trkpt>
      <trkpt lat="48.07245" lon="3.30407">
        <ele>132.6</ele>
        <time>2018-09-29T08:07:27Z</time>
      </trkpt>
      <trkpt lat="48.07238" lon="3.30412">
        <ele>135.4</ele>
        <time>2018-09-29T08:07:33Z</time>
      </trkpt>
      <trkpt lat="48.07233" lon="3.30421">
        <ele>135</ele>
        <time>2018-09-29T08:07:39Z</time>
      </trkpt>
      <trkpt lat="48.07228" lon="3.3043">
        <ele>137.2</ele>
        <time>2018-09-29T08:07:45Z</time>
      </trkpt>
      <trkpt lat="48.07221" lon="3.30437">
        <ele>138.1</ele>
        <time>2018-09-29T08:07:51Z</time>
      </trkpt>
      <trkpt lat="48.07216" lon="3.30446">
        <ele>140.9</ele>
        <time>2018-09-29T08:07:56Z</time>
      </trkpt>
      <trkpt lat="48.07211" lon="3.30454">
        <ele>143.1</ele>
        <time>2018-09-29T08:08:01Z</time>
      </trkpt>
      <trkpt lat="48.07205" lon="3.30462">
        <ele>145</ele>
        <time>2018-09-29T08:08:06Z</time>
      </trkpt>
      <trkpt lat="48.07199" lon="3.30469">
        <ele>146.2</ele>
        <time>2018-09-29T08:08:11Z</time>
      </trkpt>
      <trkpt lat="48.07194" lon="3.30478">
        <ele>145.9</ele>
        <time>2018-09-29T08:08:16Z</time>
      </trkpt>
      <trkpt lat="48.07189" lon="3.30488">
        <ele>145.1</ele>
        <time>2018-09-29T08:08:22Z</time>
      </trkpt>
      <trkpt lat="48.07185" lon="3.30497">
        <ele>145.1</ele>
        <time>2018-09-29T08:08:28Z</time>
      </trkpt>
      <trkpt lat="48.0718" lon="3.30505">
        <ele>148.4</ele>
        <time>2018-09-29T08:08:34Z</time>
      </trkpt>
      <trkpt lat="48.07174" lon="3.30514">
        <ele>150</ele>
        <time>2018-09-29T08:08:41Z</time>
      </trkpt>
      <trkpt lat="48.0717" lon="3.30522">
        <ele>152.4</ele>
        <time>2018-09-29T08:08:48Z</time>
      </trkpt>
      <trkpt lat="48.07164" lon="3.3053">
        <ele>152.7</ele>
        <time>2018-09-29T08:08:55Z</time>
      </trkpt>
      <trkpt lat="48.07157" lon="3.30538">
        <ele>152.8</ele>
        <time>2018-09-29T08:09:01Z</time>
      </trkpt>
      <trkpt lat="48.07153" lon="3.30547">
        <ele>156.5</ele>
        <time>2018-09-29T08:09:06Z</time>
      </trkpt>
      <trkpt lat="48.07153" lon="3.30554">
        <ele>157.5</ele>
        <time>2018-09-29T08:09:13Z</time>
      </trkpt>
      <trkpt lat="48.07153" lon="3.30554">
        <ele>158.2</ele>
        <time>2018-09-29T08:09:19Z</time>
      </trkpt>
      <trkpt lat="48.07153" lon="3.30553">
        <ele>157.3</ele>
        <time>2018-09-29T08:09:29Z</time>
      </trkpt>
      <trkpt lat="48.07152" lon="3.30553">
        <ele>156.6</ele>
        <time>2018-09-29T08:09:36Z</time>
      </trkpt>
      <trkpt lat="48.07154" lon="3.30549">
        <ele>155.9</ele>
        <time>2018-09-29T08:09:49Z</time>
      </trkpt>
      <trkpt lat="48.07154" lon="3.30549">
        <ele>155.9</ele>
        <time>2018-09-29T08:09:53Z</time>
      </trkpt>
      <trkpt lat="48.07153" lon="3.3055">
        <ele>159.8</ele>
        <time>2018-09-29T08:10:35Z</time>
      </trkpt>
      <trkpt lat="48.07153" lon="3.3055">
        <ele>159.8</ele>
        <time>2018-09-29T08:10:37Z</time>
      </trkpt>
      <trkpt lat="48.07152" lon="3.30549">
        <ele>161.8</ele>
        <time>2018-09-29T08:11:05Z</time>
      </trkpt>
      <trkpt lat="48.07152" lon="3.30549">
        <ele>161.8</ele>
        <time>2018-09-29T08:11:07Z</time>
      </trkpt>
      <trkpt lat="48.07154" lon="3.30544">
        <ele>155.8</ele>
        <time>2018-09-29T08:14:52Z</time>
      </trkpt>
      <trkpt lat="48.07159" lon="3.30535">
        <ele>153.2</ele>
        <time>2018-09-29T08:14:59Z</time>
      </trkpt>
      <trkpt lat="48.07159" lon="3.30531">
        <ele>152.4</ele>
        <time>2018-09-29T08:15:06Z</time>
      </trkpt>
      <trkpt lat="48.07159" lon="3.30531">
        <ele>152.4</ele>
        <time>2018-09-29T08:15:09Z</time>
      </trkpt>
      <trkpt lat="48.07157" lon="3.30541">
        <ele>152.7</ele>
        <time>2018-09-29T08:15:41Z</time>
      </trkpt>
      <trkpt lat="48.07153" lon="3.30549">
        <ele>152.5</ele>
        <time>2018-09-29T08:15:48Z</time>
      </trkpt>
      <trkpt lat="48.07152" lon="3.3055">
        <ele>154</ele>
        <time>2018-09-29T08:15:55Z</time>
      </trkpt>
      <trkpt lat="48.07152" lon="3.3055">
        <ele>154</ele>
        <time>2018-09-29T08:15:57Z</time>
      </trkpt>
      <trkpt lat="48.0715" lon="3.3055">
        <ele>155.7</ele>
        <time>2018-09-29T08:16:17Z</time>
      </trkpt>
      <trkpt lat="48.0715" lon="3.3055">
        <ele>155.7</ele>
        <time>2018-09-29T08:16:18Z</time>
      </trkpt>
      <trkpt lat="48.07148" lon="3.30557">
        <ele>156.8</ele>
        <time>2018-09-29T08:17:28Z</time>
      </trkpt>
      <trkpt lat="48.07148" lon="3.30557">
        <ele>156.8</ele>
        <time>2018-09-29T08:17:30Z</time>
      </trkpt>
      <trkpt lat="48.07146" lon="3.30558">
        <ele>159.2</ele>
        <time>2018-09-29T08:17:37Z</time>
      </trkpt>
      <trkpt lat="48.07146" lon="3.30558">
        <ele>159.2</ele>
        <time>2018-09-29T08:17:39Z</time>
      </trkpt>
      <trkpt lat="48.07145" lon="3.30557">
        <ele>160.8</ele>
        <time>2018-09-29T08:17:58Z</time>
      </trkpt>
      <trkpt lat="48.0714" lon="3.30562">
        <ele>159.8</ele>
        <time>2018-09-29T08:18:05Z</time>
      </trkpt>
      <trkpt lat="48.07134" lon="3.30565">
        <ele>160.2</ele>
        <time>2018-09-29T08:18:12Z</time>
      </trkpt>
      <trkpt lat="48.07128" lon="3.30569">
        <ele>161.7</ele>
        <time>2018-09-29T08:18:19Z</time>
      </trkpt>
      <trkpt lat="48.07121" lon="3.30573">
        <ele>161.3</ele>
        <time>2018-09-29T08:18:26Z</time>
      </trkpt>
      <trkpt lat="48.07119" lon="3.30575">
        <ele>160.7</ele>
        <time>2018-09-29T08:18:33Z</time>
      </trkpt>
      <trkpt lat="48.07119" lon="3.30575">
        <ele>160.7</ele>
        <time>2018-09-29T08:18:35Z</time>
      </trkpt>
      <trkpt lat="48.07116" lon="3.3058">
        <ele>161.1</ele>
        <time>2018-09-29T08:19:44Z</time>
      </trkpt>
      <trkpt lat="48.0711" lon="3.30584">
        <ele>161.4</ele>
        <time>2018-09-29T08:19:51Z</time>
      </trkpt>
      <trkpt lat="48.07102" lon="3.30587">
        <ele>162.3</ele>
        <time>2018-09-29T08:19:58Z</time>
      </trkpt>
      <trkpt lat="48.07095" lon="3.30591">
        <ele>163.7</ele>
        <time>2018-09-29T08:20:05Z</time>
      </trkpt>
      <trkpt lat="48.07088" lon="3.30594">
        <ele>163</ele>
        <time>2018-09-29T08:20:12Z</time>
      </trkpt>
      <trkpt lat="48.07082" lon="3.30596">
        <ele>160.3</ele>
        <time>2018-09-29T08:20:19Z</time>
      </trkpt>
      <trkpt lat="48.07074" lon="3.30599">
        <ele>161.4</ele>
        <time>2018-09-29T08:20:26Z</time>
      </trkpt>
      <trkpt lat="48.07067" lon="3.30601">
        <ele>163.1</ele>
        <time>2018-09-29T08:20:33Z</time>
      </trkpt>
      <trkpt lat="48.07059" lon="3.30602">
        <ele>162</ele>
        <time>2018-09-29T08:20:40Z</time>
      </trkpt>
      <trkpt lat="48.07052" lon="3.30604">
        <ele>160.8</ele>
        <time>2018-09-29T08:20:46Z</time>
      </trkpt>
      <trkpt lat="48.07044" lon="3.30606">
        <ele>161.3</ele>
        <time>2018-09-29T08:20:52Z</time>
      </trkpt>
      <trkpt lat="48.07036" lon="3.30608">
        <ele>162.8</ele>
        <time>2018-09-29T08:20:58Z</time>
      </trkpt>
      <trkpt lat="48.07028" lon="3.30611">
        <ele>162.1</ele>
        <time>2018-09-29T08:21:04Z</time>
      </trkpt>
      <trkpt lat="48.07021" lon="3.30614">
        <ele>163.1</ele>
        <time>2018-09-29T08:21:09Z</time>
      </trkpt>
      <trkpt lat="48.07014" lon="3.30616">
        <ele>165.1</ele>
        <time>2018-09-29T08:21:14Z</time>
      </trkpt>
      <trkpt lat="48.07007" lon="3.30619">
        <ele>165.9</ele>
        <time>2018-09-29T08:21:20Z</time>
      </trkpt>
      <trkpt lat="48.06999" lon="3.30624">
        <ele>166.1</ele>
        <time>2018-09-29T08:21:26Z</time>
      </trkpt>
      <trkpt lat="48.06992" lon="3.30629">
        <ele>166</ele>
        <time>2018-09-29T08:21:32Z</time>
      </trkpt>
      <trkpt lat="48.06985" lon="3.3063">
        <ele>166.1</ele>
        <time>2018-09-29T08:21:38Z</time>
      </trkpt>
      <trkpt lat="48.06977" lon="3.30631">
        <ele>165.2</ele>
        <time>2018-09-29T08:21:44Z</time>
      </trkpt>
      <trkpt lat="48.0697" lon="3.30633">
        <ele>163.7</ele>
        <time>2018-09-29T08:21:51Z</time>
      </trkpt>
      <trkpt lat="48.06963" lon="3.30637">
        <ele>163.1</ele>
        <time>2018-09-29T08:21:57Z</time>
      </trkpt>
      <trkpt lat="48.06956" lon="3.30642">
        <ele>163.4</ele>
        <time>2018-09-29T08:22:02Z</time>
      </trkpt>
      <trkpt lat="48.06948" lon="3.30645">
        <ele>163.8</ele>
        <time>2018-09-29T08:22:08Z</time>
      </trkpt>
      <trkpt lat="48.06941" lon="3.30648">
        <ele>164.7</ele>
        <time>2018-09-29T08:22:14Z</time>
      </trkpt>
      <trkpt lat="48.06933" lon="3.30653">
        <ele>167.7</ele>
        <time>2018-09-29T08:22:19Z</time>
      </trkpt>
      <trkpt lat="48.06925" lon="3.30657">
        <ele>168.4</ele>
        <time>2018-09-29T08:22:24Z</time>
      </trkpt>
      <trkpt lat="48.06917" lon="3.30661">
        <ele>168.5</ele>
        <time>2018-09-29T08:22:30Z</time>
      </trkpt>
      <trkpt lat="48.0691" lon="3.30665">
        <ele>167.7</ele>
        <time>2018-09-29T08:22:36Z</time>
      </trkpt>
      <trkpt lat="48.06902" lon="3.30671">
        <ele>168</ele>
        <time>2018-09-29T08:22:42Z</time>
      </trkpt>
      <trkpt lat="48.06895" lon="3.30675">
        <ele>167.7</ele>
        <time>2018-09-29T08:22:48Z</time>
      </trkpt>
      <trkpt lat="48.06886" lon="3.30679">
        <ele>167.9</ele>
        <time>2018-09-29T08:22:54Z</time>
      </trkpt>
      <trkpt lat="48.0688" lon="3.30683">
        <ele>167.7</ele>
        <time>2018-09-29T08:23:00Z</time>
      </trkpt>
      <trkpt lat="48.06872" lon="3.30687">
        <ele>167.4</ele>
        <time>2018-09-29T08:23:06Z</time>
      </trkpt>
      <trkpt lat="48.06865" lon="3.3069">
        <ele>167.5</ele>
        <time>2018-09-29T08:23:11Z</time>
      </trkpt>
      <trkpt lat="48.06857" lon="3.30693">
        <ele>167.8</ele>
        <time>2018-09-29T08:23:17Z</time>
      </trkpt>
      <trkpt lat="48.06851" lon="3.30697">
        <ele>168.2</ele>
        <time>2018-09-29T08:23:22Z</time>
      </trkpt>
      <trkpt lat="48.06843" lon="3.30702">
        <ele>168</ele>
        <time>2018-09-29T08:23:28Z</time>
      </trkpt>
      <trkpt lat="48.06836" lon="3.30705">
        <ele>169.2</ele>
        <time>2018-09-29T08:23:34Z</time>
      </trkpt>
      <trkpt lat="48.06828" lon="3.30709">
        <ele>169.6</ele>
        <time>2018-09-29T08:23:40Z</time>
      </trkpt>
      <trkpt lat="48.06822" lon="3.30714">
        <ele>169.5</ele>
        <time>2018-09-29T08:23:46Z</time>
      </trkpt>
      <trkpt lat="48.06815" lon="3.30718">
        <ele>169.9</ele>
        <time>2018-09-29T08:23:52Z</time>
      </trkpt>
      <trkpt lat="48.06808" lon="3.30723">
        <ele>169.8</ele>
        <time>2018-09-29T08:23:59Z</time>
      </trkpt>
      <trkpt lat="48.06802" lon="3.30724">
        <ele>169.7</ele>
        <time>2018-09-29T08:24:06Z</time>
      </trkpt>
      <trkpt lat="48.06801" lon="3.30723">
        <ele>169.3</ele>
        <time>2018-09-29T08:24:13Z</time>
      </trkpt>
      <trkpt lat="48.06796" lon="3.30729">
        <ele>168.4</ele>
        <time>2018-09-29T08:26:07Z</time>
      </trkpt>
      <trkpt lat="48.06791" lon="3.30735">
        <ele>168.5</ele>
        <time>2018-09-29T08:26:14Z</time>
      </trkpt>
      <trkpt lat="48.06788" lon="3.30743">
        <ele>169.1</ele>
        <time>2018-09-29T08:26:21Z</time>
      </trkpt>
      <trkpt lat="48.06785" lon="3.30751">
        <ele>168.6</ele>
        <time>2018-09-29T08:26:28Z</time>
      </trkpt>
      <trkpt lat="48.06783" lon="3.30757">
        <ele>168.8</ele>
        <time>2018-09-29T08:26:35Z</time>
      </trkpt>
      <trkpt lat="48.06782" lon="3.3076">
        <ele>169.1</ele>
        <time>2018-09-29T08:26:42Z</time>
      </trkpt>
      <trkpt lat="48.06782" lon="3.3076">
        <ele>169.1</ele>
        <time>2018-09-29T08:26:45Z</time>
      </trkpt>
      <trkpt lat="48.06779" lon="3.30765">
        <ele>169</ele>
        <time>2018-09-29T08:26:55Z</time>
      </trkpt>
      <trkpt lat="48.06774" lon="3.30772">
        <ele>169.5</ele>
        <time>2018-09-29T08:27:02Z</time>
      </trkpt>
      <trkpt lat="48.06768" lon="3.30779">
        <ele>170.4</ele>
        <time>2018-09-29T08:27:08Z</time>
      </trkpt>
      <trkpt lat="48.06761" lon="3.30786">
        <ele>170.4</ele>
        <time>2018-09-29T08:27:15Z</time>
      </trkpt>
      <trkpt lat="48.06755" lon="3.30794">
        <ele>170.4</ele>
        <time>2018-09-29T08:27:22Z</time>
      </trkpt>
      <trkpt lat="48.06748" lon="3.308">
        <ele>170.2</ele>
        <time>2018-09-29T08:27:29Z</time>
      </trkpt>
      <trkpt lat="48.06742" lon="3.30805">
        <ele>170</ele>
        <time>2018-09-29T08:27:36Z</time>
      </trkpt>
      <trkpt lat="48.06739" lon="3.30808">
        <ele>169.3</ele>
        <time>2018-09-29T08:27:43Z</time>
      </trkpt>
      <trkpt lat="48.06732" lon="3.30814">
        <ele>169.1</ele>
        <time>2018-09-29T08:27:50Z</time>
      </trkpt>
      <trkpt lat="48.06725" lon="3.30819">
        <ele>169.5</ele>
        <time>2018-09-29T08:27:57Z</time>
      </trkpt>
      <trkpt lat="48.06718" lon="3.30824">
        <ele>169.5</ele>
        <time>2018-09-29T08:28:04Z</time>
      </trkpt>
      <trkpt lat="48.06712" lon="3.3083">
        <ele>169.2</ele>
        <time>2018-09-29T08:28:10Z</time>
      </trkpt>
      <trkpt lat="48.06705" lon="3.30836">
        <ele>169.6</ele>
        <time>2018-09-29T08:28:16Z</time>
      </trkpt>
      <trkpt lat="48.06698" lon="3.30841">
        <ele>169.3</ele>
        <time>2018-09-29T08:28:22Z</time>
      </trkpt>
      <trkpt lat="48.06691" lon="3.30846">
        <ele>169.6</ele>
        <time>2018-09-29T08:28:29Z</time>
      </trkpt>
      <trkpt lat="48.06684" lon="3.30853">
        <ele>169.9</ele>
        <time>2018-09-29T08:28:35Z</time>
      </trkpt>
      <trkpt lat="48.06678" lon="3.30858">
        <ele>168.8</ele>
        <time>2018-09-29T08:28:41Z</time>
      </trkpt>
      <trkpt lat="48.06671" lon="3.30864">
        <ele>169.4</ele>
        <time>2018-09-29T08:28:48Z</time>
      </trkpt>
      <trkpt lat="48.06665" lon="3.3087">
        <ele>168.6</ele>
        <time>2018-09-29T08:28:54Z</time>
      </trkpt>
      <trkpt lat="48.06659" lon="3.30876">
        <ele>168.8</ele>
        <time>2018-09-29T08:29:00Z</time>
      </trkpt>
      <trkpt lat="48.06651" lon="3.30882">
        <ele>168.3</ele>
        <time>2018-09-29T08:29:07Z</time>
      </trkpt>
      <trkpt lat="48.06646" lon="3.3089">
        <ele>169.5</ele>
        <time>2018-09-29T08:29:14Z</time>
      </trkpt>
      <trkpt lat="48.0664" lon="3.30897">
        <ele>169.5</ele>
        <time>2018-09-29T08:29:20Z</time>
      </trkpt>
      <trkpt lat="48.06633" lon="3.30905">
        <ele>168.9</ele>
        <time>2018-09-29T08:29:27Z</time>
      </trkpt>
      <trkpt lat="48.06627" lon="3.30914">
        <ele>167.1</ele>
        <time>2018-09-29T08:29:34Z</time>
      </trkpt>
      <trkpt lat="48.06621" lon="3.3092">
        <ele>167.1</ele>
        <time>2018-09-29T08:29:41Z</time>
      </trkpt>
      <trkpt lat="48.06615" lon="3.30928">
        <ele>167</ele>
        <time>2018-09-29T08:29:47Z</time>
      </trkpt>
      <trkpt lat="48.06611" lon="3.30936">
        <ele>165.8</ele>
        <time>2018-09-29T08:29:53Z</time>
      </trkpt>
      <trkpt lat="48.06604" lon="3.30943">
        <ele>164.5</ele>
        <time>2018-09-29T08:29:59Z</time>
      </trkpt>
      <trkpt lat="48.06599" lon="3.30953">
        <ele>164</ele>
        <time>2018-09-29T08:30:06Z</time>
      </trkpt>
      <trkpt lat="48.06592" lon="3.30962">
        <ele>161.2</ele>
        <time>2018-09-29T08:30:12Z</time>
      </trkpt>
      <trkpt lat="48.06587" lon="3.30969">
        <ele>161.9</ele>
        <time>2018-09-29T08:30:17Z</time>
      </trkpt>
      <trkpt lat="48.0658" lon="3.3098">
        <ele>165.5</ele>
        <time>2018-09-29T08:30:24Z</time>
      </trkpt>
      <trkpt lat="48.06573" lon="3.30986">
        <ele>165.8</ele>
        <time>2018-09-29T08:30:30Z</time>
      </trkpt>
      <trkpt lat="48.06565" lon="3.30992">
        <ele>167.7</ele>
        <time>2018-09-29T08:30:36Z</time>
      </trkpt>
      <trkpt lat="48.06559" lon="3.30999">
        <ele>168</ele>
        <time>2018-09-29T08:30:42Z</time>
      </trkpt>
      <trkpt lat="48.06552" lon="3.31007">
        <ele>170</ele>
        <time>2018-09-29T08:30:49Z</time>
      </trkpt>
      <trkpt lat="48.06547" lon="3.31015">
        <ele>168.4</ele>
        <time>2018-09-29T08:30:54Z</time>
      </trkpt>
      <trkpt lat="48.06542" lon="3.31023">
        <ele>167.9</ele>
        <time>2018-09-29T08:31:01Z</time>
      </trkpt>
      <trkpt lat="48.06535" lon="3.31029">
        <ele>166.3</ele>
        <time>2018-09-29T08:31:07Z</time>
      </trkpt>
      <trkpt lat="48.06528" lon="3.31034">
        <ele>167.2</ele>
        <time>2018-09-29T08:31:14Z</time>
      </trkpt>
      <trkpt lat="48.06522" lon="3.3104">
        <ele>164.8</ele>
        <time>2018-09-29T08:31:20Z</time>
      </trkpt>
      <trkpt lat="48.06514" lon="3.31046">
        <ele>165.4</ele>
        <time>2018-09-29T08:31:27Z</time>
      </trkpt>
      <trkpt lat="48.06507" lon="3.31051">
        <ele>164.5</ele>
        <time>2018-09-29T08:31:33Z</time>
      </trkpt>
      <trkpt lat="48.065" lon="3.31056">
        <ele>164.1</ele>
        <time>2018-09-29T08:31:40Z</time>
      </trkpt>
      <trkpt lat="48.06493" lon="3.3106">
        <ele>164</ele>
        <time>2018-09-29T08:31:46Z</time>
      </trkpt>
      <trkpt lat="48.06486" lon="3.31065">
        <ele>162.7</ele>
        <time>2018-09-29T08:31:52Z</time>
      </trkpt>
      <trkpt lat="48.06479" lon="3.3107">
        <ele>164.1</ele>
        <time>2018-09-29T08:31:59Z</time>
      </trkpt>
      <trkpt lat="48.06471" lon="3.31075">
        <ele>161.7</ele>
        <time>2018-09-29T08:32:06Z</time>
      </trkpt>
      <trkpt lat="48.06464" lon="3.31081">
        <ele>160.9</ele>
        <time>2018-09-29T08:32:12Z</time>
      </trkpt>
      <trkpt lat="48.06457" lon="3.31085">
        <ele>159.8</ele>
        <time>2018-09-29T08:32:19Z</time>
      </trkpt>
      <trkpt lat="48.0645" lon="3.3109">
        <ele>158.4</ele>
        <time>2018-09-29T08:32:25Z</time>
      </trkpt>
      <trkpt lat="48.06442" lon="3.31094">
        <ele>160.6</ele>
        <time>2018-09-29T08:32:32Z</time>
      </trkpt>
      <trkpt lat="48.06435" lon="3.31097">
        <ele>161.9</ele>
        <time>2018-09-29T08:32:39Z</time>
      </trkpt>
      <trkpt lat="48.06427" lon="3.31099">
        <ele>162.6</ele>
        <time>2018-09-29T08:32:46Z</time>
      </trkpt>
      <trkpt lat="48.06419" lon="3.31101">
        <ele>161.7</ele>
        <time>2018-09-29T08:32:52Z</time>
      </trkpt>
      <trkpt lat="48.06412" lon="3.31103">
        <ele>161.8</ele>
        <time>2018-09-29T08:32:58Z</time>
      </trkpt>
      <trkpt lat="48.06404" lon="3.31105">
        <ele>161.4</ele>
        <time>2018-09-29T08:33:04Z</time>
      </trkpt>
      <trkpt lat="48.06396" lon="3.31107">
        <ele>161.1</ele>
        <time>2018-09-29T08:33:10Z</time>
      </trkpt>
      <trkpt lat="48.06388" lon="3.31109">
        <ele>161</ele>
        <time>2018-09-29T08:33:17Z</time>
      </trkpt>
      <trkpt lat="48.06381" lon="3.31111">
        <ele>160.2</ele>
        <time>2018-09-29T08:33:23Z</time>
      </trkpt>
      <trkpt lat="48.06373" lon="3.31112">
        <ele>161.5</ele>
        <time>2018-09-29T08:33:30Z</time>
      </trkpt>
      <trkpt lat="48.06365" lon="3.31115">
        <ele>160.9</ele>
        <time>2018-09-29T08:33:37Z</time>
      </trkpt>
      <trkpt lat="48.06357" lon="3.31117">
        <ele>160.5</ele>
        <time>2018-09-29T08:33:44Z</time>
      </trkpt>
      <trkpt lat="48.0635" lon="3.3112">
        <ele>159.5</ele>
        <time>2018-09-29T08:33:50Z</time>
      </trkpt>
      <trkpt lat="48.06342" lon="3.31124">
        <ele>158.8</ele>
        <time>2018-09-29T08:33:56Z</time>
      </trkpt>
      <trkpt lat="48.06335" lon="3.31127">
        <ele>160.1</ele>
        <time>2018-09-29T08:34:02Z</time>
      </trkpt>
      <trkpt lat="48.06328" lon="3.31132">
        <ele>158.1</ele>
        <time>2018-09-29T08:34:08Z</time>
      </trkpt>
      <trkpt lat="48.06321" lon="3.31138">
        <ele>160.3</ele>
        <time>2018-09-29T08:34:15Z</time>
      </trkpt>
      <trkpt lat="48.06315" lon="3.31143">
        <ele>161.5</ele>
        <time>2018-09-29T08:34:22Z</time>
      </trkpt>
      <trkpt lat="48.06311" lon="3.31146">
        <ele>162.1</ele>
        <time>2018-09-29T08:34:29Z</time>
      </trkpt>
      <trkpt lat="48.06304" lon="3.31148">
        <ele>160.6</ele>
        <time>2018-09-29T08:34:36Z</time>
      </trkpt>
      <trkpt lat="48.06298" lon="3.31153">
        <ele>160.7</ele>
        <time>2018-09-29T08:34:43Z</time>
      </trkpt>
      <trkpt lat="48.0629" lon="3.31157">
        <ele>160.3</ele>
        <time>2018-09-29T08:34:50Z</time>
      </trkpt>
      <trkpt lat="48.06283" lon="3.31161">
        <ele>160.1</ele>
        <time>2018-09-29T08:34:56Z</time>
      </trkpt>
      <trkpt lat="48.06276" lon="3.31166">
        <ele>159</ele>
        <time>2018-09-29T08:35:03Z</time>
      </trkpt>
      <trkpt lat="48.06268" lon="3.31171">
        <ele>157.6</ele>
        <time>2018-09-29T08:35:09Z</time>
      </trkpt>
      <trkpt lat="48.06261" lon="3.31175">
        <ele>158.9</ele>
        <time>2018-09-29T08:35:15Z</time>
      </trkpt>
      <trkpt lat="48.06255" lon="3.31182">
        <ele>157.3</ele>
        <time>2018-09-29T08:35:21Z</time>
      </trkpt>
      <trkpt lat="48.06248" lon="3.31186">
        <ele>156.8</ele>
        <time>2018-09-29T08:35:27Z</time>
      </trkpt>
      <trkpt lat="48.0624" lon="3.31192">
        <ele>158.6</ele>
        <time>2018-09-29T08:35:34Z</time>
      </trkpt>
      <trkpt lat="48.06234" lon="3.312">
        <ele>157.2</ele>
        <time>2018-09-29T08:35:40Z</time>
      </trkpt>
      <trkpt lat="48.06226" lon="3.31204">
        <ele>159.4</ele>
        <time>2018-09-29T08:35:47Z</time>
      </trkpt>
      <trkpt lat="48.06219" lon="3.3121">
        <ele>158</ele>
        <time>2018-09-29T08:35:54Z</time>
      </trkpt>
      <trkpt lat="48.06212" lon="3.31217">
        <ele>157.9</ele>
        <time>2018-09-29T08:36:00Z</time>
      </trkpt>
      <trkpt lat="48.06206" lon="3.31222">
        <ele>158.4</ele>
        <time>2018-09-29T08:36:06Z</time>
      </trkpt>
      <trkpt lat="48.06199" lon="3.31227">
        <ele>158.5</ele>
        <time>2018-09-29T08:36:12Z</time>
      </trkpt>
      <trkpt lat="48.06192" lon="3.31233">
        <ele>156.1</ele>
        <time>2018-09-29T08:36:18Z</time>
      </trkpt>
      <trkpt lat="48.06185" lon="3.31237">
        <ele>155.8</ele>
        <time>2018-09-29T08:36:25Z</time>
      </trkpt>
      <trkpt lat="48.06178" lon="3.31242">
        <ele>156.3</ele>
        <time>2018-09-29T08:36:32Z</time>
      </trkpt>
      <trkpt lat="48.06171" lon="3.31247">
        <ele>155.3</ele>
        <time>2018-09-29T08:36:38Z</time>
      </trkpt>
      <trkpt lat="48.06164" lon="3.31249">
        <ele>155.4</ele>
        <time>2018-09-29T08:36:44Z</time>
      </trkpt>
      <trkpt lat="48.06156" lon="3.31251">
        <ele>156.6</ele>
        <time>2018-09-29T08:36:50Z</time>
      </trkpt>
      <trkpt lat="48.06148" lon="3.31251">
        <ele>158.3</ele>
        <time>2018-09-29T08:36:56Z</time>
      </trkpt>
      <trkpt lat="48.0614" lon="3.31251">
        <ele>159.7</ele>
        <time>2018-09-29T08:37:02Z</time>
      </trkpt>
      <trkpt lat="48.06133" lon="3.3125">
        <ele>160.8</ele>
        <time>2018-09-29T08:37:08Z</time>
      </trkpt>
      <trkpt lat="48.06125" lon="3.31248">
        <ele>161</ele>
        <time>2018-09-29T08:37:15Z</time>
      </trkpt>
      <trkpt lat="48.06118" lon="3.31247">
        <ele>159.9</ele>
        <time>2018-09-29T08:37:21Z</time>
      </trkpt>
      <trkpt lat="48.06109" lon="3.31247">
        <ele>160.5</ele>
        <time>2018-09-29T08:37:28Z</time>
      </trkpt>
      <trkpt lat="48.06102" lon="3.31249">
        <ele>160</ele>
        <time>2018-09-29T08:37:35Z</time>
      </trkpt>
      <trkpt lat="48.06094" lon="3.31253">
        <ele>158.3</ele>
        <time>2018-09-29T08:37:41Z</time>
      </trkpt>
      <trkpt lat="48.06087" lon="3.31259">
        <ele>159</ele>
        <time>2018-09-29T08:37:48Z</time>
      </trkpt>
      <trkpt lat="48.0608" lon="3.31263">
        <ele>159.2</ele>
        <time>2018-09-29T08:37:55Z</time>
      </trkpt>
      <trkpt lat="48.06073" lon="3.31267">
        <ele>160.7</ele>
        <time>2018-09-29T08:38:02Z</time>
      </trkpt>
      <trkpt lat="48.06065" lon="3.31273">
        <ele>161.6</ele>
        <time>2018-09-29T08:38:09Z</time>
      </trkpt>
      <trkpt lat="48.06058" lon="3.31279">
        <ele>161.7</ele>
        <time>2018-09-29T08:38:16Z</time>
      </trkpt>
      <trkpt lat="48.06051" lon="3.31284">
        <ele>162.3</ele>
        <time>2018-09-29T08:38:23Z</time>
      </trkpt>
      <trkpt lat="48.06045" lon="3.31291">
        <ele>162.7</ele>
        <time>2018-09-29T08:38:30Z</time>
      </trkpt>
      <trkpt lat="48.06039" lon="3.31299">
        <ele>162.8</ele>
        <time>2018-09-29T08:38:37Z</time>
      </trkpt>
      <trkpt lat="48.06034" lon="3.31308">
        <ele>163.6</ele>
        <time>2018-09-29T08:38:44Z</time>
      </trkpt>
      <trkpt lat="48.06029" lon="3.31315">
        <ele>164.1</ele>
        <time>2018-09-29T08:38:51Z</time>
      </trkpt>
      <trkpt lat="48.06023" lon="3.31324">
        <ele>165</ele>
        <time>2018-09-29T08:38:58Z</time>
      </trkpt>
      <trkpt lat="48.06018" lon="3.31333">
        <ele>166.2</ele>
        <time>2018-09-29T08:39:05Z</time>
      </trkpt>
      <trkpt lat="48.06012" lon="3.3134">
        <ele>166.2</ele>
        <time>2018-09-29T08:39:11Z</time>
      </trkpt>
      <trkpt lat="48.06006" lon="3.31348">
        <ele>167.2</ele>
        <time>2018-09-29T08:39:18Z</time>
      </trkpt>
      <trkpt lat="48.05999" lon="3.31356">
        <ele>167.4</ele>
        <time>2018-09-29T08:39:25Z</time>
      </trkpt>
      <trkpt lat="48.05994" lon="3.31363">
        <ele>165.4</ele>
        <time>2018-09-29T08:39:31Z</time>
      </trkpt>
      <trkpt lat="48.05987" lon="3.3137">
        <ele>164</ele>
        <time>2018-09-29T08:39:38Z</time>
      </trkpt>
      <trkpt lat="48.0598" lon="3.31375">
        <ele>164.7</ele>
        <time>2018-09-29T08:39:45Z</time>
      </trkpt>
      <trkpt lat="48.05973" lon="3.31381">
        <ele>164.5</ele>
        <time>2018-09-29T08:39:52Z</time>
      </trkpt>
      <trkpt lat="48.05967" lon="3.31387">
        <ele>164.4</ele>
        <time>2018-09-29T08:39:58Z</time>
      </trkpt>
      <trkpt lat="48.0596" lon="3.31394">
        <ele>164.2</ele>
        <time>2018-09-29T08:40:05Z</time>
      </trkpt>
      <trkpt lat="48.05953" lon="3.31401">
        <ele>165.4</ele>
        <time>2018-09-29T08:40:12Z</time>
      </trkpt>
      <trkpt lat="48.05946" lon="3.31405">
        <ele>165.8</ele>
        <time>2018-09-29T08:40:19Z</time>
      </trkpt>
      <trkpt lat="48.05939" lon="3.31411">
        <ele>166.3</ele>
        <time>2018-09-29T08:40:26Z</time>
      </trkpt>
      <trkpt lat="48.05933" lon="3.31417">
        <ele>165.4</ele>
        <time>2018-09-29T08:40:32Z</time>
      </trkpt>
      <trkpt lat="48.05926" lon="3.31423">
        <ele>164.5</ele>
        <time>2018-09-29T08:40:38Z</time>
      </trkpt>
      <trkpt lat="48.0592" lon="3.31428">
        <ele>164.5</ele>
        <time>2018-09-29T08:40:44Z</time>
      </trkpt>
      <trkpt lat="48.05913" lon="3.31433">
        <ele>164.6</ele>
        <time>2018-09-29T08:40:50Z</time>
      </trkpt>
      <trkpt lat="48.05906" lon="3.31438">
        <ele>164.6</ele>
        <time>2018-09-29T08:40:56Z</time>
      </trkpt>
      <trkpt lat="48.05899" lon="3.31444">
        <ele>165.4</ele>
        <time>2018-09-29T08:41:02Z</time>
      </trkpt>
      <trkpt lat="48.05892" lon="3.31448">
        <ele>165.3</ele>
        <time>2018-09-29T08:41:09Z</time>
      </trkpt>
      <trkpt lat="48.05885" lon="3.31453">
        <ele>165.8</ele>
        <time>2018-09-29T08:41:16Z</time>
      </trkpt>
      <trkpt lat="48.05877" lon="3.31458">
        <ele>166.8</ele>
        <time>2018-09-29T08:41:23Z</time>
      </trkpt>
      <trkpt lat="48.0587" lon="3.31463">
        <ele>167.1</ele>
        <time>2018-09-29T08:41:30Z</time>
      </trkpt>
      <trkpt lat="48.05863" lon="3.3147">
        <ele>167.7</ele>
        <time>2018-09-29T08:41:37Z</time>
      </trkpt>
      <trkpt lat="48.05856" lon="3.31476">
        <ele>168.2</ele>
        <time>2018-09-29T08:41:44Z</time>
      </trkpt>
      <trkpt lat="48.05849" lon="3.31484">
        <ele>168.6</ele>
        <time>2018-09-29T08:41:51Z</time>
      </trkpt>
      <trkpt lat="48.05843" lon="3.3149">
        <ele>168.2</ele>
        <time>2018-09-29T08:41:57Z</time>
      </trkpt>
      <trkpt lat="48.05837" lon="3.31497">
        <ele>168.1</ele>
        <time>2018-09-29T08:42:03Z</time>
      </trkpt>
      <trkpt lat="48.05831" lon="3.31503">
        <ele>167.2</ele>
        <time>2018-09-29T08:42:09Z</time>
      </trkpt>
      <trkpt lat="48.05824" lon="3.31506">
        <ele>167.7</ele>
        <time>2018-09-29T08:42:15Z</time>
      </trkpt>
      <trkpt lat="48.05816" lon="3.31511">
        <ele>166.9</ele>
        <time>2018-09-29T08:42:22Z</time>
      </trkpt>
      <trkpt lat="48.05809" lon="3.31515">
        <ele>167.4</ele>
        <time>2018-09-29T08:42:29Z</time>
      </trkpt>
      <trkpt lat="48.05801" lon="3.3152">
        <ele>166.7</ele>
        <time>2018-09-29T08:42:36Z</time>
      </trkpt>
      <trkpt lat="48.05794" lon="3.31523">
        <ele>164.8</ele>
        <time>2018-09-29T08:42:43Z</time>
      </trkpt>
      <trkpt lat="48.05786" lon="3.31527">
        <ele>163.2</ele>
        <time>2018-09-29T08:42:50Z</time>
      </trkpt>
      <trkpt lat="48.0578" lon="3.31533">
        <ele>161</ele>
        <time>2018-09-29T08:42:56Z</time>
      </trkpt>
      <trkpt lat="48.05773" lon="3.31537">
        <ele>161.9</ele>
        <time>2018-09-29T08:43:02Z</time>
      </trkpt>
      <trkpt lat="48.05766" lon="3.31542">
        <ele>162.4</ele>
        <time>2018-09-29T08:43:09Z</time>
      </trkpt>
      <trkpt lat="48.05758" lon="3.31547">
        <ele>163.4</ele>
        <time>2018-09-29T08:43:16Z</time>
      </trkpt>
      <trkpt lat="48.05751" lon="3.31553">
        <ele>162.8</ele>
        <time>2018-09-29T08:43:23Z</time>
      </trkpt>
      <trkpt lat="48.05744" lon="3.3156">
        <ele>163.9</ele>
        <time>2018-09-29T08:43:30Z</time>
      </trkpt>
      <trkpt lat="48.05738" lon="3.31567">
        <ele>161.3</ele>
        <time>2018-09-29T08:43:36Z</time>
      </trkpt>
      <trkpt lat="48.05732" lon="3.31575">
        <ele>160.9</ele>
        <time>2018-09-29T08:43:43Z</time>
      </trkpt>
      <trkpt lat="48.05727" lon="3.31583">
        <ele>161</ele>
        <time>2018-09-29T08:43:49Z</time>
      </trkpt>
      <trkpt lat="48.05723" lon="3.31592">
        <ele>160.8</ele>
        <time>2018-09-29T08:43:55Z</time>
      </trkpt>
      <trkpt lat="48.05718" lon="3.31603">
        <ele>161.1</ele>
        <time>2018-09-29T08:44:01Z</time>
      </trkpt>
      <trkpt lat="48.05714" lon="3.31613">
        <ele>162</ele>
        <time>2018-09-29T08:44:08Z</time>
      </trkpt>
      <trkpt lat="48.0571" lon="3.31622">
        <ele>161.5</ele>
        <time>2018-09-29T08:44:15Z</time>
      </trkpt>
      <trkpt lat="48.05706" lon="3.31633">
        <ele>160</ele>
        <time>2018-09-29T08:44:21Z</time>
      </trkpt>
      <trkpt lat="48.057" lon="3.31642">
        <ele>161.3</ele>
        <time>2018-09-29T08:44:28Z</time>
      </trkpt>
      <trkpt lat="48.05695" lon="3.3165">
        <ele>161.3</ele>
        <time>2018-09-29T08:44:34Z</time>
      </trkpt>
      <trkpt lat="48.0569" lon="3.31658">
        <ele>160.4</ele>
        <time>2018-09-29T08:44:41Z</time>
      </trkpt>
      <trkpt lat="48.05685" lon="3.31667">
        <ele>159</ele>
        <time>2018-09-29T08:44:47Z</time>
      </trkpt>
      <trkpt lat="48.05679" lon="3.31675">
        <ele>158.8</ele>
        <time>2018-09-29T08:44:53Z</time>
      </trkpt>
      <trkpt lat="48.05673" lon="3.31681">
        <ele>159.3</ele>
        <time>2018-09-29T08:44:59Z</time>
      </trkpt>
      <trkpt lat="48.05666" lon="3.31687">
        <ele>159.3</ele>
        <time>2018-09-29T08:45:05Z</time>
      </trkpt>
      <trkpt lat="48.05659" lon="3.31694">
        <ele>159.1</ele>
        <time>2018-09-29T08:45:12Z</time>
      </trkpt>
      <trkpt lat="48.05651" lon="3.31696">
        <ele>159.6</ele>
        <time>2018-09-29T08:45:19Z</time>
      </trkpt>
      <trkpt lat="48.05644" lon="3.317">
        <ele>158.4</ele>
        <time>2018-09-29T08:45:26Z</time>
      </trkpt>
      <trkpt lat="48.05636" lon="3.31703">
        <ele>157.2</ele>
        <time>2018-09-29T08:45:33Z</time>
      </trkpt>
      <trkpt lat="48.05628" lon="3.31704">
        <ele>155.6</ele>
        <time>2018-09-29T08:45:40Z</time>
      </trkpt>
      <trkpt lat="48.05621" lon="3.31704">
        <ele>156.4</ele>
        <time>2018-09-29T08:45:46Z</time>
      </trkpt>
      <trkpt lat="48.05614" lon="3.31706">
        <ele>156.6</ele>
        <time>2018-09-29T08:45:52Z</time>
      </trkpt>
      <trkpt lat="48.05605" lon="3.31707">
        <ele>157.3</ele>
        <time>2018-09-29T08:45:59Z</time>
      </trkpt>
      <trkpt lat="48.05597" lon="3.31709">
        <ele>157.4</ele>
        <time>2018-09-29T08:46:05Z</time>
      </trkpt>
      <trkpt lat="48.0559" lon="3.31712">
        <ele>155.7</ele>
        <time>2018-09-29T08:46:12Z</time>
      </trkpt>
      <trkpt lat="48.05583" lon="3.31714">
        <ele>154.9</ele>
        <time>2018-09-29T08:46:18Z</time>
      </trkpt>
      <trkpt lat="48.05574" lon="3.31715">
        <ele>154.3</ele>
        <time>2018-09-29T08:46:25Z</time>
      </trkpt>
      <trkpt lat="48.05567" lon="3.31715">
        <ele>155.6</ele>
        <time>2018-09-29T08:46:31Z</time>
      </trkpt>
      <trkpt lat="48.05559" lon="3.31715">
        <ele>156</ele>
        <time>2018-09-29T08:46:37Z</time>
      </trkpt>
      <trkpt lat="48.05552" lon="3.31715">
        <ele>156.4</ele>
        <time>2018-09-29T08:46:44Z</time>
      </trkpt>
      <trkpt lat="48.05544" lon="3.31715">
        <ele>155.9</ele>
        <time>2018-09-29T08:46:51Z</time>
      </trkpt>
      <trkpt lat="48.05537" lon="3.31713">
        <ele>156</ele>
        <time>2018-09-29T08:46:57Z</time>
      </trkpt>
      <trkpt lat="48.05529" lon="3.3171">
        <ele>156.3</ele>
        <time>2018-09-29T08:47:04Z</time>
      </trkpt>
      <trkpt lat="48.05522" lon="3.31707">
        <ele>154.5</ele>
        <time>2018-09-29T08:47:11Z</time>
      </trkpt>
      <trkpt lat="48.05515" lon="3.31706">
        <ele>153.9</ele>
        <time>2018-09-29T08:47:18Z</time>
      </trkpt>
      <trkpt lat="48.05508" lon="3.31703">
        <ele>154.7</ele>
        <time>2018-09-29T08:47:25Z</time>
      </trkpt>
      <trkpt lat="48.05501" lon="3.31701">
        <ele>154.1</ele>
        <time>2018-09-29T08:47:32Z</time>
      </trkpt>
      <trkpt lat="48.05493" lon="3.317">
        <ele>153.1</ele>
        <time>2018-09-29T08:47:39Z</time>
      </trkpt>
      <trkpt lat="48.05486" lon="3.317">
        <ele>152.5</ele>
        <time>2018-09-29T08:47:46Z</time>
      </trkpt>
      <trkpt lat="48.0548" lon="3.31699">
        <ele>151.5</ele>
        <time>2018-09-29T08:47:53Z</time>
      </trkpt>
      <trkpt lat="48.05472" lon="3.31698">
        <ele>150.9</ele>
        <time>2018-09-29T08:48:00Z</time>
      </trkpt>
      <trkpt lat="48.05465" lon="3.31696">
        <ele>150.4</ele>
        <time>2018-09-29T08:48:07Z</time>
      </trkpt>
      <trkpt lat="48.05458" lon="3.31695">
        <ele>149</ele>
        <time>2018-09-29T08:48:14Z</time>
      </trkpt>
      <trkpt lat="48.05452" lon="3.31695">
        <ele>146.6</ele>
        <time>2018-09-29T08:48:21Z</time>
      </trkpt>
      <trkpt lat="48.05449" lon="3.31694">
        <ele>145.5</ele>
        <time>2018-09-29T08:48:28Z</time>
      </trkpt>
      <trkpt lat="48.05449" lon="3.31694">
        <ele>145</ele>
        <time>2018-09-29T08:48:35Z</time>
      </trkpt>
      <trkpt lat="48.05445" lon="3.31698">
        <ele>146.8</ele>
        <time>2018-09-29T08:48:59Z</time>
      </trkpt>
      <trkpt lat="48.05445" lon="3.31698">
        <ele>146.8</ele>
        <time>2018-09-29T08:49:00Z</time>
      </trkpt>
      <trkpt lat="48.05445" lon="3.31695">
        <ele>146.6</ele>
        <time>2018-09-29T08:49:13Z</time>
      </trkpt>
      <trkpt lat="48.05444" lon="3.31694">
        <ele>145.2</ele>
        <time>2018-09-29T08:49:20Z</time>
      </trkpt>
      <trkpt lat="48.05444" lon="3.31694">
        <ele>145.2</ele>
        <time>2018-09-29T08:49:22Z</time>
      </trkpt>
      <trkpt lat="48.0544" lon="3.31693">
        <ele>142.4</ele>
        <time>2018-09-29T08:49:33Z</time>
      </trkpt>
      <trkpt lat="48.05437" lon="3.31692">
        <ele>141.2</ele>
        <time>2018-09-29T08:49:40Z</time>
      </trkpt>
      <trkpt lat="48.05436" lon="3.31692">
        <ele>141</ele>
        <time>2018-09-29T08:49:47Z</time>
      </trkpt>
      <trkpt lat="48.05436" lon="3.31692">
        <ele>141</ele>
        <time>2018-09-29T08:49:48Z</time>
      </trkpt>
      <trkpt lat="48.05431" lon="3.31691">
        <ele>140.3</ele>
        <time>2018-09-29T08:50:04Z</time>
      </trkpt>
      <trkpt lat="48.05427" lon="3.3169">
        <ele>138.3</ele>
        <time>2018-09-29T08:50:11Z</time>
      </trkpt>
      <trkpt lat="48.05422" lon="3.31688">
        <ele>137</ele>
        <time>2018-09-29T08:50:18Z</time>
      </trkpt>
      <trkpt lat="48.05417" lon="3.31684">
        <ele>136.9</ele>
        <time>2018-09-29T08:50:25Z</time>
      </trkpt>
      <trkpt lat="48.05412" lon="3.31679">
        <ele>136.3</ele>
        <time>2018-09-29T08:50:32Z</time>
      </trkpt>
      <trkpt lat="48.05406" lon="3.31675">
        <ele>134.6</ele>
        <time>2018-09-29T08:50:39Z</time>
      </trkpt>
      <trkpt lat="48.05401" lon="3.31669">
        <ele>133.2</ele>
        <time>2018-09-29T08:50:46Z</time>
      </trkpt>
      <trkpt lat="48.05396" lon="3.31664">
        <ele>129.6</ele>
        <time>2018-09-29T08:50:53Z</time>
      </trkpt>
      <trkpt lat="48.0539" lon="3.31659">
        <ele>129.5</ele>
        <time>2018-09-29T08:51:00Z</time>
      </trkpt>
      <trkpt lat="48.05384" lon="3.31656">
        <ele>128.7</ele>
        <time>2018-09-29T08:51:07Z</time>
      </trkpt>
      <trkpt lat="48.05378" lon="3.31654">
        <ele>127.6</ele>
        <time>2018-09-29T08:51:14Z</time>
      </trkpt>
      <trkpt lat="48.05371" lon="3.31653">
        <ele>127.3</ele>
        <time>2018-09-29T08:51:21Z</time>
      </trkpt>
      <trkpt lat="48.05364" lon="3.31654">
        <ele>126.2</ele>
        <time>2018-09-29T08:51:28Z</time>
      </trkpt>
      <trkpt lat="48.05358" lon="3.31655">
        <ele>126.9</ele>
        <time>2018-09-29T08:51:35Z</time>
      </trkpt>
      <trkpt lat="48.05351" lon="3.31658">
        <ele>126.5</ele>
        <time>2018-09-29T08:51:42Z</time>
      </trkpt>
      <trkpt lat="48.05344" lon="3.31661">
        <ele>126.1</ele>
        <time>2018-09-29T08:51:49Z</time>
      </trkpt>
      <trkpt lat="48.05336" lon="3.31665">
        <ele>126.4</ele>
        <time>2018-09-29T08:51:56Z</time>
      </trkpt>
      <trkpt lat="48.05329" lon="3.31668">
        <ele>125.7</ele>
        <time>2018-09-29T08:52:03Z</time>
      </trkpt>
      <trkpt lat="48.05322" lon="3.3167">
        <ele>124.8</ele>
        <time>2018-09-29T08:52:10Z</time>
      </trkpt>
      <trkpt lat="48.05316" lon="3.31672">
        <ele>124</ele>
        <time>2018-09-29T08:52:17Z</time>
      </trkpt>
      <trkpt lat="48.05308" lon="3.31676">
        <ele>123.4</ele>
        <time>2018-09-29T08:52:24Z</time>
      </trkpt>
      <trkpt lat="48.05301" lon="3.31677">
        <ele>122.8</ele>
        <time>2018-09-29T08:52:31Z</time>
      </trkpt>
      <trkpt lat="48.05294" lon="3.31679">
        <ele>122.4</ele>
        <time>2018-09-29T08:52:38Z</time>
      </trkpt>
      <trkpt lat="48.05288" lon="3.31679">
        <ele>121.7</ele>
        <time>2018-09-29T08:52:45Z</time>
      </trkpt>
      <trkpt lat="48.05281" lon="3.3168">
        <ele>120.8</ele>
        <time>2018-09-29T08:52:52Z</time>
      </trkpt>
      <trkpt lat="48.05274" lon="3.3168">
        <ele>119.3</ele>
        <time>2018-09-29T08:52:59Z</time>
      </trkpt>
      <trkpt lat="48.05268" lon="3.31678">
        <ele>116.6</ele>
        <time>2018-09-29T08:53:06Z</time>
      </trkpt>
      <trkpt lat="48.05261" lon="3.31677">
        <ele>114.8</ele>
        <time>2018-09-29T08:53:13Z</time>
      </trkpt>
      <trkpt lat="48.05254" lon="3.31677">
        <ele>113.5</ele>
        <time>2018-09-29T08:53:20Z</time>
      </trkpt>
      <trkpt lat="48.05246" lon="3.31677">
        <ele>112.2</ele>
        <time>2018-09-29T08:53:27Z</time>
      </trkpt>
      <trkpt lat="48.05238" lon="3.31677">
        <ele>111.1</ele>
        <time>2018-09-29T08:53:34Z</time>
      </trkpt>
      <trkpt lat="48.05231" lon="3.31678">
        <ele>109.5</ele>
        <time>2018-09-29T08:53:41Z</time>
      </trkpt>
      <trkpt lat="48.05224" lon="3.31679">
        <ele>107.8</ele>
        <time>2018-09-29T08:53:48Z</time>
      </trkpt>
      <trkpt lat="48.05216" lon="3.31679">
        <ele>107.1</ele>
        <time>2018-09-29T08:53:55Z</time>
      </trkpt>
      <trkpt lat="48.05208" lon="3.31678">
        <ele>106.2</ele>
        <time>2018-09-29T08:54:02Z</time>
      </trkpt>
      <trkpt lat="48.052" lon="3.31678">
        <ele>104.9</ele>
        <time>2018-09-29T08:54:09Z</time>
      </trkpt>
      <trkpt lat="48.05193" lon="3.31678">
        <ele>103.6</ele>
        <time>2018-09-29T08:54:16Z</time>
      </trkpt>
      <trkpt lat="48.05186" lon="3.31678">
        <ele>102.8</ele>
        <time>2018-09-29T08:54:23Z</time>
      </trkpt>
      <trkpt lat="48.05178" lon="3.31676">
        <ele>102.1</ele>
        <time>2018-09-29T08:54:30Z</time>
      </trkpt>
      <trkpt lat="48.0517" lon="3.31673">
        <ele>102.3</ele>
        <time>2018-09-29T08:54:37Z</time>
      </trkpt>
      <trkpt lat="48.05163" lon="3.31669">
        <ele>101.9</ele>
        <time>2018-09-29T08:54:44Z</time>
      </trkpt>
      <trkpt lat="48.05156" lon="3.31666">
        <ele>101.9</ele>
        <time>2018-09-29T08:54:51Z</time>
      </trkpt>
      <trkpt lat="48.05149" lon="3.31661">
        <ele>100.7</ele>
        <time>2018-09-29T08:54:58Z</time>
      </trkpt>
      <trkpt lat="48.05142" lon="3.31656">
        <ele>100.1</ele>
        <time>2018-09-29T08:55:05Z</time>
      </trkpt>
      <trkpt lat="48.05135" lon="3.31652">
        <ele>99.2</ele>
        <time>2018-09-29T08:55:12Z</time>
      </trkpt>
      <trkpt lat="48.05127" lon="3.31648">
        <ele>98.4</ele>
        <time>2018-09-29T08:55:20Z</time>
      </trkpt>
      <trkpt lat="48.05121" lon="3.31644">
        <ele>97.7</ele>
        <time>2018-09-29T08:55:26Z</time>
      </trkpt>
      <trkpt lat="48.05114" lon="3.31639">
        <ele>97.2</ele>
        <time>2018-09-29T08:55:33Z</time>
      </trkpt>
      <trkpt lat="48.05108" lon="3.31634">
        <ele>96.5</ele>
        <time>2018-09-29T08:55:40Z</time>
      </trkpt>
      <trkpt lat="48.05101" lon="3.31629">
        <ele>95</ele>
        <time>2018-09-29T08:55:47Z</time>
      </trkpt>
      <trkpt lat="48.05095" lon="3.31623">
        <ele>94.3</ele>
        <time>2018-09-29T08:55:54Z</time>
      </trkpt>
      <trkpt lat="48.05089" lon="3.31618">
        <ele>93.4</ele>
        <time>2018-09-29T08:56:01Z</time>
      </trkpt>
      <trkpt lat="48.05082" lon="3.31617">
        <ele>93</ele>
        <time>2018-09-29T08:56:08Z</time>
      </trkpt>
      <trkpt lat="48.05079" lon="3.31626">
        <ele>92.2</ele>
        <time>2018-09-29T08:56:15Z</time>
      </trkpt>
      <trkpt lat="48.05078" lon="3.31637">
        <ele>91.1</ele>
        <time>2018-09-29T08:56:22Z</time>
      </trkpt>
      <trkpt lat="48.05076" lon="3.31647">
        <ele>91.4</ele>
        <time>2018-09-29T08:56:29Z</time>
      </trkpt>
      <trkpt lat="48.05074" lon="3.31658">
        <ele>90.2</ele>
        <time>2018-09-29T08:56:36Z</time>
      </trkpt>
      <trkpt lat="48.05072" lon="3.31668">
        <ele>89</ele>
        <time>2018-09-29T08:56:43Z</time>
      </trkpt>
      <trkpt lat="48.05068" lon="3.31679">
        <ele>88.9</ele>
        <time>2018-09-29T08:56:50Z</time>
      </trkpt>
      <trkpt lat="48.05065" lon="3.3169">
        <ele>88.5</ele>
        <time>2018-09-29T08:56:57Z</time>
      </trkpt>
      <trkpt lat="48.05061" lon="3.31699">
        <ele>87.8</ele>
        <time>2018-09-29T08:57:03Z</time>
      </trkpt>
      <trkpt lat="48.05057" lon="3.31709">
        <ele>87.6</ele>
        <time>2018-09-29T08:57:10Z</time>
      </trkpt>
      <trkpt lat="48.05053" lon="3.31717">
        <ele>86.9</ele>
        <time>2018-09-29T08:57:17Z</time>
      </trkpt>
      <trkpt lat="48.0505" lon="3.31726">
        <ele>86.3</ele>
        <time>2018-09-29T08:57:24Z</time>
      </trkpt>
      <trkpt lat="48.05044" lon="3.31735">
        <ele>86.8</ele>
        <time>2018-09-29T08:57:31Z</time>
      </trkpt>
      <trkpt lat="48.0504" lon="3.31746">
        <ele>87.4</ele>
        <time>2018-09-29T08:57:38Z</time>
      </trkpt>
      <trkpt lat="48.05035" lon="3.31754">
        <ele>88.3</ele>
        <time>2018-09-29T08:57:44Z</time>
      </trkpt>
      <trkpt lat="48.05029" lon="3.31761">
        <ele>87.1</ele>
        <time>2018-09-29T08:57:50Z</time>
      </trkpt>
      <trkpt lat="48.05023" lon="3.31768">
        <ele>87.1</ele>
        <time>2018-09-29T08:57:56Z</time>
      </trkpt>
      <trkpt lat="48.05016" lon="3.31775">
        <ele>87.3</ele>
        <time>2018-09-29T08:58:03Z</time>
      </trkpt>
      <trkpt lat="48.0501" lon="3.31781">
        <ele>87.8</ele>
        <time>2018-09-29T08:58:09Z</time>
      </trkpt>
      <trkpt lat="48.05003" lon="3.31787">
        <ele>87.9</ele>
        <time>2018-09-29T08:58:16Z</time>
      </trkpt>
      <trkpt lat="48.04997" lon="3.31794">
        <ele>88.2</ele>
        <time>2018-09-29T08:58:23Z</time>
      </trkpt>
      <trkpt lat="48.04992" lon="3.31804">
        <ele>86.8</ele>
        <time>2018-09-29T08:58:30Z</time>
      </trkpt>
      <trkpt lat="48.04987" lon="3.31813">
        <ele>87.4</ele>
        <time>2018-09-29T08:58:36Z</time>
      </trkpt>
      <trkpt lat="48.04982" lon="3.31822">
        <ele>87.7</ele>
        <time>2018-09-29T08:58:43Z</time>
      </trkpt>
      <trkpt lat="48.04978" lon="3.31832">
        <ele>88.4</ele>
        <time>2018-09-29T08:58:50Z</time>
      </trkpt>
      <trkpt lat="48.04975" lon="3.31843">
        <ele>88.2</ele>
        <time>2018-09-29T08:58:56Z</time>
      </trkpt>
      <trkpt lat="48.04972" lon="3.31853">
        <ele>89.8</ele>
        <time>2018-09-29T08:59:02Z</time>
      </trkpt>
      <trkpt lat="48.0497" lon="3.31865">
        <ele>89.7</ele>
        <time>2018-09-29T08:59:09Z</time>
      </trkpt>
      <trkpt lat="48.04966" lon="3.31875">
        <ele>89.6</ele>
        <time>2018-09-29T08:59:15Z</time>
      </trkpt>
      <trkpt lat="48.04964" lon="3.31887">
        <ele>90.9</ele>
        <time>2018-09-29T08:59:22Z</time>
      </trkpt>
      <trkpt lat="48.0496" lon="3.31898">
        <ele>91.4</ele>
        <time>2018-09-29T08:59:29Z</time>
      </trkpt>
      <trkpt lat="48.04958" lon="3.31909">
        <ele>91.5</ele>
        <time>2018-09-29T08:59:36Z</time>
      </trkpt>
      <trkpt lat="48.04955" lon="3.3192">
        <ele>89.3</ele>
        <time>2018-09-29T08:59:42Z</time>
      </trkpt>
      <trkpt lat="48.04953" lon="3.31932">
        <ele>89.5</ele>
        <time>2018-09-29T08:59:49Z</time>
      </trkpt>
      <trkpt lat="48.0495" lon="3.31942">
        <ele>89.4</ele>
        <time>2018-09-29T08:59:55Z</time>
      </trkpt>
      <trkpt lat="48.04948" lon="3.31954">
        <ele>88.5</ele>
        <time>2018-09-29T09:00:02Z</time>
      </trkpt>
      <trkpt lat="48.04946" lon="3.31965">
        <ele>88.5</ele>
        <time>2018-09-29T09:00:09Z</time>
      </trkpt>
      <trkpt lat="48.04943" lon="3.31976">
        <ele>88.8</ele>
        <time>2018-09-29T09:00:15Z</time>
      </trkpt>
      <trkpt lat="48.04941" lon="3.31987">
        <ele>89.3</ele>
        <time>2018-09-29T09:00:22Z</time>
      </trkpt>
      <trkpt lat="48.04937" lon="3.31998">
        <ele>90.1</ele>
        <time>2018-09-29T09:00:29Z</time>
      </trkpt>
      <trkpt lat="48.04935" lon="3.3201">
        <ele>90.4</ele>
        <time>2018-09-29T09:00:36Z</time>
      </trkpt>
      <trkpt lat="48.04933" lon="3.3202">
        <ele>88.5</ele>
        <time>2018-09-29T09:00:42Z</time>
      </trkpt>
      <trkpt lat="48.04931" lon="3.32031">
        <ele>89.7</ele>
        <time>2018-09-29T09:00:48Z</time>
      </trkpt>
      <trkpt lat="48.04931" lon="3.32042">
        <ele>89.9</ele>
        <time>2018-09-29T09:00:54Z</time>
      </trkpt>
      <trkpt lat="48.0493" lon="3.32054">
        <ele>88.9</ele>
        <time>2018-09-29T09:01:01Z</time>
      </trkpt>
      <trkpt lat="48.0493" lon="3.32066">
        <ele>88.5</ele>
        <time>2018-09-29T09:01:07Z</time>
      </trkpt>
      <trkpt lat="48.04928" lon="3.32076">
        <ele>88.9</ele>
        <time>2018-09-29T09:01:13Z</time>
      </trkpt>
      <trkpt lat="48.04928" lon="3.32088">
        <ele>89.2</ele>
        <time>2018-09-29T09:01:20Z</time>
      </trkpt>
      <trkpt lat="48.04928" lon="3.321">
        <ele>87.6</ele>
        <time>2018-09-29T09:01:27Z</time>
      </trkpt>
      <trkpt lat="48.04926" lon="3.32112">
        <ele>87.4</ele>
        <time>2018-09-29T09:01:34Z</time>
      </trkpt>
      <trkpt lat="48.04926" lon="3.32123">
        <ele>87.6</ele>
        <time>2018-09-29T09:01:40Z</time>
      </trkpt>
      <trkpt lat="48.04925" lon="3.32135">
        <ele>85.8</ele>
        <time>2018-09-29T09:01:47Z</time>
      </trkpt>
      <trkpt lat="48.04923" lon="3.32147">
        <ele>86.5</ele>
        <time>2018-09-29T09:01:54Z</time>
      </trkpt>
      <trkpt lat="48.04918" lon="3.32155">
        <ele>86.2</ele>
        <time>2018-09-29T09:02:00Z</time>
      </trkpt>
      <trkpt lat="48.04912" lon="3.32156">
        <ele>86.1</ele>
        <time>2018-09-29T09:02:07Z</time>
      </trkpt>
      <trkpt lat="48.04904" lon="3.32155">
        <ele>87</ele>
        <time>2018-09-29T09:02:14Z</time>
      </trkpt>
      <trkpt lat="48.04898" lon="3.32154">
        <ele>85.2</ele>
        <time>2018-09-29T09:02:21Z</time>
      </trkpt>
      <trkpt lat="48.0489" lon="3.32154">
        <ele>85.1</ele>
        <time>2018-09-29T09:02:28Z</time>
      </trkpt>
      <trkpt lat="48.04883" lon="3.32154">
        <ele>84.3</ele>
        <time>2018-09-29T09:02:35Z</time>
      </trkpt>
      <trkpt lat="48.04876" lon="3.32154">
        <ele>83.6</ele>
        <time>2018-09-29T09:02:41Z</time>
      </trkpt>
      <trkpt lat="48.04868" lon="3.3216">
        <ele>82.9</ele>
        <time>2018-09-29T09:02:48Z</time>
      </trkpt>
      <trkpt lat="48.04862" lon="3.32166">
        <ele>82.7</ele>
        <time>2018-09-29T09:02:54Z</time>
      </trkpt>
      <trkpt lat="48.04857" lon="3.32174">
        <ele>82.9</ele>
        <time>2018-09-29T09:03:01Z</time>
      </trkpt>
      <trkpt lat="48.04852" lon="3.32183">
        <ele>82.1</ele>
        <time>2018-09-29T09:03:08Z</time>
      </trkpt>
      <trkpt lat="48.04847" lon="3.32191">
        <ele>80.6</ele>
        <time>2018-09-29T09:03:15Z</time>
      </trkpt>
      <trkpt lat="48.0484" lon="3.32198">
        <ele>79.1</ele>
        <time>2018-09-29T09:03:22Z</time>
      </trkpt>
      <trkpt lat="48.04833" lon="3.32203">
        <ele>77.8</ele>
        <time>2018-09-29T09:03:29Z</time>
      </trkpt>
      <trkpt lat="48.04826" lon="3.32204">
        <ele>77.4</ele>
        <time>2018-09-29T09:03:36Z</time>
      </trkpt>
      <trkpt lat="48.04818" lon="3.32203">
        <ele>77.1</ele>
        <time>2018-09-29T09:03:43Z</time>
      </trkpt>
      <trkpt lat="48.04812" lon="3.322">
        <ele>77</ele>
        <time>2018-09-29T09:03:50Z</time>
      </trkpt>
      <trkpt lat="48.04806" lon="3.32199">
        <ele>76</ele>
        <time>2018-09-29T09:03:57Z</time>
      </trkpt>
      <trkpt lat="48.048" lon="3.32198">
        <ele>73</ele>
        <time>2018-09-29T09:04:04Z</time>
      </trkpt>
      <trkpt lat="48.04793" lon="3.32196">
        <ele>71.3</ele>
        <time>2018-09-29T09:04:11Z</time>
      </trkpt>
      <trkpt lat="48.04786" lon="3.32193">
        <ele>72.4</ele>
        <time>2018-09-29T09:04:18Z</time>
      </trkpt>
      <trkpt lat="48.04779" lon="3.3219">
        <ele>74.5</ele>
        <time>2018-09-29T09:04:25Z</time>
      </trkpt>
      <trkpt lat="48.04771" lon="3.32188">
        <ele>73.2</ele>
        <time>2018-09-29T09:04:32Z</time>
      </trkpt>
      <trkpt lat="48.04768" lon="3.32189">
        <ele>73.6</ele>
        <time>2018-09-29T09:04:39Z</time>
      </trkpt>
      <trkpt lat="48.04768" lon="3.32189">
        <ele>73.6</ele>
        <time>2018-09-29T09:04:42Z</time>
      </trkpt>
      <trkpt lat="48.04765" lon="3.3219">
        <ele>73.5</ele>
        <time>2018-09-29T09:05:18Z</time>
      </trkpt>
      <trkpt lat="48.04765" lon="3.3219">
        <ele>73.5</ele>
        <time>2018-09-29T09:05:19Z</time>
      </trkpt>
      <trkpt lat="48.04759" lon="3.32192">
        <ele>73.8</ele>
        <time>2018-09-29T09:05:54Z</time>
      </trkpt>
      <trkpt lat="48.04752" lon="3.32194">
        <ele>72.6</ele>
        <time>2018-09-29T09:06:01Z</time>
      </trkpt>
      <trkpt lat="48.04749" lon="3.322">
        <ele>71.9</ele>
        <time>2018-09-29T09:06:08Z</time>
      </trkpt>
      <trkpt lat="48.04746" lon="3.32208">
        <ele>72.5</ele>
        <time>2018-09-29T09:06:15Z</time>
      </trkpt>
      <trkpt lat="48.04743" lon="3.32218">
        <ele>72.3</ele>
        <time>2018-09-29T09:06:22Z</time>
      </trkpt>
      <trkpt lat="48.0474" lon="3.32227">
        <ele>73.4</ele>
        <time>2018-09-29T09:06:29Z</time>
      </trkpt>
      <trkpt lat="48.04736" lon="3.32236">
        <ele>73.8</ele>
        <time>2018-09-29T09:06:36Z</time>
      </trkpt>
      <trkpt lat="48.04732" lon="3.32246">
        <ele>72.6</ele>
        <time>2018-09-29T09:06:43Z</time>
      </trkpt>
      <trkpt lat="48.04726" lon="3.32255">
        <ele>71.9</ele>
        <time>2018-09-29T09:06:50Z</time>
      </trkpt>
      <trkpt lat="48.04721" lon="3.32263">
        <ele>71.7</ele>
        <time>2018-09-29T09:06:56Z</time>
      </trkpt>
      <trkpt lat="48.04716" lon="3.32271">
        <ele>70.2</ele>
        <time>2018-09-29T09:07:03Z</time>
      </trkpt>
      <trkpt lat="48.04712" lon="3.32282">
        <ele>69.4</ele>
        <time>2018-09-29T09:07:10Z</time>
      </trkpt>
      <trkpt lat="48.04706" lon="3.3229">
        <ele>69.1</ele>
        <time>2018-09-29T09:07:17Z</time>
      </trkpt>
      <trkpt lat="48.04702" lon="3.323">
        <ele>68.8</ele>
        <time>2018-09-29T09:07:24Z</time>
      </trkpt>
      <trkpt lat="48.04702" lon="3.3231">
        <ele>67.3</ele>
        <time>2018-09-29T09:07:31Z</time>
      </trkpt>
      <trkpt lat="48.04705" lon="3.3232">
        <ele>66.6</ele>
        <time>2018-09-29T09:07:38Z</time>
      </trkpt>
      <trkpt lat="48.04707" lon="3.3233">
        <ele>66.4</ele>
        <time>2018-09-29T09:07:45Z</time>
      </trkpt>
      <trkpt lat="48.04709" lon="3.3234">
        <ele>66.3</ele>
        <time>2018-09-29T09:07:52Z</time>
      </trkpt>
      <trkpt lat="48.0471" lon="3.32353">
        <ele>66.4</ele>
        <time>2018-09-29T09:07:58Z</time>
      </trkpt>
      <trkpt lat="48.04712" lon="3.32364">
        <ele>68.9</ele>
        <time>2018-09-29T09:08:05Z</time>
      </trkpt>
      <trkpt lat="48.04714" lon="3.32372">
        <ele>70</ele>
        <time>2018-09-29T09:08:12Z</time>
      </trkpt>
      <trkpt lat="48.04714" lon="3.32373">
        <ele>70.7</ele>
        <time>2018-09-29T09:08:19Z</time>
      </trkpt>
      <trkpt lat="48.04716" lon="3.32381">
        <ele>73.1</ele>
        <time>2018-09-29T09:08:26Z</time>
      </trkpt>
      <trkpt lat="48.04718" lon="3.32393">
        <ele>73.2</ele>
        <time>2018-09-29T09:08:32Z</time>
      </trkpt>
      <trkpt lat="48.04717" lon="3.32405">
        <ele>70.8</ele>
        <time>2018-09-29T09:08:38Z</time>
      </trkpt>
      <trkpt lat="48.04712" lon="3.32414">
        <ele>69</ele>
        <time>2018-09-29T09:08:45Z</time>
      </trkpt>
      <trkpt lat="48.04706" lon="3.32419">
        <ele>67.5</ele>
        <time>2018-09-29T09:08:52Z</time>
      </trkpt>
      <trkpt lat="48.04698" lon="3.32422">
        <ele>65.3</ele>
        <time>2018-09-29T09:08:59Z</time>
      </trkpt>
      <trkpt lat="48.0469" lon="3.32422">
        <ele>66.4</ele>
        <time>2018-09-29T09:09:05Z</time>
      </trkpt>
      <trkpt lat="48.04683" lon="3.32425">
        <ele>64.9</ele>
        <time>2018-09-29T09:09:12Z</time>
      </trkpt>
      <trkpt lat="48.04676" lon="3.32429">
        <ele>63.9</ele>
        <time>2018-09-29T09:09:19Z</time>
      </trkpt>
      <trkpt lat="48.04672" lon="3.32431">
        <ele>63.2</ele>
        <time>2018-09-29T09:09:26Z</time>
      </trkpt>
      <trkpt lat="48.04665" lon="3.32434">
        <ele>65.7</ele>
        <time>2018-09-29T09:09:33Z</time>
      </trkpt>
      <trkpt lat="48.04658" lon="3.32438">
        <ele>66.4</ele>
        <time>2018-09-29T09:09:40Z</time>
      </trkpt>
      <trkpt lat="48.0465" lon="3.3244">
        <ele>66.5</ele>
        <time>2018-09-29T09:09:47Z</time>
      </trkpt>
      <trkpt lat="48.04643" lon="3.32441">
        <ele>65.4</ele>
        <time>2018-09-29T09:09:54Z</time>
      </trkpt>
      <trkpt lat="48.04637" lon="3.32444">
        <ele>65.1</ele>
        <time>2018-09-29T09:10:01Z</time>
      </trkpt>
      <trkpt lat="48.04635" lon="3.32446">
        <ele>67.7</ele>
        <time>2018-09-29T09:10:08Z</time>
      </trkpt>
      <trkpt lat="48.0463" lon="3.32448">
        <ele>67.2</ele>
        <time>2018-09-29T09:10:15Z</time>
      </trkpt>
      <trkpt lat="48.04629" lon="3.32449">
        <ele>66.4</ele>
        <time>2018-09-29T09:10:22Z</time>
      </trkpt>
      <trkpt lat="48.04629" lon="3.32449">
        <ele>66.4</ele>
        <time>2018-09-29T09:10:23Z</time>
      </trkpt>
      <trkpt lat="48.0463" lon="3.32449">
        <ele>66.4</ele>
        <time>2018-09-29T09:10:33Z</time>
      </trkpt>
      <trkpt lat="48.0463" lon="3.32449">
        <ele>66.4</ele>
        <time>2018-09-29T09:10:35Z</time>
      </trkpt>
      <trkpt lat="48.04629" lon="3.32449">
        <ele>73.1</ele>
        <time>2018-09-29T09:12:14Z</time>
      </trkpt>
      <trkpt lat="48.04629" lon="3.32449">
        <ele>73.1</ele>
        <time>2018-09-29T09:12:17Z</time>
      </trkpt>
      <trkpt lat="48.04622" lon="3.32453">
        <ele>69.9</ele>
        <time>2018-09-29T09:13:04Z</time>
      </trkpt>
      <trkpt lat="48.04617" lon="3.32455">
        <ele>69.7</ele>
        <time>2018-09-29T09:13:11Z</time>
      </trkpt>
      <trkpt lat="48.04611" lon="3.32459">
        <ele>66.4</ele>
        <time>2018-09-29T09:13:18Z</time>
      </trkpt>
      <trkpt lat="48.04604" lon="3.32464">
        <ele>64.6</ele>
        <time>2018-09-29T09:13:25Z</time>
      </trkpt>
      <trkpt lat="48.04599" lon="3.32466">
        <ele>65.2</ele>
        <time>2018-09-29T09:13:32Z</time>
      </trkpt>
      <trkpt lat="48.04594" lon="3.32468">
        <ele>64.5</ele>
        <time>2018-09-29T09:13:39Z</time>
      </trkpt>
      <trkpt lat="48.04587" lon="3.32468">
        <ele>67.4</ele>
        <time>2018-09-29T09:13:46Z</time>
      </trkpt>
      <trkpt lat="48.04581" lon="3.32471">
        <ele>67.7</ele>
        <time>2018-09-29T09:13:53Z</time>
      </trkpt>
      <trkpt lat="48.04575" lon="3.32473">
        <ele>67.9</ele>
        <time>2018-09-29T09:14:00Z</time>
      </trkpt>
      <trkpt lat="48.04572" lon="3.32474">
        <ele>68.8</ele>
        <time>2018-09-29T09:14:07Z</time>
      </trkpt>
      <trkpt lat="48.04571" lon="3.32474">
        <ele>69.8</ele>
        <time>2018-09-29T09:14:12Z</time>
      </trkpt>
      <trkpt lat="48.04566" lon="3.32476">
        <ele>71.1</ele>
        <time>2018-09-29T09:14:20Z</time>
      </trkpt>
      <trkpt lat="48.04562" lon="3.32482">
        <ele>73.1</ele>
        <time>2018-09-29T09:14:27Z</time>
      </trkpt>
      <trkpt lat="48.04563" lon="3.32491">
        <ele>73.5</ele>
        <time>2018-09-29T09:14:34Z</time>
      </trkpt>
      <trkpt lat="48.04565" lon="3.32501">
        <ele>70.6</ele>
        <time>2018-09-29T09:14:41Z</time>
      </trkpt>
      <trkpt lat="48.04569" lon="3.32511">
        <ele>69.7</ele>
        <time>2018-09-29T09:14:48Z</time>
      </trkpt>
      <trkpt lat="48.04572" lon="3.32522">
        <ele>71.3</ele>
        <time>2018-09-29T09:14:55Z</time>
      </trkpt>
      <trkpt lat="48.04574" lon="3.32528">
        <ele>72</ele>
        <time>2018-09-29T09:15:02Z</time>
      </trkpt>
      <trkpt lat="48.04574" lon="3.32528">
        <ele>72</ele>
        <time>2018-09-29T09:15:06Z</time>
      </trkpt>
      <trkpt lat="48.04571" lon="3.3252">
        <ele>72</ele>
        <time>2018-09-29T09:15:18Z</time>
      </trkpt>
      <trkpt lat="48.04569" lon="3.32513">
        <ele>71.6</ele>
        <time>2018-09-29T09:15:25Z</time>
      </trkpt>
      <trkpt lat="48.04566" lon="3.32502">
        <ele>70.2</ele>
        <time>2018-09-29T09:15:32Z</time>
      </trkpt>
      <trkpt lat="48.04564" lon="3.3249">
        <ele>69.6</ele>
        <time>2018-09-29T09:15:39Z</time>
      </trkpt>
      <trkpt lat="48.04561" lon="3.32483">
        <ele>67.8</ele>
        <time>2018-09-29T09:15:46Z</time>
      </trkpt>
      <trkpt lat="48.04559" lon="3.32476">
        <ele>66.8</ele>
        <time>2018-09-29T09:15:53Z</time>
      </trkpt>
      <trkpt lat="48.04556" lon="3.32477">
        <ele>69.1</ele>
        <time>2018-09-29T09:16:00Z</time>
      </trkpt>
      <trkpt lat="48.04551" lon="3.3248">
        <ele>67.1</ele>
        <time>2018-09-29T09:16:07Z</time>
      </trkpt>
      <trkpt lat="48.04543" lon="3.32484">
        <ele>65.6</ele>
        <time>2018-09-29T09:16:12Z</time>
      </trkpt>
      <trkpt lat="48.04536" lon="3.3249">
        <ele>66.8</ele>
        <time>2018-09-29T09:16:16Z</time>
      </trkpt>
      <trkpt lat="48.04529" lon="3.32496">
        <ele>67.2</ele>
        <time>2018-09-29T09:16:20Z</time>
      </trkpt>
      <trkpt lat="48.04522" lon="3.325">
        <ele>69.2</ele>
        <time>2018-09-29T09:16:26Z</time>
      </trkpt>
      <trkpt lat="48.0452" lon="3.32501">
        <ele>71.3</ele>
        <time>2018-09-29T09:16:33Z</time>
      </trkpt>
      <trkpt lat="48.0452" lon="3.32501">
        <ele>71.3</ele>
        <time>2018-09-29T09:16:34Z</time>
      </trkpt>
      <trkpt lat="48.04514" lon="3.32505">
        <ele>71.9</ele>
        <time>2018-09-29T09:16:39Z</time>
      </trkpt>
      <trkpt lat="48.04507" lon="3.32509">
        <ele>70.2</ele>
        <time>2018-09-29T09:16:45Z</time>
      </trkpt>
      <trkpt lat="48.045" lon="3.32514">
        <ele>70.4</ele>
        <time>2018-09-29T09:16:49Z</time>
      </trkpt>
      <trkpt lat="48.04494" lon="3.32521">
        <ele>71.9</ele>
        <time>2018-09-29T09:16:52Z</time>
      </trkpt>
      <trkpt lat="48.04491" lon="3.32529">
        <ele>74.6</ele>
        <time>2018-09-29T09:16:59Z</time>
      </trkpt>
      <trkpt lat="48.04492" lon="3.32532">
        <ele>75.5</ele>
        <time>2018-09-29T09:17:06Z</time>
      </trkpt>
      <trkpt lat="48.04496" lon="3.32541">
        <ele>76.4</ele>
        <time>2018-09-29T09:17:11Z</time>
      </trkpt>
      <trkpt lat="48.04498" lon="3.32551">
        <ele>74.9</ele>
        <time>2018-09-29T09:17:16Z</time>
      </trkpt>
      <trkpt lat="48.04498" lon="3.32563">
        <ele>76.3</ele>
        <time>2018-09-29T09:17:23Z</time>
      </trkpt>
      <trkpt lat="48.04494" lon="3.32573">
        <ele>79.1</ele>
        <time>2018-09-29T09:17:30Z</time>
      </trkpt>
      <trkpt lat="48.04496" lon="3.32574">
        <ele>79.9</ele>
        <time>2018-09-29T09:17:37Z</time>
      </trkpt>
      <trkpt lat="48.04503" lon="3.32577">
        <ele>78.1</ele>
        <time>2018-09-29T09:17:44Z</time>
      </trkpt>
      <trkpt lat="48.04508" lon="3.32586">
        <ele>76.9</ele>
        <time>2018-09-29T09:17:50Z</time>
      </trkpt>
      <trkpt lat="48.04512" lon="3.32596">
        <ele>75.9</ele>
        <time>2018-09-29T09:17:56Z</time>
      </trkpt>
      <trkpt lat="48.04516" lon="3.32607">
        <ele>75.1</ele>
        <time>2018-09-29T09:18:03Z</time>
      </trkpt>
      <trkpt lat="48.0452" lon="3.32618">
        <ele>76.9</ele>
        <time>2018-09-29T09:18:10Z</time>
      </trkpt>
      <trkpt lat="48.04523" lon="3.32629">
        <ele>78.8</ele>
        <time>2018-09-29T09:18:17Z</time>
      </trkpt>
      <trkpt lat="48.04523" lon="3.32641">
        <ele>81.6</ele>
        <time>2018-09-29T09:18:23Z</time>
      </trkpt>
      <trkpt lat="48.0452" lon="3.32652">
        <ele>82.5</ele>
        <time>2018-09-29T09:18:29Z</time>
      </trkpt>
      <trkpt lat="48.04515" lon="3.32662">
        <ele>84.2</ele>
        <time>2018-09-29T09:18:36Z</time>
      </trkpt>
      <trkpt lat="48.0451" lon="3.3267">
        <ele>87.2</ele>
        <time>2018-09-29T09:18:42Z</time>
      </trkpt>
      <trkpt lat="48.04504" lon="3.32679">
        <ele>87</ele>
        <time>2018-09-29T09:18:47Z</time>
      </trkpt>
      <trkpt lat="48.045" lon="3.32688">
        <ele>89.2</ele>
        <time>2018-09-29T09:18:54Z</time>
      </trkpt>
      <trkpt lat="48.04496" lon="3.32698">
        <ele>91.6</ele>
        <time>2018-09-29T09:19:01Z</time>
      </trkpt>
      <trkpt lat="48.04494" lon="3.32708">
        <ele>96</ele>
        <time>2018-09-29T09:19:08Z</time>
      </trkpt>
      <trkpt lat="48.04491" lon="3.32719">
        <ele>95.8</ele>
        <time>2018-09-29T09:19:13Z</time>
      </trkpt>
      <trkpt lat="48.04489" lon="3.32729">
        <ele>95.8</ele>
        <time>2018-09-29T09:19:19Z</time>
      </trkpt>
      <trkpt lat="48.04486" lon="3.3274">
        <ele>98.6</ele>
        <time>2018-09-29T09:19:26Z</time>
      </trkpt>
      <trkpt lat="48.04483" lon="3.32751">
        <ele>99.5</ele>
        <time>2018-09-29T09:19:32Z</time>
      </trkpt>
      <trkpt lat="48.04483" lon="3.3276">
        <ele>100.4</ele>
        <time>2018-09-29T09:19:39Z</time>
      </trkpt>
      <trkpt lat="48.04483" lon="3.3276">
        <ele>100.1</ele>
        <time>2018-09-29T09:19:44Z</time>
      </trkpt>
      <trkpt lat="48.04477" lon="3.32759">
        <ele>97.6</ele>
        <time>2018-09-29T09:19:53Z</time>
      </trkpt>
      <trkpt lat="48.04471" lon="3.32765">
        <ele>96.4</ele>
        <time>2018-09-29T09:19:58Z</time>
      </trkpt>
      <trkpt lat="48.04465" lon="3.32772">
        <ele>96.9</ele>
        <time>2018-09-29T09:20:03Z</time>
      </trkpt>
      <trkpt lat="48.04458" lon="3.32778">
        <ele>96.8</ele>
        <time>2018-09-29T09:20:10Z</time>
      </trkpt>
      <trkpt lat="48.04452" lon="3.32784">
        <ele>96.6</ele>
        <time>2018-09-29T09:20:16Z</time>
      </trkpt>
      <trkpt lat="48.04446" lon="3.3279">
        <ele>99.1</ele>
        <time>2018-09-29T09:20:23Z</time>
      </trkpt>
      <trkpt lat="48.04439" lon="3.32796">
        <ele>99.9</ele>
        <time>2018-09-29T09:20:30Z</time>
      </trkpt>
      <trkpt lat="48.04433" lon="3.32802">
        <ele>100.4</ele>
        <time>2018-09-29T09:20:37Z</time>
      </trkpt>
      <trkpt lat="48.04426" lon="3.3281">
        <ele>101.1</ele>
        <time>2018-09-29T09:20:44Z</time>
      </trkpt>
      <trkpt lat="48.0442" lon="3.32816">
        <ele>101.7</ele>
        <time>2018-09-29T09:20:51Z</time>
      </trkpt>
      <trkpt lat="48.04413" lon="3.32823">
        <ele>102.5</ele>
        <time>2018-09-29T09:20:58Z</time>
      </trkpt>
      <trkpt lat="48.04407" lon="3.3283">
        <ele>102.9</ele>
        <time>2018-09-29T09:21:05Z</time>
      </trkpt>
      <trkpt lat="48.044" lon="3.32836">
        <ele>103.5</ele>
        <time>2018-09-29T09:21:12Z</time>
      </trkpt>
      <trkpt lat="48.04394" lon="3.32843">
        <ele>103.6</ele>
        <time>2018-09-29T09:21:19Z</time>
      </trkpt>
      <trkpt lat="48.04388" lon="3.3285">
        <ele>104.3</ele>
        <time>2018-09-29T09:21:26Z</time>
      </trkpt>
      <trkpt lat="48.04382" lon="3.32857">
        <ele>105.4</ele>
        <time>2018-09-29T09:21:33Z</time>
      </trkpt>
      <trkpt lat="48.04376" lon="3.32863">
        <ele>106.3</ele>
        <time>2018-09-29T09:21:40Z</time>
      </trkpt>
      <trkpt lat="48.04369" lon="3.3287">
        <ele>107.5</ele>
        <time>2018-09-29T09:21:47Z</time>
      </trkpt>
      <trkpt lat="48.04363" lon="3.32876">
        <ele>109.3</ele>
        <time>2018-09-29T09:21:54Z</time>
      </trkpt>
      <trkpt lat="48.04356" lon="3.32881">
        <ele>110.3</ele>
        <time>2018-09-29T09:22:01Z</time>
      </trkpt>
      <trkpt lat="48.0435" lon="3.32888">
        <ele>112</ele>
        <time>2018-09-29T09:22:08Z</time>
      </trkpt>
      <trkpt lat="48.04345" lon="3.32895">
        <ele>113.3</ele>
        <time>2018-09-29T09:22:15Z</time>
      </trkpt>
      <trkpt lat="48.04339" lon="3.32904">
        <ele>113.7</ele>
        <time>2018-09-29T09:22:22Z</time>
      </trkpt>
      <trkpt lat="48.04335" lon="3.32913">
        <ele>113.1</ele>
        <time>2018-09-29T09:22:29Z</time>
      </trkpt>
      <trkpt lat="48.0433" lon="3.32922">
        <ele>113.8</ele>
        <time>2018-09-29T09:22:36Z</time>
      </trkpt>
      <trkpt lat="48.04325" lon="3.3293">
        <ele>114.5</ele>
        <time>2018-09-29T09:22:43Z</time>
      </trkpt>
      <trkpt lat="48.0432" lon="3.32939">
        <ele>115.3</ele>
        <time>2018-09-29T09:22:50Z</time>
      </trkpt>
      <trkpt lat="48.04317" lon="3.32948">
        <ele>116.7</ele>
        <time>2018-09-29T09:22:57Z</time>
      </trkpt>
      <trkpt lat="48.04314" lon="3.32959">
        <ele>117.3</ele>
        <time>2018-09-29T09:23:04Z</time>
      </trkpt>
      <trkpt lat="48.04308" lon="3.32969">
        <ele>119</ele>
        <time>2018-09-29T09:23:11Z</time>
      </trkpt>
      <trkpt lat="48.04305" lon="3.32978">
        <ele>121.1</ele>
        <time>2018-09-29T09:23:18Z</time>
      </trkpt>
      <trkpt lat="48.04299" lon="3.32987">
        <ele>121.5</ele>
        <time>2018-09-29T09:23:25Z</time>
      </trkpt>
      <trkpt lat="48.04295" lon="3.32997">
        <ele>121.2</ele>
        <time>2018-09-29T09:23:32Z</time>
      </trkpt>
      <trkpt lat="48.04291" lon="3.33008">
        <ele>121.9</ele>
        <time>2018-09-29T09:23:39Z</time>
      </trkpt>
      <trkpt lat="48.04288" lon="3.33017">
        <ele>123.1</ele>
        <time>2018-09-29T09:23:46Z</time>
      </trkpt>
      <trkpt lat="48.04284" lon="3.33023">
        <ele>125.5</ele>
        <time>2018-09-29T09:23:53Z</time>
      </trkpt>
      <trkpt lat="48.04278" lon="3.33029">
        <ele>126.3</ele>
        <time>2018-09-29T09:24:00Z</time>
      </trkpt>
      <trkpt lat="48.04273" lon="3.33038">
        <ele>126.2</ele>
        <time>2018-09-29T09:24:07Z</time>
      </trkpt>
      <trkpt lat="48.04268" lon="3.33046">
        <ele>126.3</ele>
        <time>2018-09-29T09:24:14Z</time>
      </trkpt>
      <trkpt lat="48.04263" lon="3.33052">
        <ele>125.6</ele>
        <time>2018-09-29T09:24:21Z</time>
      </trkpt>
      <trkpt lat="48.04258" lon="3.33059">
        <ele>125.9</ele>
        <time>2018-09-29T09:24:28Z</time>
      </trkpt>
      <trkpt lat="48.04252" lon="3.33068">
        <ele>127.1</ele>
        <time>2018-09-29T09:24:34Z</time>
      </trkpt>
      <trkpt lat="48.04246" lon="3.33075">
        <ele>128.8</ele>
        <time>2018-09-29T09:24:40Z</time>
      </trkpt>
      <trkpt lat="48.0424" lon="3.33081">
        <ele>130.4</ele>
        <time>2018-09-29T09:24:46Z</time>
      </trkpt>
      <trkpt lat="48.04233" lon="3.33086">
        <ele>129.9</ele>
        <time>2018-09-29T09:24:53Z</time>
      </trkpt>
      <trkpt lat="48.04225" lon="3.33093">
        <ele>130.2</ele>
        <time>2018-09-29T09:25:00Z</time>
      </trkpt>
      <trkpt lat="48.04219" lon="3.331">
        <ele>131.2</ele>
        <time>2018-09-29T09:25:06Z</time>
      </trkpt>
      <trkpt lat="48.04212" lon="3.33102">
        <ele>131</ele>
        <time>2018-09-29T09:25:13Z</time>
      </trkpt>
      <trkpt lat="48.04206" lon="3.33108">
        <ele>131</ele>
        <time>2018-09-29T09:25:20Z</time>
      </trkpt>
      <trkpt lat="48.04201" lon="3.33113">
        <ele>130.4</ele>
        <time>2018-09-29T09:25:27Z</time>
      </trkpt>
      <trkpt lat="48.04194" lon="3.33117">
        <ele>129</ele>
        <time>2018-09-29T09:25:33Z</time>
      </trkpt>
      <trkpt lat="48.04187" lon="3.33122">
        <ele>129.5</ele>
        <time>2018-09-29T09:25:40Z</time>
      </trkpt>
      <trkpt lat="48.0418" lon="3.33126">
        <ele>131.5</ele>
        <time>2018-09-29T09:25:47Z</time>
      </trkpt>
      <trkpt lat="48.04172" lon="3.33131">
        <ele>132.3</ele>
        <time>2018-09-29T09:25:53Z</time>
      </trkpt>
      <trkpt lat="48.04164" lon="3.33136">
        <ele>133.3</ele>
        <time>2018-09-29T09:25:59Z</time>
      </trkpt>
      <trkpt lat="48.04156" lon="3.33141">
        <ele>133.4</ele>
        <time>2018-09-29T09:26:05Z</time>
      </trkpt>
      <trkpt lat="48.0415" lon="3.33144">
        <ele>133.1</ele>
        <time>2018-09-29T09:26:11Z</time>
      </trkpt>
      <trkpt lat="48.04142" lon="3.33147">
        <ele>132.9</ele>
        <time>2018-09-29T09:26:17Z</time>
      </trkpt>
      <trkpt lat="48.04134" lon="3.33151">
        <ele>133.7</ele>
        <time>2018-09-29T09:26:23Z</time>
      </trkpt>
      <trkpt lat="48.04127" lon="3.33155">
        <ele>136</ele>
        <time>2018-09-29T09:26:29Z</time>
      </trkpt>
      <trkpt lat="48.04119" lon="3.33158">
        <ele>137.8</ele>
        <time>2018-09-29T09:26:35Z</time>
      </trkpt>
      <trkpt lat="48.04112" lon="3.33161">
        <ele>139.4</ele>
        <time>2018-09-29T09:26:41Z</time>
      </trkpt>
      <trkpt lat="48.04106" lon="3.33165">
        <ele>139.6</ele>
        <time>2018-09-29T09:26:47Z</time>
      </trkpt>
      <trkpt lat="48.04099" lon="3.3317">
        <ele>140.2</ele>
        <time>2018-09-29T09:26:53Z</time>
      </trkpt>
      <trkpt lat="48.04091" lon="3.33176">
        <ele>141.4</ele>
        <time>2018-09-29T09:26:59Z</time>
      </trkpt>
      <trkpt lat="48.04084" lon="3.33181">
        <ele>141.7</ele>
        <time>2018-09-29T09:27:05Z</time>
      </trkpt>
      <trkpt lat="48.04077" lon="3.33185">
        <ele>142.3</ele>
        <time>2018-09-29T09:27:11Z</time>
      </trkpt>
      <trkpt lat="48.04069" lon="3.33188">
        <ele>143.9</ele>
        <time>2018-09-29T09:27:16Z</time>
      </trkpt>
      <trkpt lat="48.04062" lon="3.33193">
        <ele>145.2</ele>
        <time>2018-09-29T09:27:22Z</time>
      </trkpt>
      <trkpt lat="48.04056" lon="3.33199">
        <ele>145.1</ele>
        <time>2018-09-29T09:27:27Z</time>
      </trkpt>
      <trkpt lat="48.04049" lon="3.33203">
        <ele>143.8</ele>
        <time>2018-09-29T09:27:33Z</time>
      </trkpt>
      <trkpt lat="48.04041" lon="3.33207">
        <ele>144</ele>
        <time>2018-09-29T09:27:40Z</time>
      </trkpt>
      <trkpt lat="48.04034" lon="3.33212">
        <ele>144.7</ele>
        <time>2018-09-29T09:27:46Z</time>
      </trkpt>
      <trkpt lat="48.04027" lon="3.33217">
        <ele>143.1</ele>
        <time>2018-09-29T09:27:52Z</time>
      </trkpt>
      <trkpt lat="48.04019" lon="3.33221">
        <ele>144.5</ele>
        <time>2018-09-29T09:27:58Z</time>
      </trkpt>
      <trkpt lat="48.04012" lon="3.33226">
        <ele>147.2</ele>
        <time>2018-09-29T09:28:03Z</time>
      </trkpt>
      <trkpt lat="48.04005" lon="3.33231">
        <ele>148.4</ele>
        <time>2018-09-29T09:28:09Z</time>
      </trkpt>
      <trkpt lat="48.03998" lon="3.33235">
        <ele>147.9</ele>
        <time>2018-09-29T09:28:15Z</time>
      </trkpt>
      <trkpt lat="48.03992" lon="3.33239">
        <ele>148.8</ele>
        <time>2018-09-29T09:28:20Z</time>
      </trkpt>
      <trkpt lat="48.03985" lon="3.33244">
        <ele>149.4</ele>
        <time>2018-09-29T09:28:26Z</time>
      </trkpt>
      <trkpt lat="48.03978" lon="3.33248">
        <ele>149.6</ele>
        <time>2018-09-29T09:28:32Z</time>
      </trkpt>
      <trkpt lat="48.0397" lon="3.33253">
        <ele>150.7</ele>
        <time>2018-09-29T09:28:38Z</time>
      </trkpt>
      <trkpt lat="48.03963" lon="3.33258">
        <ele>151.8</ele>
        <time>2018-09-29T09:28:44Z</time>
      </trkpt>
      <trkpt lat="48.03956" lon="3.33262">
        <ele>152.1</ele>
        <time>2018-09-29T09:28:50Z</time>
      </trkpt>
      <trkpt lat="48.03948" lon="3.33266">
        <ele>152</ele>
        <time>2018-09-29T09:28:56Z</time>
      </trkpt>
      <trkpt lat="48.03941" lon="3.33269">
        <ele>151.9</ele>
        <time>2018-09-29T09:29:02Z</time>
      </trkpt>
      <trkpt lat="48.03933" lon="3.33272">
        <ele>151.5</ele>
        <time>2018-09-29T09:29:09Z</time>
      </trkpt>
      <trkpt lat="48.03926" lon="3.33277">
        <ele>152.3</ele>
        <time>2018-09-29T09:29:16Z</time>
      </trkpt>
      <trkpt lat="48.03918" lon="3.33282">
        <ele>151.6</ele>
        <time>2018-09-29T09:29:23Z</time>
      </trkpt>
      <trkpt lat="48.03914" lon="3.33289">
        <ele>153.1</ele>
        <time>2018-09-29T09:29:30Z</time>
      </trkpt>
      <trkpt lat="48.03914" lon="3.33291">
        <ele>153.6</ele>
        <time>2018-09-29T09:29:37Z</time>
      </trkpt>
      <trkpt lat="48.0392" lon="3.33296">
        <ele>154.2</ele>
        <time>2018-09-29T09:29:44Z</time>
      </trkpt>
      <trkpt lat="48.0392" lon="3.33297">
        <ele>154.7</ele>
        <time>2018-09-29T09:29:51Z</time>
      </trkpt>
      <trkpt lat="48.03917" lon="3.3329">
        <ele>155.1</ele>
        <time>2018-09-29T09:30:37Z</time>
      </trkpt>
      <trkpt lat="48.03917" lon="3.33287">
        <ele>155.1</ele>
        <time>2018-09-29T09:30:44Z</time>
      </trkpt>
      <trkpt lat="48.03917" lon="3.33287">
        <ele>155.1</ele>
        <time>2018-09-29T09:30:46Z</time>
      </trkpt>
      <trkpt lat="48.03916" lon="3.33289">
        <ele>153</ele>
        <time>2018-09-29T09:32:23Z</time>
      </trkpt>
      <trkpt lat="48.03916" lon="3.33289">
        <ele>152.8</ele>
        <time>2018-09-29T09:32:24Z</time>
      </trkpt>
      <trkpt lat="48.03909" lon="3.33283">
        <ele>155.3</ele>
        <time>2018-09-29T09:37:52Z</time>
      </trkpt>
      <trkpt lat="48.03906" lon="3.33284">
        <ele>154.2</ele>
        <time>2018-09-29T09:37:59Z</time>
      </trkpt>
      <trkpt lat="48.03902" lon="3.33285">
        <ele>153.4</ele>
        <time>2018-09-29T09:38:06Z</time>
      </trkpt>
      <trkpt lat="48.03895" lon="3.33286">
        <ele>153</ele>
        <time>2018-09-29T09:38:13Z</time>
      </trkpt>
      <trkpt lat="48.03888" lon="3.3329">
        <ele>150.4</ele>
        <time>2018-09-29T09:38:20Z</time>
      </trkpt>
      <trkpt lat="48.03881" lon="3.33293">
        <ele>149.5</ele>
        <time>2018-09-29T09:38:27Z</time>
      </trkpt>
      <trkpt lat="48.03875" lon="3.33295">
        <ele>149.5</ele>
        <time>2018-09-29T09:38:34Z</time>
      </trkpt>
      <trkpt lat="48.03868" lon="3.33298">
        <ele>149.8</ele>
        <time>2018-09-29T09:38:41Z</time>
      </trkpt>
      <trkpt lat="48.03861" lon="3.33301">
        <ele>149.6</ele>
        <time>2018-09-29T09:38:48Z</time>
      </trkpt>
      <trkpt lat="48.03853" lon="3.33303">
        <ele>151.7</ele>
        <time>2018-09-29T09:38:55Z</time>
      </trkpt>
      <trkpt lat="48.03846" lon="3.33304">
        <ele>151.1</ele>
        <time>2018-09-29T09:39:02Z</time>
      </trkpt>
      <trkpt lat="48.03839" lon="3.33307">
        <ele>149.8</ele>
        <time>2018-09-29T09:39:09Z</time>
      </trkpt>
      <trkpt lat="48.03836" lon="3.33312">
        <ele>151</ele>
        <time>2018-09-29T09:39:16Z</time>
      </trkpt>
      <trkpt lat="48.03829" lon="3.33315">
        <ele>153.5</ele>
        <time>2018-09-29T09:39:23Z</time>
      </trkpt>
      <trkpt lat="48.03824" lon="3.33319">
        <ele>153.6</ele>
        <time>2018-09-29T09:39:30Z</time>
      </trkpt>
      <trkpt lat="48.03817" lon="3.33322">
        <ele>154.5</ele>
        <time>2018-09-29T09:39:37Z</time>
      </trkpt>
      <trkpt lat="48.0381" lon="3.33325">
        <ele>156.8</ele>
        <time>2018-09-29T09:39:44Z</time>
      </trkpt>
      <trkpt lat="48.03802" lon="3.33326">
        <ele>157.4</ele>
        <time>2018-09-29T09:39:50Z</time>
      </trkpt>
      <trkpt lat="48.03795" lon="3.33328">
        <ele>157.4</ele>
        <time>2018-09-29T09:39:57Z</time>
      </trkpt>
      <trkpt lat="48.03787" lon="3.33329">
        <ele>158.3</ele>
        <time>2018-09-29T09:40:03Z</time>
      </trkpt>
      <trkpt lat="48.03781" lon="3.3333">
        <ele>160.2</ele>
        <time>2018-09-29T09:40:10Z</time>
      </trkpt>
      <trkpt lat="48.03775" lon="3.33332">
        <ele>160.6</ele>
        <time>2018-09-29T09:40:17Z</time>
      </trkpt>
      <trkpt lat="48.0377" lon="3.33334">
        <ele>161.9</ele>
        <time>2018-09-29T09:40:24Z</time>
      </trkpt>
      <trkpt lat="48.03763" lon="3.33335">
        <ele>162.9</ele>
        <time>2018-09-29T09:40:31Z</time>
      </trkpt>
      <trkpt lat="48.03756" lon="3.33336">
        <ele>164.8</ele>
        <time>2018-09-29T09:40:38Z</time>
      </trkpt>
      <trkpt lat="48.0375" lon="3.33339">
        <ele>166.5</ele>
        <time>2018-09-29T09:40:45Z</time>
      </trkpt>
      <trkpt lat="48.03745" lon="3.33339">
        <ele>166.9</ele>
        <time>2018-09-29T09:40:52Z</time>
      </trkpt>
      <trkpt lat="48.03738" lon="3.3334">
        <ele>167.5</ele>
        <time>2018-09-29T09:40:59Z</time>
      </trkpt>
      <trkpt lat="48.03731" lon="3.33342">
        <ele>167.9</ele>
        <time>2018-09-29T09:41:06Z</time>
      </trkpt>
      <trkpt lat="48.03723" lon="3.33344">
        <ele>166.6</ele>
        <time>2018-09-29T09:41:13Z</time>
      </trkpt>
      <trkpt lat="48.03717" lon="3.33344">
        <ele>166.9</ele>
        <time>2018-09-29T09:41:20Z</time>
      </trkpt>
      <trkpt lat="48.0371" lon="3.33344">
        <ele>166.4</ele>
        <time>2018-09-29T09:41:27Z</time>
      </trkpt>
      <trkpt lat="48.03702" lon="3.33345">
        <ele>166.9</ele>
        <time>2018-09-29T09:41:34Z</time>
      </trkpt>
      <trkpt lat="48.03694" lon="3.33345">
        <ele>167.2</ele>
        <time>2018-09-29T09:41:41Z</time>
      </trkpt>
      <trkpt lat="48.03687" lon="3.33345">
        <ele>167.4</ele>
        <time>2018-09-29T09:41:47Z</time>
      </trkpt>
      <trkpt lat="48.03679" lon="3.33347">
        <ele>168.4</ele>
        <time>2018-09-29T09:41:54Z</time>
      </trkpt>
      <trkpt lat="48.03672" lon="3.33347">
        <ele>169.2</ele>
        <time>2018-09-29T09:42:01Z</time>
      </trkpt>
      <trkpt lat="48.03664" lon="3.33349">
        <ele>168.8</ele>
        <time>2018-09-29T09:42:08Z</time>
      </trkpt>
      <trkpt lat="48.03656" lon="3.3335">
        <ele>169.5</ele>
        <time>2018-09-29T09:42:15Z</time>
      </trkpt>
      <trkpt lat="48.03649" lon="3.33351">
        <ele>170</ele>
        <time>2018-09-29T09:42:21Z</time>
      </trkpt>
      <trkpt lat="48.03641" lon="3.33352">
        <ele>169.8</ele>
        <time>2018-09-29T09:42:28Z</time>
      </trkpt>
      <trkpt lat="48.03634" lon="3.33353">
        <ele>169.9</ele>
        <time>2018-09-29T09:42:35Z</time>
      </trkpt>
      <trkpt lat="48.03627" lon="3.33354">
        <ele>170.6</ele>
        <time>2018-09-29T09:42:42Z</time>
      </trkpt>
      <trkpt lat="48.03621" lon="3.33356">
        <ele>171.3</ele>
        <time>2018-09-29T09:42:49Z</time>
      </trkpt>
      <trkpt lat="48.03615" lon="3.33357">
        <ele>171.5</ele>
        <time>2018-09-29T09:42:56Z</time>
      </trkpt>
      <trkpt lat="48.03609" lon="3.33359">
        <ele>172</ele>
        <time>2018-09-29T09:43:03Z</time>
      </trkpt>
      <trkpt lat="48.03602" lon="3.33359">
        <ele>172</ele>
        <time>2018-09-29T09:43:10Z</time>
      </trkpt>
      <trkpt lat="48.03594" lon="3.3336">
        <ele>171.8</ele>
        <time>2018-09-29T09:43:16Z</time>
      </trkpt>
      <trkpt lat="48.03587" lon="3.33362">
        <ele>172.2</ele>
        <time>2018-09-29T09:43:23Z</time>
      </trkpt>
      <trkpt lat="48.0358" lon="3.33365">
        <ele>172.4</ele>
        <time>2018-09-29T09:43:30Z</time>
      </trkpt>
      <trkpt lat="48.03572" lon="3.33368">
        <ele>173.2</ele>
        <time>2018-09-29T09:43:37Z</time>
      </trkpt>
      <trkpt lat="48.03565" lon="3.3337">
        <ele>174</ele>
        <time>2018-09-29T09:43:43Z</time>
      </trkpt>
      <trkpt lat="48.03558" lon="3.33374">
        <ele>175.4</ele>
        <time>2018-09-29T09:43:50Z</time>
      </trkpt>
      <trkpt lat="48.03551" lon="3.33376">
        <ele>176</ele>
        <time>2018-09-29T09:43:57Z</time>
      </trkpt>
      <trkpt lat="48.03544" lon="3.33379">
        <ele>175.5</ele>
        <time>2018-09-29T09:44:04Z</time>
      </trkpt>
      <trkpt lat="48.03536" lon="3.33382">
        <ele>176</ele>
        <time>2018-09-29T09:44:10Z</time>
      </trkpt>
      <trkpt lat="48.03529" lon="3.33385">
        <ele>177</ele>
        <time>2018-09-29T09:44:16Z</time>
      </trkpt>
      <trkpt lat="48.03521" lon="3.33389">
        <ele>178.3</ele>
        <time>2018-09-29T09:44:23Z</time>
      </trkpt>
      <trkpt lat="48.03514" lon="3.33392">
        <ele>178.5</ele>
        <time>2018-09-29T09:44:30Z</time>
      </trkpt>
      <trkpt lat="48.03507" lon="3.33395">
        <ele>178.8</ele>
        <time>2018-09-29T09:44:37Z</time>
      </trkpt>
      <trkpt lat="48.03499" lon="3.33397">
        <ele>177.9</ele>
        <time>2018-09-29T09:44:43Z</time>
      </trkpt>
      <trkpt lat="48.03493" lon="3.334">
        <ele>178.1</ele>
        <time>2018-09-29T09:44:50Z</time>
      </trkpt>
      <trkpt lat="48.03486" lon="3.33404">
        <ele>177.7</ele>
        <time>2018-09-29T09:44:57Z</time>
      </trkpt>
      <trkpt lat="48.03478" lon="3.33407">
        <ele>176.8</ele>
        <time>2018-09-29T09:45:04Z</time>
      </trkpt>
      <trkpt lat="48.03471" lon="3.3341">
        <ele>176.2</ele>
        <time>2018-09-29T09:45:11Z</time>
      </trkpt>
      <trkpt lat="48.03463" lon="3.33413">
        <ele>176.5</ele>
        <time>2018-09-29T09:45:18Z</time>
      </trkpt>
      <trkpt lat="48.03456" lon="3.33416">
        <ele>176.3</ele>
        <time>2018-09-29T09:45:25Z</time>
      </trkpt>
      <trkpt lat="48.0345" lon="3.33418">
        <ele>175.6</ele>
        <time>2018-09-29T09:45:32Z</time>
      </trkpt>
      <trkpt lat="48.03444" lon="3.33422">
        <ele>175.4</ele>
        <time>2018-09-29T09:45:39Z</time>
      </trkpt>
      <trkpt lat="48.03437" lon="3.33425">
        <ele>175.5</ele>
        <time>2018-09-29T09:45:46Z</time>
      </trkpt>
      <trkpt lat="48.0343" lon="3.33428">
        <ele>177.5</ele>
        <time>2018-09-29T09:45:52Z</time>
      </trkpt>
      <trkpt lat="48.03423" lon="3.33432">
        <ele>178.6</ele>
        <time>2018-09-29T09:45:59Z</time>
      </trkpt>
      <trkpt lat="48.03416" lon="3.33436">
        <ele>180</ele>
        <time>2018-09-29T09:46:06Z</time>
      </trkpt>
      <trkpt lat="48.03408" lon="3.33441">
        <ele>182.4</ele>
        <time>2018-09-29T09:46:13Z</time>
      </trkpt>
      <trkpt lat="48.03401" lon="3.33444">
        <ele>183.8</ele>
        <time>2018-09-29T09:46:19Z</time>
      </trkpt>
      <trkpt lat="48.03397" lon="3.33448">
        <ele>185.8</ele>
        <time>2018-09-29T09:46:26Z</time>
      </trkpt>
      <trkpt lat="48.03391" lon="3.33452">
        <ele>187.7</ele>
        <time>2018-09-29T09:46:33Z</time>
      </trkpt>
      <trkpt lat="48.03385" lon="3.33458">
        <ele>188.3</ele>
        <time>2018-09-29T09:46:40Z</time>
      </trkpt>
      <trkpt lat="48.03377" lon="3.33461">
        <ele>188.8</ele>
        <time>2018-09-29T09:46:47Z</time>
      </trkpt>
      <trkpt lat="48.0337" lon="3.33465">
        <ele>189.1</ele>
        <time>2018-09-29T09:46:54Z</time>
      </trkpt>
      <trkpt lat="48.03364" lon="3.3347">
        <ele>189.5</ele>
        <time>2018-09-29T09:47:01Z</time>
      </trkpt>
      <trkpt lat="48.03358" lon="3.33475">
        <ele>188.4</ele>
        <time>2018-09-29T09:47:08Z</time>
      </trkpt>
      <trkpt lat="48.03351" lon="3.33479">
        <ele>188.4</ele>
        <time>2018-09-29T09:47:15Z</time>
      </trkpt>
      <trkpt lat="48.03343" lon="3.33484">
        <ele>187.1</ele>
        <time>2018-09-29T09:47:22Z</time>
      </trkpt>
      <trkpt lat="48.03336" lon="3.3349">
        <ele>187.2</ele>
        <time>2018-09-29T09:47:29Z</time>
      </trkpt>
      <trkpt lat="48.0333" lon="3.33498">
        <ele>189.7</ele>
        <time>2018-09-29T09:47:36Z</time>
      </trkpt>
      <trkpt lat="48.03324" lon="3.33505">
        <ele>190.5</ele>
        <time>2018-09-29T09:47:43Z</time>
      </trkpt>
      <trkpt lat="48.03321" lon="3.33507">
        <ele>191.1</ele>
        <time>2018-09-29T09:47:50Z</time>
      </trkpt>
      <trkpt lat="48.03321" lon="3.33507">
        <ele>191.1</ele>
        <time>2018-09-29T09:47:55Z</time>
      </trkpt>
      <trkpt lat="48.03318" lon="3.33513">
        <ele>191.5</ele>
        <time>2018-09-29T09:48:48Z</time>
      </trkpt>
      <trkpt lat="48.03318" lon="3.33513">
        <ele>191.5</ele>
        <time>2018-09-29T09:48:50Z</time>
      </trkpt>
      <trkpt lat="48.03311" lon="3.33519">
        <ele>188</ele>
        <time>2018-09-29T09:52:12Z</time>
      </trkpt>
      <trkpt lat="48.03306" lon="3.33524">
        <ele>188</ele>
        <time>2018-09-29T09:52:19Z</time>
      </trkpt>
      <trkpt lat="48.03303" lon="3.33528">
        <ele>187.4</ele>
        <time>2018-09-29T09:52:26Z</time>
      </trkpt>
      <trkpt lat="48.03302" lon="3.3353">
        <ele>188.5</ele>
        <time>2018-09-29T09:52:33Z</time>
      </trkpt>
      <trkpt lat="48.03302" lon="3.3353">
        <ele>188.6</ele>
        <time>2018-09-29T09:52:38Z</time>
      </trkpt>
      <trkpt lat="48.03298" lon="3.33534">
        <ele>188.4</ele>
        <time>2018-09-29T09:52:45Z</time>
      </trkpt>
      <trkpt lat="48.03295" lon="3.33538">
        <ele>188.1</ele>
        <time>2018-09-29T09:52:52Z</time>
      </trkpt>
      <trkpt lat="48.03294" lon="3.33538">
        <ele>188.6</ele>
        <time>2018-09-29T09:52:57Z</time>
      </trkpt>
      <trkpt lat="48.03288" lon="3.33542">
        <ele>190.3</ele>
        <time>2018-09-29T09:53:19Z</time>
      </trkpt>
      <trkpt lat="48.03282" lon="3.33547">
        <ele>189.8</ele>
        <time>2018-09-29T09:53:26Z</time>
      </trkpt>
      <trkpt lat="48.03277" lon="3.33552">
        <ele>187.6</ele>
        <time>2018-09-29T09:53:33Z</time>
      </trkpt>
      <trkpt lat="48.03272" lon="3.33557">
        <ele>188.5</ele>
        <time>2018-09-29T09:53:40Z</time>
      </trkpt>
      <trkpt lat="48.03268" lon="3.33563">
        <ele>188.1</ele>
        <time>2018-09-29T09:53:47Z</time>
      </trkpt>
      <trkpt lat="48.03264" lon="3.33568">
        <ele>189.3</ele>
        <time>2018-09-29T09:53:54Z</time>
      </trkpt>
      <trkpt lat="48.03257" lon="3.33575">
        <ele>189.4</ele>
        <time>2018-09-29T09:54:01Z</time>
      </trkpt>
      <trkpt lat="48.0325" lon="3.33582">
        <ele>189.4</ele>
        <time>2018-09-29T09:54:08Z</time>
      </trkpt>
      <trkpt lat="48.03244" lon="3.33587">
        <ele>191.4</ele>
        <time>2018-09-29T09:54:13Z</time>
      </trkpt>
      <trkpt lat="48.03239" lon="3.33595">
        <ele>193.5</ele>
        <time>2018-09-29T09:54:18Z</time>
      </trkpt>
      <trkpt lat="48.03232" lon="3.33601">
        <ele>194.8</ele>
        <time>2018-09-29T09:54:23Z</time>
      </trkpt>
      <trkpt lat="48.03225" lon="3.33607">
        <ele>194.6</ele>
        <time>2018-09-29T09:54:30Z</time>
      </trkpt>
      <trkpt lat="48.03217" lon="3.33612">
        <ele>193.3</ele>
        <time>2018-09-29T09:54:37Z</time>
      </trkpt>
      <trkpt lat="48.03211" lon="3.3362">
        <ele>191.6</ele>
        <time>2018-09-29T09:54:43Z</time>
      </trkpt>
      <trkpt lat="48.03203" lon="3.33627">
        <ele>190.7</ele>
        <time>2018-09-29T09:54:50Z</time>
      </trkpt>
      <trkpt lat="48.03197" lon="3.33631">
        <ele>190.4</ele>
        <time>2018-09-29T09:54:56Z</time>
      </trkpt>
      <trkpt lat="48.03189" lon="3.33635">
        <ele>191.2</ele>
        <time>2018-09-29T09:55:02Z</time>
      </trkpt>
      <trkpt lat="48.03181" lon="3.33642">
        <ele>190.5</ele>
        <time>2018-09-29T09:55:09Z</time>
      </trkpt>
      <trkpt lat="48.03174" lon="3.33648">
        <ele>192.6</ele>
        <time>2018-09-29T09:55:14Z</time>
      </trkpt>
      <trkpt lat="48.03167" lon="3.33654">
        <ele>193.3</ele>
        <time>2018-09-29T09:55:20Z</time>
      </trkpt>
      <trkpt lat="48.0316" lon="3.33657">
        <ele>194.7</ele>
        <time>2018-09-29T09:55:27Z</time>
      </trkpt>
      <trkpt lat="48.03155" lon="3.33661">
        <ele>194.1</ele>
        <time>2018-09-29T09:55:34Z</time>
      </trkpt>
      <trkpt lat="48.03148" lon="3.33667">
        <ele>194.7</ele>
        <time>2018-09-29T09:55:41Z</time>
      </trkpt>
      <trkpt lat="48.03143" lon="3.33675">
        <ele>194.7</ele>
        <time>2018-09-29T09:55:48Z</time>
      </trkpt>
      <trkpt lat="48.03136" lon="3.33682">
        <ele>194.6</ele>
        <time>2018-09-29T09:55:55Z</time>
      </trkpt>
      <trkpt lat="48.03129" lon="3.33687">
        <ele>194.9</ele>
        <time>2018-09-29T09:56:01Z</time>
      </trkpt>
      <trkpt lat="48.03122" lon="3.33692">
        <ele>195</ele>
        <time>2018-09-29T09:56:07Z</time>
      </trkpt>
      <trkpt lat="48.03116" lon="3.33699">
        <ele>193.2</ele>
        <time>2018-09-29T09:56:14Z</time>
      </trkpt>
      <trkpt lat="48.0311" lon="3.33704">
        <ele>193.4</ele>
        <time>2018-09-29T09:56:19Z</time>
      </trkpt>
      <trkpt lat="48.03102" lon="3.3371">
        <ele>191.7</ele>
        <time>2018-09-29T09:56:25Z</time>
      </trkpt>
      <trkpt lat="48.03096" lon="3.33718">
        <ele>190.7</ele>
        <time>2018-09-29T09:56:31Z</time>
      </trkpt>
      <trkpt lat="48.03089" lon="3.33724">
        <ele>190</ele>
        <time>2018-09-29T09:56:37Z</time>
      </trkpt>
      <trkpt lat="48.03083" lon="3.3373">
        <ele>189.4</ele>
        <time>2018-09-29T09:56:43Z</time>
      </trkpt>
      <trkpt lat="48.03075" lon="3.33736">
        <ele>188.3</ele>
        <time>2018-09-29T09:56:50Z</time>
      </trkpt>
      <trkpt lat="48.03069" lon="3.33742">
        <ele>188.9</ele>
        <time>2018-09-29T09:56:57Z</time>
      </trkpt>
      <trkpt lat="48.03062" lon="3.33748">
        <ele>189.2</ele>
        <time>2018-09-29T09:57:04Z</time>
      </trkpt>
      <trkpt lat="48.03055" lon="3.3375">
        <ele>187.7</ele>
        <time>2018-09-29T09:57:11Z</time>
      </trkpt>
      <trkpt lat="48.03047" lon="3.33746">
        <ele>187</ele>
        <time>2018-09-29T09:57:17Z</time>
      </trkpt>
      <trkpt lat="48.03041" lon="3.33741">
        <ele>187.6</ele>
        <time>2018-09-29T09:57:23Z</time>
      </trkpt>
      <trkpt lat="48.03035" lon="3.33736">
        <ele>187.1</ele>
        <time>2018-09-29T09:57:30Z</time>
      </trkpt>
      <trkpt lat="48.03029" lon="3.3373">
        <ele>189</ele>
        <time>2018-09-29T09:57:37Z</time>
      </trkpt>
      <trkpt lat="48.03024" lon="3.33721">
        <ele>191.8</ele>
        <time>2018-09-29T09:57:44Z</time>
      </trkpt>
      <trkpt lat="48.03018" lon="3.33714">
        <ele>192.1</ele>
        <time>2018-09-29T09:57:50Z</time>
      </trkpt>
      <trkpt lat="48.03014" lon="3.33707">
        <ele>192.2</ele>
        <time>2018-09-29T09:57:57Z</time>
      </trkpt>
      <trkpt lat="48.03009" lon="3.33701">
        <ele>193.7</ele>
        <time>2018-09-29T09:58:04Z</time>
      </trkpt>
      <trkpt lat="48.03005" lon="3.33694">
        <ele>194.3</ele>
        <time>2018-09-29T09:58:11Z</time>
      </trkpt>
      <trkpt lat="48.03" lon="3.33688">
        <ele>194.8</ele>
        <time>2018-09-29T09:58:18Z</time>
      </trkpt>
      <trkpt lat="48.02994" lon="3.33682">
        <ele>195</ele>
        <time>2018-09-29T09:58:23Z</time>
      </trkpt>
      <trkpt lat="48.02989" lon="3.33675">
        <ele>195.8</ele>
        <time>2018-09-29T09:58:30Z</time>
      </trkpt>
      <trkpt lat="48.02982" lon="3.33668">
        <ele>195.5</ele>
        <time>2018-09-29T09:58:37Z</time>
      </trkpt>
      <trkpt lat="48.02977" lon="3.33661">
        <ele>195.4</ele>
        <time>2018-09-29T09:58:44Z</time>
      </trkpt>
      <trkpt lat="48.02972" lon="3.33656">
        <ele>193.6</ele>
        <time>2018-09-29T09:58:51Z</time>
      </trkpt>
      <trkpt lat="48.02965" lon="3.3365">
        <ele>191.3</ele>
        <time>2018-09-29T09:58:58Z</time>
      </trkpt>
      <trkpt lat="48.02958" lon="3.33644">
        <ele>191.5</ele>
        <time>2018-09-29T09:59:05Z</time>
      </trkpt>
      <trkpt lat="48.02951" lon="3.33638">
        <ele>191.3</ele>
        <time>2018-09-29T09:59:12Z</time>
      </trkpt>
      <trkpt lat="48.02944" lon="3.33632">
        <ele>189.9</ele>
        <time>2018-09-29T09:59:19Z</time>
      </trkpt>
      <trkpt lat="48.02937" lon="3.33624">
        <ele>190</ele>
        <time>2018-09-29T09:59:25Z</time>
      </trkpt>
      <trkpt lat="48.02933" lon="3.33618">
        <ele>188.2</ele>
        <time>2018-09-29T09:59:32Z</time>
      </trkpt>
      <trkpt lat="48.02926" lon="3.33612">
        <ele>186.3</ele>
        <time>2018-09-29T09:59:39Z</time>
      </trkpt>
      <trkpt lat="48.02919" lon="3.33606">
        <ele>185.8</ele>
        <time>2018-09-29T09:59:45Z</time>
      </trkpt>
      <trkpt lat="48.02915" lon="3.33598">
        <ele>184.2</ele>
        <time>2018-09-29T09:59:52Z</time>
      </trkpt>
      <trkpt lat="48.02908" lon="3.33592">
        <ele>184.1</ele>
        <time>2018-09-29T09:59:58Z</time>
      </trkpt>
      <trkpt lat="48.02901" lon="3.33586">
        <ele>184.2</ele>
        <time>2018-09-29T10:00:04Z</time>
      </trkpt>
      <trkpt lat="48.02895" lon="3.33579">
        <ele>183.8</ele>
        <time>2018-09-29T10:00:10Z</time>
      </trkpt>
      <trkpt lat="48.02888" lon="3.33572">
        <ele>185.6</ele>
        <time>2018-09-29T10:00:17Z</time>
      </trkpt>
      <trkpt lat="48.02883" lon="3.33565">
        <ele>186.5</ele>
        <time>2018-09-29T10:00:24Z</time>
      </trkpt>
      <trkpt lat="48.02879" lon="3.33558">
        <ele>186</ele>
        <time>2018-09-29T10:00:31Z</time>
      </trkpt>
      <trkpt lat="48.02874" lon="3.3355">
        <ele>187.4</ele>
        <time>2018-09-29T10:00:38Z</time>
      </trkpt>
      <trkpt lat="48.02869" lon="3.33542">
        <ele>190.7</ele>
        <time>2018-09-29T10:00:45Z</time>
      </trkpt>
      <trkpt lat="48.02865" lon="3.33534">
        <ele>191.8</ele>
        <time>2018-09-29T10:00:52Z</time>
      </trkpt>
      <trkpt lat="48.02859" lon="3.33528">
        <ele>191.5</ele>
        <time>2018-09-29T10:00:59Z</time>
      </trkpt>
      <trkpt lat="48.02852" lon="3.33521">
        <ele>192.9</ele>
        <time>2018-09-29T10:01:06Z</time>
      </trkpt>
      <trkpt lat="48.02845" lon="3.33514">
        <ele>193.3</ele>
        <time>2018-09-29T10:01:12Z</time>
      </trkpt>
      <trkpt lat="48.02839" lon="3.33505">
        <ele>192.8</ele>
        <time>2018-09-29T10:01:18Z</time>
      </trkpt>
      <trkpt lat="48.02836" lon="3.33496">
        <ele>191.2</ele>
        <time>2018-09-29T10:01:25Z</time>
      </trkpt>
      <trkpt lat="48.02832" lon="3.33486">
        <ele>189.7</ele>
        <time>2018-09-29T10:01:32Z</time>
      </trkpt>
      <trkpt lat="48.02829" lon="3.33476">
        <ele>189.6</ele>
        <time>2018-09-29T10:01:38Z</time>
      </trkpt>
      <trkpt lat="48.02825" lon="3.33465">
        <ele>190.5</ele>
        <time>2018-09-29T10:01:45Z</time>
      </trkpt>
      <trkpt lat="48.02822" lon="3.33455">
        <ele>190.8</ele>
        <time>2018-09-29T10:01:52Z</time>
      </trkpt>
      <trkpt lat="48.02818" lon="3.33444">
        <ele>190.6</ele>
        <time>2018-09-29T10:01:59Z</time>
      </trkpt>
      <trkpt lat="48.02815" lon="3.33433">
        <ele>190.3</ele>
        <time>2018-09-29T10:02:06Z</time>
      </trkpt>
      <trkpt lat="48.02812" lon="3.33423">
        <ele>188.9</ele>
        <time>2018-09-29T10:02:13Z</time>
      </trkpt>
      <trkpt lat="48.02808" lon="3.33413">
        <ele>188.6</ele>
        <time>2018-09-29T10:02:20Z</time>
      </trkpt>
      <trkpt lat="48.02804" lon="3.33402">
        <ele>188.6</ele>
        <time>2018-09-29T10:02:27Z</time>
      </trkpt>
      <trkpt lat="48.02801" lon="3.33392">
        <ele>187.5</ele>
        <time>2018-09-29T10:02:33Z</time>
      </trkpt>
      <trkpt lat="48.02799" lon="3.33381">
        <ele>187.8</ele>
        <time>2018-09-29T10:02:40Z</time>
      </trkpt>
      <trkpt lat="48.02795" lon="3.33371">
        <ele>188.3</ele>
        <time>2018-09-29T10:02:46Z</time>
      </trkpt>
      <trkpt lat="48.02791" lon="3.33362">
        <ele>188.2</ele>
        <time>2018-09-29T10:02:52Z</time>
      </trkpt>
      <trkpt lat="48.02788" lon="3.33351">
        <ele>186.3</ele>
        <time>2018-09-29T10:02:59Z</time>
      </trkpt>
      <trkpt lat="48.02785" lon="3.33341">
        <ele>185.6</ele>
        <time>2018-09-29T10:03:05Z</time>
      </trkpt>
      <trkpt lat="48.02783" lon="3.3333">
        <ele>185.2</ele>
        <time>2018-09-29T10:03:12Z</time>
      </trkpt>
      <trkpt lat="48.02781" lon="3.33318">
        <ele>186.3</ele>
        <time>2018-09-29T10:03:19Z</time>
      </trkpt>
      <trkpt lat="48.02778" lon="3.33307">
        <ele>185.4</ele>
        <time>2018-09-29T10:03:26Z</time>
      </trkpt>
      <trkpt lat="48.02775" lon="3.33296">
        <ele>184.1</ele>
        <time>2018-09-29T10:03:33Z</time>
      </trkpt>
      <trkpt lat="48.0277" lon="3.33286">
        <ele>183.9</ele>
        <time>2018-09-29T10:03:40Z</time>
      </trkpt>
      <trkpt lat="48.02767" lon="3.33275">
        <ele>184.9</ele>
        <time>2018-09-29T10:03:47Z</time>
      </trkpt>
      <trkpt lat="48.02763" lon="3.33265">
        <ele>184.5</ele>
        <time>2018-09-29T10:03:54Z</time>
      </trkpt>
      <trkpt lat="48.02761" lon="3.33255">
        <ele>184.2</ele>
        <time>2018-09-29T10:04:00Z</time>
      </trkpt>
      <trkpt lat="48.02758" lon="3.33244">
        <ele>183.7</ele>
        <time>2018-09-29T10:04:07Z</time>
      </trkpt>
      <trkpt lat="48.02754" lon="3.33234">
        <ele>182.9</ele>
        <time>2018-09-29T10:04:14Z</time>
      </trkpt>
      <trkpt lat="48.02751" lon="3.33225">
        <ele>181.6</ele>
        <time>2018-09-29T10:04:20Z</time>
      </trkpt>
      <trkpt lat="48.02747" lon="3.33213">
        <ele>180.9</ele>
        <time>2018-09-29T10:04:27Z</time>
      </trkpt>
      <trkpt lat="48.02744" lon="3.33202">
        <ele>180.7</ele>
        <time>2018-09-29T10:04:34Z</time>
      </trkpt>
      <trkpt lat="48.02742" lon="3.33193">
        <ele>180</ele>
        <time>2018-09-29T10:04:41Z</time>
      </trkpt>
      <trkpt lat="48.02739" lon="3.33183">
        <ele>179.6</ele>
        <time>2018-09-29T10:04:48Z</time>
      </trkpt>
      <trkpt lat="48.02736" lon="3.33173">
        <ele>178.1</ele>
        <time>2018-09-29T10:04:54Z</time>
      </trkpt>
      <trkpt lat="48.02733" lon="3.33163">
        <ele>177.3</ele>
        <time>2018-09-29T10:05:01Z</time>
      </trkpt>
      <trkpt lat="48.02729" lon="3.33154">
        <ele>177</ele>
        <time>2018-09-29T10:05:07Z</time>
      </trkpt>
      <trkpt lat="48.02727" lon="3.33143">
        <ele>177.1</ele>
        <time>2018-09-29T10:05:13Z</time>
      </trkpt>
      <trkpt lat="48.02725" lon="3.33132">
        <ele>175.5</ele>
        <time>2018-09-29T10:05:20Z</time>
      </trkpt>
      <trkpt lat="48.02721" lon="3.33121">
        <ele>175.7</ele>
        <time>2018-09-29T10:05:27Z</time>
      </trkpt>
      <trkpt lat="48.02718" lon="3.3311">
        <ele>175.3</ele>
        <time>2018-09-29T10:05:34Z</time>
      </trkpt>
      <trkpt lat="48.02714" lon="3.331">
        <ele>175.7</ele>
        <time>2018-09-29T10:05:41Z</time>
      </trkpt>
      <trkpt lat="48.0271" lon="3.3309">
        <ele>174.4</ele>
        <time>2018-09-29T10:05:47Z</time>
      </trkpt>
      <trkpt lat="48.02707" lon="3.33079">
        <ele>175</ele>
        <time>2018-09-29T10:05:54Z</time>
      </trkpt>
      <trkpt lat="48.02704" lon="3.33068">
        <ele>175</ele>
        <time>2018-09-29T10:06:01Z</time>
      </trkpt>
      <trkpt lat="48.02701" lon="3.33057">
        <ele>176.7</ele>
        <time>2018-09-29T10:06:08Z</time>
      </trkpt>
      <trkpt lat="48.02699" lon="3.33045">
        <ele>177.9</ele>
        <time>2018-09-29T10:06:15Z</time>
      </trkpt>
      <trkpt lat="48.02698" lon="3.33035">
        <ele>178.9</ele>
        <time>2018-09-29T10:06:22Z</time>
      </trkpt>
      <trkpt lat="48.02694" lon="3.33025">
        <ele>179.5</ele>
        <time>2018-09-29T10:06:28Z</time>
      </trkpt>
      <trkpt lat="48.02692" lon="3.33014">
        <ele>179.2</ele>
        <time>2018-09-29T10:06:35Z</time>
      </trkpt>
      <trkpt lat="48.0269" lon="3.33003">
        <ele>177.8</ele>
        <time>2018-09-29T10:06:42Z</time>
      </trkpt>
      <trkpt lat="48.02687" lon="3.32993">
        <ele>178.7</ele>
        <time>2018-09-29T10:06:48Z</time>
      </trkpt>
      <trkpt lat="48.02684" lon="3.32982">
        <ele>178.2</ele>
        <time>2018-09-29T10:06:55Z</time>
      </trkpt>
      <trkpt lat="48.02679" lon="3.3297">
        <ele>177</ele>
        <time>2018-09-29T10:07:01Z</time>
      </trkpt>
      <trkpt lat="48.02676" lon="3.32959">
        <ele>177</ele>
        <time>2018-09-29T10:07:08Z</time>
      </trkpt>
      <trkpt lat="48.02672" lon="3.3295">
        <ele>175.8</ele>
        <time>2018-09-29T10:07:14Z</time>
      </trkpt>
      <trkpt lat="48.02667" lon="3.32942">
        <ele>176.2</ele>
        <time>2018-09-29T10:07:20Z</time>
      </trkpt>
      <trkpt lat="48.02664" lon="3.32932">
        <ele>176.7</ele>
        <time>2018-09-29T10:07:26Z</time>
      </trkpt>
      <trkpt lat="48.02661" lon="3.32921">
        <ele>176.9</ele>
        <time>2018-09-29T10:07:33Z</time>
      </trkpt>
      <trkpt lat="48.02657" lon="3.32911">
        <ele>175.8</ele>
        <time>2018-09-29T10:07:40Z</time>
      </trkpt>
      <trkpt lat="48.02654" lon="3.32899">
        <ele>176.3</ele>
        <time>2018-09-29T10:07:47Z</time>
      </trkpt>
      <trkpt lat="48.02653" lon="3.32889">
        <ele>174.5</ele>
        <time>2018-09-29T10:07:54Z</time>
      </trkpt>
      <trkpt lat="48.0265" lon="3.32879">
        <ele>173.8</ele>
        <time>2018-09-29T10:08:00Z</time>
      </trkpt>
      <trkpt lat="48.02647" lon="3.32868">
        <ele>173.4</ele>
        <time>2018-09-29T10:08:07Z</time>
      </trkpt>
      <trkpt lat="48.02645" lon="3.32857">
        <ele>172.7</ele>
        <time>2018-09-29T10:08:14Z</time>
      </trkpt>
      <trkpt lat="48.02641" lon="3.32847">
        <ele>171.4</ele>
        <time>2018-09-29T10:08:21Z</time>
      </trkpt>
      <trkpt lat="48.02637" lon="3.32836">
        <ele>171</ele>
        <time>2018-09-29T10:08:27Z</time>
      </trkpt>
      <trkpt lat="48.02634" lon="3.32826">
        <ele>169</ele>
        <time>2018-09-29T10:08:33Z</time>
      </trkpt>
      <trkpt lat="48.02632" lon="3.32815">
        <ele>166</ele>
        <time>2018-09-29T10:08:40Z</time>
      </trkpt>
      <trkpt lat="48.02628" lon="3.32806">
        <ele>164.3</ele>
        <time>2018-09-29T10:08:47Z</time>
      </trkpt>
      <trkpt lat="48.02625" lon="3.32796">
        <ele>166.2</ele>
        <time>2018-09-29T10:08:52Z</time>
      </trkpt>
      <trkpt lat="48.02622" lon="3.32786">
        <ele>165.9</ele>
        <time>2018-09-29T10:08:58Z</time>
      </trkpt>
      <trkpt lat="48.02619" lon="3.32777">
        <ele>165</ele>
        <time>2018-09-29T10:09:05Z</time>
      </trkpt>
      <trkpt lat="48.02615" lon="3.32767">
        <ele>166.3</ele>
        <time>2018-09-29T10:09:11Z</time>
      </trkpt>
      <trkpt lat="48.02611" lon="3.32757">
        <ele>165.7</ele>
        <time>2018-09-29T10:09:17Z</time>
      </trkpt>
      <trkpt lat="48.02608" lon="3.32746">
        <ele>166.2</ele>
        <time>2018-09-29T10:09:22Z</time>
      </trkpt>
      <trkpt lat="48.02605" lon="3.32736">
        <ele>165.7</ele>
        <time>2018-09-29T10:09:29Z</time>
      </trkpt>
      <trkpt lat="48.02603" lon="3.32725">
        <ele>163.5</ele>
        <time>2018-09-29T10:09:36Z</time>
      </trkpt>
      <trkpt lat="48.02601" lon="3.32715">
        <ele>162.8</ele>
        <time>2018-09-29T10:09:43Z</time>
      </trkpt>
      <trkpt lat="48.02599" lon="3.32703">
        <ele>162.1</ele>
        <time>2018-09-29T10:09:50Z</time>
      </trkpt>
      <trkpt lat="48.02596" lon="3.32693">
        <ele>163.3</ele>
        <time>2018-09-29T10:09:56Z</time>
      </trkpt>
      <trkpt lat="48.02592" lon="3.32683">
        <ele>164.7</ele>
        <time>2018-09-29T10:10:02Z</time>
      </trkpt>
      <trkpt lat="48.02588" lon="3.32672">
        <ele>165.7</ele>
        <time>2018-09-29T10:10:08Z</time>
      </trkpt>
      <trkpt lat="48.02585" lon="3.32663">
        <ele>166.8</ele>
        <time>2018-09-29T10:10:14Z</time>
      </trkpt>
      <trkpt lat="48.02582" lon="3.32654">
        <ele>169.2</ele>
        <time>2018-09-29T10:10:21Z</time>
      </trkpt>
      <trkpt lat="48.02579" lon="3.32645">
        <ele>168.5</ele>
        <time>2018-09-29T10:10:28Z</time>
      </trkpt>
      <trkpt lat="48.02576" lon="3.32635">
        <ele>167.9</ele>
        <time>2018-09-29T10:10:35Z</time>
      </trkpt>
      <trkpt lat="48.02573" lon="3.32625">
        <ele>167.5</ele>
        <time>2018-09-29T10:10:41Z</time>
      </trkpt>
      <trkpt lat="48.02571" lon="3.32615">
        <ele>167</ele>
        <time>2018-09-29T10:10:48Z</time>
      </trkpt>
      <trkpt lat="48.02567" lon="3.32606">
        <ele>167.3</ele>
        <time>2018-09-29T10:10:54Z</time>
      </trkpt>
      <trkpt lat="48.02563" lon="3.32596">
        <ele>168.8</ele>
        <time>2018-09-29T10:11:01Z</time>
      </trkpt>
      <trkpt lat="48.02559" lon="3.32591">
        <ele>168.4</ele>
        <time>2018-09-29T10:11:08Z</time>
      </trkpt>
      <trkpt lat="48.02554" lon="3.32583">
        <ele>169.3</ele>
        <time>2018-09-29T10:11:15Z</time>
      </trkpt>
      <trkpt lat="48.02552" lon="3.32582">
        <ele>169.7</ele>
        <time>2018-09-29T10:11:22Z</time>
      </trkpt>
      <trkpt lat="48.02552" lon="3.32582">
        <ele>169.7</ele>
        <time>2018-09-29T10:11:25Z</time>
      </trkpt>
      <trkpt lat="48.02552" lon="3.32584">
        <ele>168.2</ele>
        <time>2018-09-29T10:11:49Z</time>
      </trkpt>
      <trkpt lat="48.02552" lon="3.32584">
        <ele>168.2</ele>
        <time>2018-09-29T10:11:50Z</time>
      </trkpt>
      <trkpt lat="48.02555" lon="3.32578">
        <ele>166.2</ele>
        <time>2018-09-29T10:12:47Z</time>
      </trkpt>
      <trkpt lat="48.02559" lon="3.32571">
        <ele>165.9</ele>
        <time>2018-09-29T10:12:54Z</time>
      </trkpt>
      <trkpt lat="48.02559" lon="3.32564">
        <ele>163.5</ele>
        <time>2018-09-29T10:13:01Z</time>
      </trkpt>
      <trkpt lat="48.0256" lon="3.32556">
        <ele>162.8</ele>
        <time>2018-09-29T10:13:08Z</time>
      </trkpt>
      <trkpt lat="48.02559" lon="3.32546">
        <ele>163.3</ele>
        <time>2018-09-29T10:13:15Z</time>
      </trkpt>
      <trkpt lat="48.02558" lon="3.32537">
        <ele>163.9</ele>
        <time>2018-09-29T10:13:22Z</time>
      </trkpt>
      <trkpt lat="48.02558" lon="3.32528">
        <ele>164.5</ele>
        <time>2018-09-29T10:13:29Z</time>
      </trkpt>
      <trkpt lat="48.02559" lon="3.32518">
        <ele>165.9</ele>
        <time>2018-09-29T10:13:36Z</time>
      </trkpt>
      <trkpt lat="48.02557" lon="3.32509">
        <ele>167.3</ele>
        <time>2018-09-29T10:13:43Z</time>
      </trkpt>
      <trkpt lat="48.02556" lon="3.32502">
        <ele>168.1</ele>
        <time>2018-09-29T10:13:50Z</time>
      </trkpt>
      <trkpt lat="48.02557" lon="3.32494">
        <ele>165.9</ele>
        <time>2018-09-29T10:13:57Z</time>
      </trkpt>
      <trkpt lat="48.02559" lon="3.32486">
        <ele>164.1</ele>
        <time>2018-09-29T10:14:04Z</time>
      </trkpt>
      <trkpt lat="48.02559" lon="3.32475">
        <ele>162.5</ele>
        <time>2018-09-29T10:14:11Z</time>
      </trkpt>
      <trkpt lat="48.02558" lon="3.32463">
        <ele>160.6</ele>
        <time>2018-09-29T10:14:18Z</time>
      </trkpt>
      <trkpt lat="48.02559" lon="3.32451">
        <ele>159.2</ele>
        <time>2018-09-29T10:14:25Z</time>
      </trkpt>
      <trkpt lat="48.0256" lon="3.3244">
        <ele>158.3</ele>
        <time>2018-09-29T10:14:32Z</time>
      </trkpt>
      <trkpt lat="48.02559" lon="3.3243">
        <ele>154.6</ele>
        <time>2018-09-29T10:14:39Z</time>
      </trkpt>
      <trkpt lat="48.02559" lon="3.32421">
        <ele>152.8</ele>
        <time>2018-09-29T10:14:46Z</time>
      </trkpt>
      <trkpt lat="48.02558" lon="3.32411">
        <ele>151.8</ele>
        <time>2018-09-29T10:14:53Z</time>
      </trkpt>
      <trkpt lat="48.02556" lon="3.324">
        <ele>153</ele>
        <time>2018-09-29T10:14:59Z</time>
      </trkpt>
      <trkpt lat="48.02555" lon="3.32389">
        <ele>152.8</ele>
        <time>2018-09-29T10:15:06Z</time>
      </trkpt>
      <trkpt lat="48.02552" lon="3.32378">
        <ele>153</ele>
        <time>2018-09-29T10:15:13Z</time>
      </trkpt>
      <trkpt lat="48.02551" lon="3.32368">
        <ele>154.6</ele>
        <time>2018-09-29T10:15:20Z</time>
      </trkpt>
      <trkpt lat="48.02546" lon="3.32358">
        <ele>153.4</ele>
        <time>2018-09-29T10:15:27Z</time>
      </trkpt>
      <trkpt lat="48.02543" lon="3.32348">
        <ele>152.9</ele>
        <time>2018-09-29T10:15:34Z</time>
      </trkpt>
      <trkpt lat="48.02542" lon="3.32337">
        <ele>153.4</ele>
        <time>2018-09-29T10:15:40Z</time>
      </trkpt>
      <trkpt lat="48.02539" lon="3.32326">
        <ele>151.9</ele>
        <time>2018-09-29T10:15:47Z</time>
      </trkpt>
      <trkpt lat="48.02538" lon="3.32317">
        <ele>150.5</ele>
        <time>2018-09-29T10:15:54Z</time>
      </trkpt>
      <trkpt lat="48.02535" lon="3.32305">
        <ele>150.6</ele>
        <time>2018-09-29T10:16:00Z</time>
      </trkpt>
      <trkpt lat="48.02531" lon="3.32298">
        <ele>149.9</ele>
        <time>2018-09-29T10:16:07Z</time>
      </trkpt>
      <trkpt lat="48.02528" lon="3.32291">
        <ele>147.4</ele>
        <time>2018-09-29T10:16:14Z</time>
      </trkpt>
      <trkpt lat="48.02524" lon="3.32281">
        <ele>145.6</ele>
        <time>2018-09-29T10:16:20Z</time>
      </trkpt>
      <trkpt lat="48.0252" lon="3.32271">
        <ele>145.8</ele>
        <time>2018-09-29T10:16:27Z</time>
      </trkpt>
      <trkpt lat="48.02517" lon="3.32261">
        <ele>145.7</ele>
        <time>2018-09-29T10:16:33Z</time>
      </trkpt>
      <trkpt lat="48.02515" lon="3.32251">
        <ele>146</ele>
        <time>2018-09-29T10:16:38Z</time>
      </trkpt>
      <trkpt lat="48.02512" lon="3.3224">
        <ele>146.1</ele>
        <time>2018-09-29T10:16:44Z</time>
      </trkpt>
      <trkpt lat="48.0251" lon="3.32229">
        <ele>146.6</ele>
        <time>2018-09-29T10:16:51Z</time>
      </trkpt>
      <trkpt lat="48.02509" lon="3.32222">
        <ele>147.8</ele>
        <time>2018-09-29T10:16:58Z</time>
      </trkpt>
      <trkpt lat="48.02508" lon="3.32211">
        <ele>147.3</ele>
        <time>2018-09-29T10:17:05Z</time>
      </trkpt>
      <trkpt lat="48.02504" lon="3.32199">
        <ele>147.9</ele>
        <time>2018-09-29T10:17:11Z</time>
      </trkpt>
      <trkpt lat="48.02501" lon="3.32188">
        <ele>147.8</ele>
        <time>2018-09-29T10:17:17Z</time>
      </trkpt>
      <trkpt lat="48.02499" lon="3.32178">
        <ele>148</ele>
        <time>2018-09-29T10:17:24Z</time>
      </trkpt>
      <trkpt lat="48.02497" lon="3.32168">
        <ele>147.5</ele>
        <time>2018-09-29T10:17:31Z</time>
      </trkpt>
      <trkpt lat="48.02497" lon="3.32156">
        <ele>146.4</ele>
        <time>2018-09-29T10:17:38Z</time>
      </trkpt>
      <trkpt lat="48.02496" lon="3.32144">
        <ele>143.1</ele>
        <time>2018-09-29T10:17:45Z</time>
      </trkpt>
      <trkpt lat="48.02494" lon="3.32134">
        <ele>140.6</ele>
        <time>2018-09-29T10:17:52Z</time>
      </trkpt>
      <trkpt lat="48.02491" lon="3.32123">
        <ele>138.9</ele>
        <time>2018-09-29T10:17:58Z</time>
      </trkpt>
      <trkpt lat="48.02491" lon="3.32114">
        <ele>138.1</ele>
        <time>2018-09-29T10:18:05Z</time>
      </trkpt>
      <trkpt lat="48.02492" lon="3.32103">
        <ele>137.5</ele>
        <time>2018-09-29T10:18:12Z</time>
      </trkpt>
      <trkpt lat="48.02491" lon="3.32092">
        <ele>135.6</ele>
        <time>2018-09-29T10:18:19Z</time>
      </trkpt>
      <trkpt lat="48.0249" lon="3.32082">
        <ele>133.4</ele>
        <time>2018-09-29T10:18:26Z</time>
      </trkpt>
      <trkpt lat="48.02487" lon="3.32072">
        <ele>131.4</ele>
        <time>2018-09-29T10:18:33Z</time>
      </trkpt>
      <trkpt lat="48.02485" lon="3.32061">
        <ele>131.8</ele>
        <time>2018-09-29T10:18:38Z</time>
      </trkpt>
      <trkpt lat="48.02488" lon="3.32053">
        <ele>129.9</ele>
        <time>2018-09-29T10:18:45Z</time>
      </trkpt>
      <trkpt lat="48.02491" lon="3.32046">
        <ele>128.2</ele>
        <time>2018-09-29T10:18:52Z</time>
      </trkpt>
      <trkpt lat="48.02494" lon="3.32039">
        <ele>126.9</ele>
        <time>2018-09-29T10:18:59Z</time>
      </trkpt>
      <trkpt lat="48.02494" lon="3.32031">
        <ele>127.2</ele>
        <time>2018-09-29T10:19:06Z</time>
      </trkpt>
      <trkpt lat="48.02496" lon="3.32022">
        <ele>125.7</ele>
        <time>2018-09-29T10:19:13Z</time>
      </trkpt>
      <trkpt lat="48.02498" lon="3.32013">
        <ele>123</ele>
        <time>2018-09-29T10:19:20Z</time>
      </trkpt>
      <trkpt lat="48.02499" lon="3.32004">
        <ele>121.3</ele>
        <time>2018-09-29T10:19:27Z</time>
      </trkpt>
      <trkpt lat="48.02498" lon="3.31993">
        <ele>119.6</ele>
        <time>2018-09-29T10:19:34Z</time>
      </trkpt>
      <trkpt lat="48.02496" lon="3.31986">
        <ele>116.9</ele>
        <time>2018-09-29T10:19:41Z</time>
      </trkpt>
      <trkpt lat="48.02495" lon="3.31975">
        <ele>114.9</ele>
        <time>2018-09-29T10:19:48Z</time>
      </trkpt>
      <trkpt lat="48.02497" lon="3.31968">
        <ele>113.6</ele>
        <time>2018-09-29T10:19:55Z</time>
      </trkpt>
      <trkpt lat="48.02498" lon="3.31962">
        <ele>109.7</ele>
        <time>2018-09-29T10:20:02Z</time>
      </trkpt>
      <trkpt lat="48.02501" lon="3.31955">
        <ele>106.7</ele>
        <time>2018-09-29T10:20:09Z</time>
      </trkpt>
      <trkpt lat="48.02505" lon="3.3195">
        <ele>106</ele>
        <time>2018-09-29T10:20:16Z</time>
      </trkpt>
      <trkpt lat="48.02508" lon="3.31945">
        <ele>104.6</ele>
        <time>2018-09-29T10:20:23Z</time>
      </trkpt>
      <trkpt lat="48.02512" lon="3.31939">
        <ele>101.8</ele>
        <time>2018-09-29T10:20:30Z</time>
      </trkpt>
      <trkpt lat="48.02517" lon="3.31932">
        <ele>98.3</ele>
        <time>2018-09-29T10:20:37Z</time>
      </trkpt>
      <trkpt lat="48.0252" lon="3.31925">
        <ele>95.7</ele>
        <time>2018-09-29T10:20:44Z</time>
      </trkpt>
      <trkpt lat="48.02525" lon="3.3192">
        <ele>95.9</ele>
        <time>2018-09-29T10:20:51Z</time>
      </trkpt>
      <trkpt lat="48.0253" lon="3.31912">
        <ele>93.9</ele>
        <time>2018-09-29T10:20:58Z</time>
      </trkpt>
      <trkpt lat="48.02533" lon="3.31908">
        <ele>93.5</ele>
        <time>2018-09-29T10:21:05Z</time>
      </trkpt>
      <trkpt lat="48.02537" lon="3.319">
        <ele>90.9</ele>
        <time>2018-09-29T10:21:12Z</time>
      </trkpt>
      <trkpt lat="48.02542" lon="3.31895">
        <ele>90.2</ele>
        <time>2018-09-29T10:21:19Z</time>
      </trkpt>
      <trkpt lat="48.02545" lon="3.31889">
        <ele>88.5</ele>
        <time>2018-09-29T10:21:26Z</time>
      </trkpt>
      <trkpt lat="48.0255" lon="3.31881">
        <ele>85.3</ele>
        <time>2018-09-29T10:21:33Z</time>
      </trkpt>
      <trkpt lat="48.02555" lon="3.31872">
        <ele>83</ele>
        <time>2018-09-29T10:21:40Z</time>
      </trkpt>
      <trkpt lat="48.0256" lon="3.31865">
        <ele>81.7</ele>
        <time>2018-09-29T10:21:47Z</time>
      </trkpt>
      <trkpt lat="48.02566" lon="3.31858">
        <ele>80.6</ele>
        <time>2018-09-29T10:21:54Z</time>
      </trkpt>
      <trkpt lat="48.0257" lon="3.3185">
        <ele>79.2</ele>
        <time>2018-09-29T10:22:01Z</time>
      </trkpt>
      <trkpt lat="48.02576" lon="3.31845">
        <ele>78</ele>
        <time>2018-09-29T10:22:08Z</time>
      </trkpt>
      <trkpt lat="48.02578" lon="3.31845">
        <ele>77.3</ele>
        <time>2018-09-29T10:22:15Z</time>
      </trkpt>
      <trkpt lat="48.02578" lon="3.31845">
        <ele>77.3</ele>
        <time>2018-09-29T10:22:18Z</time>
      </trkpt>
      <trkpt lat="48.02576" lon="3.31843">
        <ele>76.2</ele>
        <time>2018-09-29T10:22:46Z</time>
      </trkpt>
      <trkpt lat="48.02576" lon="3.31843">
        <ele>76.2</ele>
        <time>2018-09-29T10:22:47Z</time>
      </trkpt>
      <trkpt lat="48.02576" lon="3.31846">
        <ele>81.6</ele>
        <time>2018-09-29T10:24:58Z</time>
      </trkpt>
      <trkpt lat="48.02576" lon="3.31846">
        <ele>81.6</ele>
        <time>2018-09-29T10:24:59Z</time>
      </trkpt>
      <trkpt lat="48.02575" lon="3.31847">
        <ele>82.6</ele>
        <time>2018-09-29T10:26:11Z</time>
      </trkpt>
      <trkpt lat="48.02575" lon="3.31847">
        <ele>82.6</ele>
        <time>2018-09-29T10:26:12Z</time>
      </trkpt>
      <trkpt lat="48.02576" lon="3.31845">
        <ele>83</ele>
        <time>2018-09-29T10:26:21Z</time>
      </trkpt>
      <trkpt lat="48.02576" lon="3.31845">
        <ele>83</ele>
        <time>2018-09-29T10:26:22Z</time>
      </trkpt>
      <trkpt lat="48.0258" lon="3.3184">
        <ele>82.3</ele>
        <time>2018-09-29T10:26:52Z</time>
      </trkpt>
      <trkpt lat="48.02584" lon="3.31835">
        <ele>83</ele>
        <time>2018-09-29T10:26:59Z</time>
      </trkpt>
      <trkpt lat="48.02587" lon="3.3183">
        <ele>83</ele>
        <time>2018-09-29T10:27:06Z</time>
      </trkpt>
      <trkpt lat="48.0259" lon="3.31826">
        <ele>82.4</ele>
        <time>2018-09-29T10:27:13Z</time>
      </trkpt>
      <trkpt lat="48.0259" lon="3.31824">
        <ele>82.4</ele>
        <time>2018-09-29T10:27:20Z</time>
      </trkpt>
      <trkpt lat="48.02594" lon="3.31816">
        <ele>80.3</ele>
        <time>2018-09-29T10:27:27Z</time>
      </trkpt>
      <trkpt lat="48.02598" lon="3.3181">
        <ele>79.2</ele>
        <time>2018-09-29T10:27:34Z</time>
      </trkpt>
      <trkpt lat="48.02603" lon="3.31803">
        <ele>78.7</ele>
        <time>2018-09-29T10:27:41Z</time>
      </trkpt>
      <trkpt lat="48.02608" lon="3.31796">
        <ele>78.4</ele>
        <time>2018-09-29T10:27:48Z</time>
      </trkpt>
      <trkpt lat="48.02613" lon="3.3179">
        <ele>78.4</ele>
        <time>2018-09-29T10:27:55Z</time>
      </trkpt>
      <trkpt lat="48.02618" lon="3.31783">
        <ele>78.2</ele>
        <time>2018-09-29T10:28:02Z</time>
      </trkpt>
      <trkpt lat="48.02623" lon="3.31775">
        <ele>79.7</ele>
        <time>2018-09-29T10:28:09Z</time>
      </trkpt>
      <trkpt lat="48.02626" lon="3.31767">
        <ele>78.8</ele>
        <time>2018-09-29T10:28:16Z</time>
      </trkpt>
      <trkpt lat="48.02631" lon="3.31759">
        <ele>79.1</ele>
        <time>2018-09-29T10:28:23Z</time>
      </trkpt>
      <trkpt lat="48.02636" lon="3.31749">
        <ele>78.2</ele>
        <time>2018-09-29T10:28:29Z</time>
      </trkpt>
      <trkpt lat="48.02642" lon="3.31744">
        <ele>77.6</ele>
        <time>2018-09-29T10:28:36Z</time>
      </trkpt>
      <trkpt lat="48.02642" lon="3.31744">
        <ele>76.8</ele>
        <time>2018-09-29T10:28:43Z</time>
      </trkpt>
      <trkpt lat="48.02645" lon="3.31735">
        <ele>75.4</ele>
        <time>2018-09-29T10:28:56Z</time>
      </trkpt>
      <trkpt lat="48.02648" lon="3.31729">
        <ele>73.5</ele>
        <time>2018-09-29T10:29:03Z</time>
      </trkpt>
      <trkpt lat="48.02652" lon="3.31725">
        <ele>72.2</ele>
        <time>2018-09-29T10:29:10Z</time>
      </trkpt>
      <trkpt lat="48.02656" lon="3.31718">
        <ele>72.6</ele>
        <time>2018-09-29T10:29:17Z</time>
      </trkpt>
      <trkpt lat="48.02661" lon="3.31709">
        <ele>71.7</ele>
        <time>2018-09-29T10:29:24Z</time>
      </trkpt>
      <trkpt lat="48.02665" lon="3.317">
        <ele>71.6</ele>
        <time>2018-09-29T10:29:31Z</time>
      </trkpt>
      <trkpt lat="48.0267" lon="3.31691">
        <ele>70.8</ele>
        <time>2018-09-29T10:29:38Z</time>
      </trkpt>
      <trkpt lat="48.02673" lon="3.31684">
        <ele>70.2</ele>
        <time>2018-09-29T10:29:45Z</time>
      </trkpt>
      <trkpt lat="48.02675" lon="3.31684">
        <ele>70.5</ele>
        <time>2018-09-29T10:29:52Z</time>
      </trkpt>
      <trkpt lat="48.02675" lon="3.31684">
        <ele>70.5</ele>
        <time>2018-09-29T10:29:55Z</time>
      </trkpt>
      <trkpt lat="48.02681" lon="3.31676">
        <ele>69.4</ele>
        <time>2018-09-29T10:30:35Z</time>
      </trkpt>
      <trkpt lat="48.02682" lon="3.31675">
        <ele>68.8</ele>
        <time>2018-09-29T10:30:42Z</time>
      </trkpt>
      <trkpt lat="48.02682" lon="3.31675">
        <ele>68.8</ele>
        <time>2018-09-29T10:30:44Z</time>
      </trkpt>
      <trkpt lat="48.0268" lon="3.31669">
        <ele>69.5</ele>
        <time>2018-09-29T10:31:13Z</time>
      </trkpt>
      <trkpt lat="48.02675" lon="3.31663">
        <ele>68.3</ele>
        <time>2018-09-29T10:31:20Z</time>
      </trkpt>
      <trkpt lat="48.02671" lon="3.31657">
        <ele>67.3</ele>
        <time>2018-09-29T10:31:27Z</time>
      </trkpt>
      <trkpt lat="48.02667" lon="3.31653">
        <ele>68</ele>
        <time>2018-09-29T10:31:34Z</time>
      </trkpt>
      <trkpt lat="48.02662" lon="3.31647">
        <ele>68.5</ele>
        <time>2018-09-29T10:31:41Z</time>
      </trkpt>
      <trkpt lat="48.02658" lon="3.31642">
        <ele>68.5</ele>
        <time>2018-09-29T10:31:48Z</time>
      </trkpt>
      <trkpt lat="48.02653" lon="3.31637">
        <ele>67.5</ele>
        <time>2018-09-29T10:31:55Z</time>
      </trkpt>
      <trkpt lat="48.02648" lon="3.31629">
        <ele>66.7</ele>
        <time>2018-09-29T10:32:02Z</time>
      </trkpt>
      <trkpt lat="48.02642" lon="3.31623">
        <ele>68.5</ele>
        <time>2018-09-29T10:32:09Z</time>
      </trkpt>
      <trkpt lat="48.02638" lon="3.31618">
        <ele>67.1</ele>
        <time>2018-09-29T10:32:16Z</time>
      </trkpt>
      <trkpt lat="48.02633" lon="3.31612">
        <ele>65.2</ele>
        <time>2018-09-29T10:32:23Z</time>
      </trkpt>
      <trkpt lat="48.02628" lon="3.31604">
        <ele>63.9</ele>
        <time>2018-09-29T10:32:30Z</time>
      </trkpt>
      <trkpt lat="48.02622" lon="3.31598">
        <ele>64.8</ele>
        <time>2018-09-29T10:32:36Z</time>
      </trkpt>
      <trkpt lat="48.02617" lon="3.31589">
        <ele>64.2</ele>
        <time>2018-09-29T10:32:43Z</time>
      </trkpt>
      <trkpt lat="48.02611" lon="3.31583">
        <ele>65.5</ele>
        <time>2018-09-29T10:32:50Z</time>
      </trkpt>
      <trkpt lat="48.02604" lon="3.31578">
        <ele>67.8</ele>
        <time>2018-09-29T10:32:56Z</time>
      </trkpt>
      <trkpt lat="48.02598" lon="3.31571">
        <ele>68.2</ele>
        <time>2018-09-29T10:33:03Z</time>
      </trkpt>
      <trkpt lat="48.02596" lon="3.31565">
        <ele>70.7</ele>
        <time>2018-09-29T10:33:10Z</time>
      </trkpt>
      <trkpt lat="48.02599" lon="3.31556">
        <ele>72.7</ele>
        <time>2018-09-29T10:33:17Z</time>
      </trkpt>
      <trkpt lat="48.02602" lon="3.31547">
        <ele>73.6</ele>
        <time>2018-09-29T10:33:24Z</time>
      </trkpt>
      <trkpt lat="48.02605" lon="3.31538">
        <ele>72.6</ele>
        <time>2018-09-29T10:33:31Z</time>
      </trkpt>
      <trkpt lat="48.02608" lon="3.31528">
        <ele>72.1</ele>
        <time>2018-09-29T10:33:38Z</time>
      </trkpt>
      <trkpt lat="48.02608" lon="3.31522">
        <ele>73.8</ele>
        <time>2018-09-29T10:33:45Z</time>
      </trkpt>
      <trkpt lat="48.0261" lon="3.31512">
        <ele>72.9</ele>
        <time>2018-09-29T10:33:52Z</time>
      </trkpt>
      <trkpt lat="48.02615" lon="3.31504">
        <ele>72.3</ele>
        <time>2018-09-29T10:33:59Z</time>
      </trkpt>
      <trkpt lat="48.02618" lon="3.31493">
        <ele>71</ele>
        <time>2018-09-29T10:34:06Z</time>
      </trkpt>
      <trkpt lat="48.02622" lon="3.31484">
        <ele>70.7</ele>
        <time>2018-09-29T10:34:13Z</time>
      </trkpt>
      <trkpt lat="48.02624" lon="3.31478">
        <ele>69.8</ele>
        <time>2018-09-29T10:34:20Z</time>
      </trkpt>
      <trkpt lat="48.02624" lon="3.31478">
        <ele>69.8</ele>
        <time>2018-09-29T10:34:25Z</time>
      </trkpt>
      <trkpt lat="48.02626" lon="3.31468">
        <ele>70</ele>
        <time>2018-09-29T10:34:32Z</time>
      </trkpt>
      <trkpt lat="48.0263" lon="3.31457">
        <ele>69.8</ele>
        <time>2018-09-29T10:34:39Z</time>
      </trkpt>
      <trkpt lat="48.02633" lon="3.31447">
        <ele>70.3</ele>
        <time>2018-09-29T10:34:45Z</time>
      </trkpt>
      <trkpt lat="48.02638" lon="3.31437">
        <ele>70</ele>
        <time>2018-09-29T10:34:51Z</time>
      </trkpt>
      <trkpt lat="48.02641" lon="3.31427">
        <ele>69.2</ele>
        <time>2018-09-29T10:34:57Z</time>
      </trkpt>
      <trkpt lat="48.02645" lon="3.31417">
        <ele>68.8</ele>
        <time>2018-09-29T10:35:03Z</time>
      </trkpt>
      <trkpt lat="48.02649" lon="3.31407">
        <ele>68.8</ele>
        <time>2018-09-29T10:35:09Z</time>
      </trkpt>
      <trkpt lat="48.02654" lon="3.31397">
        <ele>69</ele>
        <time>2018-09-29T10:35:16Z</time>
      </trkpt>
      <trkpt lat="48.02657" lon="3.31387">
        <ele>70.2</ele>
        <time>2018-09-29T10:35:22Z</time>
      </trkpt>
      <trkpt lat="48.02662" lon="3.31378">
        <ele>71.2</ele>
        <time>2018-09-29T10:35:28Z</time>
      </trkpt>
      <trkpt lat="48.02667" lon="3.3137">
        <ele>71.4</ele>
        <time>2018-09-29T10:35:34Z</time>
      </trkpt>
      <trkpt lat="48.02671" lon="3.3136">
        <ele>70.9</ele>
        <time>2018-09-29T10:35:41Z</time>
      </trkpt>
      <trkpt lat="48.02676" lon="3.31351">
        <ele>71</ele>
        <time>2018-09-29T10:35:47Z</time>
      </trkpt>
      <trkpt lat="48.02679" lon="3.3134">
        <ele>71.4</ele>
        <time>2018-09-29T10:35:54Z</time>
      </trkpt>
      <trkpt lat="48.02676" lon="3.31329">
        <ele>71.9</ele>
        <time>2018-09-29T10:36:01Z</time>
      </trkpt>
      <trkpt lat="48.02671" lon="3.31321">
        <ele>71.1</ele>
        <time>2018-09-29T10:36:08Z</time>
      </trkpt>
      <trkpt lat="48.02667" lon="3.31313">
        <ele>70.1</ele>
        <time>2018-09-29T10:36:15Z</time>
      </trkpt>
      <trkpt lat="48.02661" lon="3.31304">
        <ele>69</ele>
        <time>2018-09-29T10:36:22Z</time>
      </trkpt>
      <trkpt lat="48.02656" lon="3.31296">
        <ele>69.2</ele>
        <time>2018-09-29T10:36:28Z</time>
      </trkpt>
      <trkpt lat="48.02651" lon="3.31288">
        <ele>68.8</ele>
        <time>2018-09-29T10:36:34Z</time>
      </trkpt>
      <trkpt lat="48.02646" lon="3.3128">
        <ele>68.6</ele>
        <time>2018-09-29T10:36:40Z</time>
      </trkpt>
      <trkpt lat="48.02641" lon="3.31273">
        <ele>68.5</ele>
        <time>2018-09-29T10:36:47Z</time>
      </trkpt>
      <trkpt lat="48.02637" lon="3.31264">
        <ele>68.9</ele>
        <time>2018-09-29T10:36:54Z</time>
      </trkpt>
      <trkpt lat="48.02632" lon="3.31258">
        <ele>68.4</ele>
        <time>2018-09-29T10:37:01Z</time>
      </trkpt>
      <trkpt lat="48.02626" lon="3.31251">
        <ele>67</ele>
        <time>2018-09-29T10:37:08Z</time>
      </trkpt>
      <trkpt lat="48.0262" lon="3.31244">
        <ele>66.1</ele>
        <time>2018-09-29T10:37:15Z</time>
      </trkpt>
      <trkpt lat="48.02614" lon="3.31235">
        <ele>66.2</ele>
        <time>2018-09-29T10:37:22Z</time>
      </trkpt>
      <trkpt lat="48.02608" lon="3.31227">
        <ele>67.7</ele>
        <time>2018-09-29T10:37:28Z</time>
      </trkpt>
      <trkpt lat="48.02604" lon="3.31219">
        <ele>67.6</ele>
        <time>2018-09-29T10:37:34Z</time>
      </trkpt>
      <trkpt lat="48.02599" lon="3.3121">
        <ele>67.3</ele>
        <time>2018-09-29T10:37:40Z</time>
      </trkpt>
      <trkpt lat="48.02593" lon="3.31203">
        <ele>68</ele>
        <time>2018-09-29T10:37:47Z</time>
      </trkpt>
      <trkpt lat="48.02589" lon="3.31196">
        <ele>67.3</ele>
        <time>2018-09-29T10:37:54Z</time>
      </trkpt>
      <trkpt lat="48.02585" lon="3.31188">
        <ele>66</ele>
        <time>2018-09-29T10:38:01Z</time>
      </trkpt>
      <trkpt lat="48.02579" lon="3.3118">
        <ele>67.2</ele>
        <time>2018-09-29T10:38:08Z</time>
      </trkpt>
      <trkpt lat="48.02573" lon="3.31173">
        <ele>66.9</ele>
        <time>2018-09-29T10:38:14Z</time>
      </trkpt>
      <trkpt lat="48.02566" lon="3.31166">
        <ele>66.3</ele>
        <time>2018-09-29T10:38:21Z</time>
      </trkpt>
      <trkpt lat="48.0256" lon="3.31159">
        <ele>65.9</ele>
        <time>2018-09-29T10:38:27Z</time>
      </trkpt>
      <trkpt lat="48.02553" lon="3.31153">
        <ele>65.5</ele>
        <time>2018-09-29T10:38:34Z</time>
      </trkpt>
      <trkpt lat="48.02547" lon="3.31146">
        <ele>64.9</ele>
        <time>2018-09-29T10:38:40Z</time>
      </trkpt>
      <trkpt lat="48.02541" lon="3.31139">
        <ele>64.8</ele>
        <time>2018-09-29T10:38:46Z</time>
      </trkpt>
      <trkpt lat="48.02535" lon="3.31133">
        <ele>64.8</ele>
        <time>2018-09-29T10:38:52Z</time>
      </trkpt>
      <trkpt lat="48.02527" lon="3.31128">
        <ele>65.8</ele>
        <time>2018-09-29T10:38:59Z</time>
      </trkpt>
      <trkpt lat="48.02521" lon="3.31125">
        <ele>67</ele>
        <time>2018-09-29T10:39:06Z</time>
      </trkpt>
      <trkpt lat="48.02514" lon="3.31124">
        <ele>66.5</ele>
        <time>2018-09-29T10:39:12Z</time>
      </trkpt>
      <trkpt lat="48.02508" lon="3.31124">
        <ele>66.1</ele>
        <time>2018-09-29T10:39:19Z</time>
      </trkpt>
      <trkpt lat="48.025" lon="3.31123">
        <ele>64.5</ele>
        <time>2018-09-29T10:39:26Z</time>
      </trkpt>
      <trkpt lat="48.02492" lon="3.31123">
        <ele>66.2</ele>
        <time>2018-09-29T10:39:32Z</time>
      </trkpt>
      <trkpt lat="48.02485" lon="3.31123">
        <ele>67.1</ele>
        <time>2018-09-29T10:39:38Z</time>
      </trkpt>
      <trkpt lat="48.02478" lon="3.31124">
        <ele>65.5</ele>
        <time>2018-09-29T10:39:45Z</time>
      </trkpt>
      <trkpt lat="48.02471" lon="3.31127">
        <ele>65.8</ele>
        <time>2018-09-29T10:39:52Z</time>
      </trkpt>
      <trkpt lat="48.02463" lon="3.31126">
        <ele>66.6</ele>
        <time>2018-09-29T10:39:59Z</time>
      </trkpt>
      <trkpt lat="48.02456" lon="3.31125">
        <ele>66.5</ele>
        <time>2018-09-29T10:40:05Z</time>
      </trkpt>
      <trkpt lat="48.02448" lon="3.31123">
        <ele>66.7</ele>
        <time>2018-09-29T10:40:11Z</time>
      </trkpt>
      <trkpt lat="48.0244" lon="3.31123">
        <ele>67.5</ele>
        <time>2018-09-29T10:40:17Z</time>
      </trkpt>
      <trkpt lat="48.02433" lon="3.31123">
        <ele>67.5</ele>
        <time>2018-09-29T10:40:24Z</time>
      </trkpt>
      <trkpt lat="48.02425" lon="3.31122">
        <ele>67.6</ele>
        <time>2018-09-29T10:40:30Z</time>
      </trkpt>
      <trkpt lat="48.02418" lon="3.31122">
        <ele>65.5</ele>
        <time>2018-09-29T10:40:37Z</time>
      </trkpt>
      <trkpt lat="48.0241" lon="3.31121">
        <ele>65.5</ele>
        <time>2018-09-29T10:40:44Z</time>
      </trkpt>
      <trkpt lat="48.02402" lon="3.3112">
        <ele>66.4</ele>
        <time>2018-09-29T10:40:51Z</time>
      </trkpt>
      <trkpt lat="48.02393" lon="3.31119">
        <ele>66.4</ele>
        <time>2018-09-29T10:40:57Z</time>
      </trkpt>
      <trkpt lat="48.0035" lon="3.32457">
        <ele>70.3</ele>
        <time>2018-09-29T12:08:45Z</time>
      </trkpt>
      <trkpt lat="48.00343" lon="3.3246">
        <ele>70.1</ele>
        <time>2018-09-29T12:08:52Z</time>
      </trkpt>
      <trkpt lat="48.00336" lon="3.32466">
        <ele>68.7</ele>
        <time>2018-09-29T12:08:59Z</time>
      </trkpt>
      <trkpt lat="48.00332" lon="3.32475">
        <ele>69.1</ele>
        <time>2018-09-29T12:09:06Z</time>
      </trkpt>
      <trkpt lat="48.00329" lon="3.32484">
        <ele>69.1</ele>
        <time>2018-09-29T12:09:13Z</time>
      </trkpt>
      <trkpt lat="48.00326" lon="3.3249">
        <ele>68.8</ele>
        <time>2018-09-29T12:09:20Z</time>
      </trkpt>
      <trkpt lat="48.00326" lon="3.3249">
        <ele>68.7</ele>
        <time>2018-09-29T12:09:25Z</time>
      </trkpt>
      <trkpt lat="48.00332" lon="3.32493">
        <ele>70.8</ele>
        <time>2018-09-29T12:10:54Z</time>
      </trkpt>
      <trkpt lat="48.00335" lon="3.32495">
        <ele>70.6</ele>
        <time>2018-09-29T12:11:01Z</time>
      </trkpt>
      <trkpt lat="48.00335" lon="3.32495">
        <ele>70.5</ele>
        <time>2018-09-29T12:11:05Z</time>
      </trkpt>
      <trkpt lat="48.0033" lon="3.32504">
        <ele>68</ele>
        <time>2018-09-29T12:12:37Z</time>
      </trkpt>
      <trkpt lat="48.0033" lon="3.32505">
        <ele>67.5</ele>
        <time>2018-09-29T12:12:44Z</time>
      </trkpt>
      <trkpt lat="48.00332" lon="3.32511">
        <ele>69.2</ele>
        <time>2018-09-29T12:13:13Z</time>
      </trkpt>
      <trkpt lat="48.00332" lon="3.32512">
        <ele>69.1</ele>
        <time>2018-09-29T12:13:17Z</time>
      </trkpt>
      <trkpt lat="48.00332" lon="3.32519">
        <ele>74.6</ele>
        <time>2018-09-29T12:13:25Z</time>
      </trkpt>
      <trkpt lat="48.00332" lon="3.32519">
        <ele>74.4</ele>
        <time>2018-09-29T12:13:28Z</time>
      </trkpt>
      <trkpt lat="48.0033" lon="3.3251">
        <ele>85.2</ele>
        <time>2018-09-29T12:14:43Z</time>
      </trkpt>
      <trkpt lat="48.0033" lon="3.32511">
        <ele>84.6</ele>
        <time>2018-09-29T12:14:50Z</time>
      </trkpt>
      <trkpt lat="48.0033" lon="3.32511">
        <ele>84.6</ele>
        <time>2018-09-29T12:14:51Z</time>
      </trkpt>
      <trkpt lat="48.00334" lon="3.32518">
        <ele>86.2</ele>
        <time>2018-09-29T12:15:00Z</time>
      </trkpt>
      <trkpt lat="48.00336" lon="3.32525">
        <ele>84.8</ele>
        <time>2018-09-29T12:15:07Z</time>
      </trkpt>
      <trkpt lat="48.00336" lon="3.3253">
        <ele>82.8</ele>
        <time>2018-09-29T12:15:14Z</time>
      </trkpt>
      <trkpt lat="48.00337" lon="3.32529">
        <ele>81.4</ele>
        <time>2018-09-29T12:15:21Z</time>
      </trkpt>
      <trkpt lat="48.00337" lon="3.32529">
        <ele>81.4</ele>
        <time>2018-09-29T12:15:24Z</time>
      </trkpt>
      <trkpt lat="48.00335" lon="3.32532">
        <ele>80.6</ele>
        <time>2018-09-29T12:16:04Z</time>
      </trkpt>
      <trkpt lat="48.00335" lon="3.32532">
        <ele>80.6</ele>
        <time>2018-09-29T12:16:05Z</time>
      </trkpt>
      <trkpt lat="48.00339" lon="3.32541">
        <ele>81.9</ele>
        <time>2018-09-29T12:16:57Z</time>
      </trkpt>
      <trkpt lat="48.00343" lon="3.32552">
        <ele>80.6</ele>
        <time>2018-09-29T12:17:04Z</time>
      </trkpt>
      <trkpt lat="48.00346" lon="3.32563">
        <ele>79.6</ele>
        <time>2018-09-29T12:17:11Z</time>
      </trkpt>
      <trkpt lat="48.00349" lon="3.32572">
        <ele>78.4</ele>
        <time>2018-09-29T12:17:18Z</time>
      </trkpt>
      <trkpt lat="48.00352" lon="3.32583">
        <ele>76.8</ele>
        <time>2018-09-29T12:17:25Z</time>
      </trkpt>
      <trkpt lat="48.00354" lon="3.32594">
        <ele>74.8</ele>
        <time>2018-09-29T12:17:32Z</time>
      </trkpt>
      <trkpt lat="48.00358" lon="3.32605">
        <ele>73.5</ele>
        <time>2018-09-29T12:17:39Z</time>
      </trkpt>
      <trkpt lat="48.00361" lon="3.32616">
        <ele>72.1</ele>
        <time>2018-09-29T12:17:46Z</time>
      </trkpt>
      <trkpt lat="48.00364" lon="3.32626">
        <ele>70.8</ele>
        <time>2018-09-29T12:17:53Z</time>
      </trkpt>
      <trkpt lat="48.00365" lon="3.32637">
        <ele>71</ele>
        <time>2018-09-29T12:18:00Z</time>
      </trkpt>
      <trkpt lat="48.00366" lon="3.32643">
        <ele>70.4</ele>
        <time>2018-09-29T12:18:07Z</time>
      </trkpt>
      <trkpt lat="48.00368" lon="3.32646">
        <ele>69.7</ele>
        <time>2018-09-29T12:18:14Z</time>
      </trkpt>
      <trkpt lat="48.00371" lon="3.32656">
        <ele>68.9</ele>
        <time>2018-09-29T12:18:21Z</time>
      </trkpt>
      <trkpt lat="48.00375" lon="3.32665">
        <ele>68.9</ele>
        <time>2018-09-29T12:18:28Z</time>
      </trkpt>
      <trkpt lat="48.00375" lon="3.32673">
        <ele>68.9</ele>
        <time>2018-09-29T12:18:35Z</time>
      </trkpt>
      <trkpt lat="48.00377" lon="3.3268">
        <ele>68.8</ele>
        <time>2018-09-29T12:18:42Z</time>
      </trkpt>
      <trkpt lat="48.00379" lon="3.32688">
        <ele>68.9</ele>
        <time>2018-09-29T12:18:49Z</time>
      </trkpt>
      <trkpt lat="48.0038" lon="3.32698">
        <ele>69.2</ele>
        <time>2018-09-29T12:18:56Z</time>
      </trkpt>
      <trkpt lat="48.00382" lon="3.32708">
        <ele>70</ele>
        <time>2018-09-29T12:19:03Z</time>
      </trkpt>
      <trkpt lat="48.00383" lon="3.32717">
        <ele>69.3</ele>
        <time>2018-09-29T12:19:10Z</time>
      </trkpt>
      <trkpt lat="48.00386" lon="3.32726">
        <ele>69.3</ele>
        <time>2018-09-29T12:19:17Z</time>
      </trkpt>
      <trkpt lat="48.00389" lon="3.32736">
        <ele>68.6</ele>
        <time>2018-09-29T12:19:24Z</time>
      </trkpt>
      <trkpt lat="48.00391" lon="3.32747">
        <ele>68.3</ele>
        <time>2018-09-29T12:19:30Z</time>
      </trkpt>
      <trkpt lat="48.00393" lon="3.32759">
        <ele>69.4</ele>
        <time>2018-09-29T12:19:36Z</time>
      </trkpt>
      <trkpt lat="48.00394" lon="3.32771">
        <ele>69.3</ele>
        <time>2018-09-29T12:19:43Z</time>
      </trkpt>
      <trkpt lat="48.00397" lon="3.32781">
        <ele>68.9</ele>
        <time>2018-09-29T12:19:50Z</time>
      </trkpt>
      <trkpt lat="48.00399" lon="3.32792">
        <ele>67.7</ele>
        <time>2018-09-29T12:19:57Z</time>
      </trkpt>
      <trkpt lat="48.00402" lon="3.32804">
        <ele>66.5</ele>
        <time>2018-09-29T12:20:04Z</time>
      </trkpt>
      <trkpt lat="48.00404" lon="3.32815">
        <ele>66.4</ele>
        <time>2018-09-29T12:20:10Z</time>
      </trkpt>
      <trkpt lat="48.00405" lon="3.32827">
        <ele>66</ele>
        <time>2018-09-29T12:20:16Z</time>
      </trkpt>
      <trkpt lat="48.00406" lon="3.32838">
        <ele>67.7</ele>
        <time>2018-09-29T12:20:22Z</time>
      </trkpt>
      <trkpt lat="48.00408" lon="3.32849">
        <ele>67.8</ele>
        <time>2018-09-29T12:20:29Z</time>
      </trkpt>
      <trkpt lat="48.0041" lon="3.3286">
        <ele>67.2</ele>
        <time>2018-09-29T12:20:36Z</time>
      </trkpt>
      <trkpt lat="48.00411" lon="3.32867">
        <ele>67.2</ele>
        <time>2018-09-29T12:20:43Z</time>
      </trkpt>
      <trkpt lat="48.00412" lon="3.32878">
        <ele>66.9</ele>
        <time>2018-09-29T12:20:50Z</time>
      </trkpt>
      <trkpt lat="48.00415" lon="3.32889">
        <ele>66.6</ele>
        <time>2018-09-29T12:20:57Z</time>
      </trkpt>
      <trkpt lat="48.00417" lon="3.32901">
        <ele>67.6</ele>
        <time>2018-09-29T12:21:03Z</time>
      </trkpt>
      <trkpt lat="48.00419" lon="3.32913">
        <ele>67.6</ele>
        <time>2018-09-29T12:21:10Z</time>
      </trkpt>
      <trkpt lat="48.00421" lon="3.32925">
        <ele>67.6</ele>
        <time>2018-09-29T12:21:17Z</time>
      </trkpt>
      <trkpt lat="48.00423" lon="3.32937">
        <ele>68</ele>
        <time>2018-09-29T12:21:23Z</time>
      </trkpt>
      <trkpt lat="48.00425" lon="3.32947">
        <ele>67.9</ele>
        <time>2018-09-29T12:21:29Z</time>
      </trkpt>
      <trkpt lat="48.00429" lon="3.32957">
        <ele>67.3</ele>
        <time>2018-09-29T12:21:36Z</time>
      </trkpt>
      <trkpt lat="48.0043" lon="3.32969">
        <ele>67.6</ele>
        <time>2018-09-29T12:21:43Z</time>
      </trkpt>
      <trkpt lat="48.0043" lon="3.32978">
        <ele>67.1</ele>
        <time>2018-09-29T12:21:50Z</time>
      </trkpt>
      <trkpt lat="48.0043" lon="3.32977">
        <ele>66.9</ele>
        <time>2018-09-29T12:21:57Z</time>
      </trkpt>
      <trkpt lat="48.0043" lon="3.3299">
        <ele>67.4</ele>
        <time>2018-09-29T12:22:05Z</time>
      </trkpt>
      <trkpt lat="48.00432" lon="3.33001">
        <ele>67.7</ele>
        <time>2018-09-29T12:22:11Z</time>
      </trkpt>
      <trkpt lat="48.00433" lon="3.33012">
        <ele>67.7</ele>
        <time>2018-09-29T12:22:17Z</time>
      </trkpt>
      <trkpt lat="48.00434" lon="3.33024">
        <ele>67.5</ele>
        <time>2018-09-29T12:22:24Z</time>
      </trkpt>
      <trkpt lat="48.00435" lon="3.33036">
        <ele>66.5</ele>
        <time>2018-09-29T12:22:31Z</time>
      </trkpt>
      <trkpt lat="48.00437" lon="3.33047">
        <ele>66.9</ele>
        <time>2018-09-29T12:22:37Z</time>
      </trkpt>
      <trkpt lat="48.00438" lon="3.33058">
        <ele>66.9</ele>
        <time>2018-09-29T12:22:43Z</time>
      </trkpt>
      <trkpt lat="48.00439" lon="3.33069">
        <ele>66.8</ele>
        <time>2018-09-29T12:22:49Z</time>
      </trkpt>
      <trkpt lat="48.00439" lon="3.3308">
        <ele>68.4</ele>
        <time>2018-09-29T12:22:55Z</time>
      </trkpt>
      <trkpt lat="48.00439" lon="3.33091">
        <ele>67.7</ele>
        <time>2018-09-29T12:23:02Z</time>
      </trkpt>
      <trkpt lat="48.00441" lon="3.33098">
        <ele>67.5</ele>
        <time>2018-09-29T12:23:09Z</time>
      </trkpt>
      <trkpt lat="48.00442" lon="3.33098">
        <ele>67.6</ele>
        <time>2018-09-29T12:23:14Z</time>
      </trkpt>
      <trkpt lat="48.00442" lon="3.33101">
        <ele>68</ele>
        <time>2018-09-29T12:23:31Z</time>
      </trkpt>
      <trkpt lat="48.00442" lon="3.33101">
        <ele>68</ele>
        <time>2018-09-29T12:23:34Z</time>
      </trkpt>
      <trkpt lat="48.00442" lon="3.33113">
        <ele>69.1</ele>
        <time>2018-09-29T12:23:44Z</time>
      </trkpt>
      <trkpt lat="48.00441" lon="3.33124">
        <ele>69</ele>
        <time>2018-09-29T12:23:50Z</time>
      </trkpt>
      <trkpt lat="48.0044" lon="3.33136">
        <ele>69.7</ele>
        <time>2018-09-29T12:23:57Z</time>
      </trkpt>
      <trkpt lat="48.00438" lon="3.33147">
        <ele>70.1</ele>
        <time>2018-09-29T12:24:04Z</time>
      </trkpt>
      <trkpt lat="48.00437" lon="3.33159">
        <ele>69.4</ele>
        <time>2018-09-29T12:24:10Z</time>
      </trkpt>
      <trkpt lat="48.00436" lon="3.33171">
        <ele>69.3</ele>
        <time>2018-09-29T12:24:17Z</time>
      </trkpt>
      <trkpt lat="48.00436" lon="3.33181">
        <ele>70.2</ele>
        <time>2018-09-29T12:24:24Z</time>
      </trkpt>
      <trkpt lat="48.00434" lon="3.33192">
        <ele>70.1</ele>
        <time>2018-09-29T12:24:31Z</time>
      </trkpt>
      <trkpt lat="48.00433" lon="3.33201">
        <ele>69.4</ele>
        <time>2018-09-29T12:24:38Z</time>
      </trkpt>
      <trkpt lat="48.00432" lon="3.33212">
        <ele>70</ele>
        <time>2018-09-29T12:24:45Z</time>
      </trkpt>
      <trkpt lat="48.00431" lon="3.33222">
        <ele>68.9</ele>
        <time>2018-09-29T12:24:52Z</time>
      </trkpt>
      <trkpt lat="48.0043" lon="3.33231">
        <ele>69.1</ele>
        <time>2018-09-29T12:24:59Z</time>
      </trkpt>
      <trkpt lat="48.00429" lon="3.3324">
        <ele>69.6</ele>
        <time>2018-09-29T12:25:06Z</time>
      </trkpt>
      <trkpt lat="48.00428" lon="3.33252">
        <ele>69.3</ele>
        <time>2018-09-29T12:25:13Z</time>
      </trkpt>
      <trkpt lat="48.00425" lon="3.33261">
        <ele>70.6</ele>
        <time>2018-09-29T12:25:20Z</time>
      </trkpt>
      <trkpt lat="48.00424" lon="3.33273">
        <ele>72.2</ele>
        <time>2018-09-29T12:25:27Z</time>
      </trkpt>
      <trkpt lat="48.00422" lon="3.33285">
        <ele>72</ele>
        <time>2018-09-29T12:25:34Z</time>
      </trkpt>
      <trkpt lat="48.0042" lon="3.33296">
        <ele>71.8</ele>
        <time>2018-09-29T12:25:41Z</time>
      </trkpt>
      <trkpt lat="48.00419" lon="3.33309">
        <ele>73.1</ele>
        <time>2018-09-29T12:25:48Z</time>
      </trkpt>
      <trkpt lat="48.00416" lon="3.3332">
        <ele>72</ele>
        <time>2018-09-29T12:25:54Z</time>
      </trkpt>
      <trkpt lat="48.00415" lon="3.33333">
        <ele>71.5</ele>
        <time>2018-09-29T12:26:01Z</time>
      </trkpt>
      <trkpt lat="48.00412" lon="3.33344">
        <ele>72.1</ele>
        <time>2018-09-29T12:26:08Z</time>
      </trkpt>
      <trkpt lat="48.00409" lon="3.33355">
        <ele>73.6</ele>
        <time>2018-09-29T12:26:14Z</time>
      </trkpt>
      <trkpt lat="48.00406" lon="3.33367">
        <ele>72.8</ele>
        <time>2018-09-29T12:26:20Z</time>
      </trkpt>
      <trkpt lat="48.00404" lon="3.33378">
        <ele>71.8</ele>
        <time>2018-09-29T12:26:27Z</time>
      </trkpt>
      <trkpt lat="48.00403" lon="3.33388">
        <ele>71.1</ele>
        <time>2018-09-29T12:26:33Z</time>
      </trkpt>
      <trkpt lat="48.00401" lon="3.334">
        <ele>70.5</ele>
        <time>2018-09-29T12:26:39Z</time>
      </trkpt>
      <trkpt lat="48.00399" lon="3.33412">
        <ele>69.5</ele>
        <time>2018-09-29T12:26:45Z</time>
      </trkpt>
      <trkpt lat="48.00397" lon="3.33422">
        <ele>69.8</ele>
        <time>2018-09-29T12:26:52Z</time>
      </trkpt>
      <trkpt lat="48.00394" lon="3.33432">
        <ele>70.2</ele>
        <time>2018-09-29T12:26:58Z</time>
      </trkpt>
      <trkpt lat="48.0039" lon="3.33444">
        <ele>70.8</ele>
        <time>2018-09-29T12:27:04Z</time>
      </trkpt>
      <trkpt lat="48.00389" lon="3.33456">
        <ele>70.6</ele>
        <time>2018-09-29T12:27:10Z</time>
      </trkpt>
      <trkpt lat="48.00385" lon="3.33467">
        <ele>70.9</ele>
        <time>2018-09-29T12:27:17Z</time>
      </trkpt>
      <trkpt lat="48.00381" lon="3.33476">
        <ele>72.4</ele>
        <time>2018-09-29T12:27:23Z</time>
      </trkpt>
      <trkpt lat="48.00378" lon="3.33486">
        <ele>72.4</ele>
        <time>2018-09-29T12:27:29Z</time>
      </trkpt>
      <trkpt lat="48.00375" lon="3.33496">
        <ele>71.9</ele>
        <time>2018-09-29T12:27:36Z</time>
      </trkpt>
      <trkpt lat="48.00373" lon="3.33506">
        <ele>70.9</ele>
        <time>2018-09-29T12:27:43Z</time>
      </trkpt>
      <trkpt lat="48.00371" lon="3.33518">
        <ele>69.9</ele>
        <time>2018-09-29T12:27:49Z</time>
      </trkpt>
      <trkpt lat="48.00368" lon="3.33529">
        <ele>71.6</ele>
        <time>2018-09-29T12:27:55Z</time>
      </trkpt>
      <trkpt lat="48.00367" lon="3.33539">
        <ele>72.3</ele>
        <time>2018-09-29T12:28:01Z</time>
      </trkpt>
      <trkpt lat="48.00364" lon="3.33551">
        <ele>73.7</ele>
        <time>2018-09-29T12:28:08Z</time>
      </trkpt>
      <trkpt lat="48.00363" lon="3.33563">
        <ele>73.4</ele>
        <time>2018-09-29T12:28:14Z</time>
      </trkpt>
      <trkpt lat="48.0036" lon="3.33575">
        <ele>74.5</ele>
        <time>2018-09-29T12:28:20Z</time>
      </trkpt>
      <trkpt lat="48.00358" lon="3.33587">
        <ele>73.5</ele>
        <time>2018-09-29T12:28:27Z</time>
      </trkpt>
      <trkpt lat="48.00356" lon="3.33596">
        <ele>72.9</ele>
        <time>2018-09-29T12:28:33Z</time>
      </trkpt>
      <trkpt lat="48.00354" lon="3.33607">
        <ele>72.1</ele>
        <time>2018-09-29T12:28:39Z</time>
      </trkpt>
      <trkpt lat="48.00353" lon="3.33619">
        <ele>70.8</ele>
        <time>2018-09-29T12:28:46Z</time>
      </trkpt>
      <trkpt lat="48.00351" lon="3.3363">
        <ele>70.9</ele>
        <time>2018-09-29T12:28:52Z</time>
      </trkpt>
      <trkpt lat="48.00349" lon="3.33641">
        <ele>70.5</ele>
        <time>2018-09-29T12:28:58Z</time>
      </trkpt>
      <trkpt lat="48.00347" lon="3.33651">
        <ele>70.2</ele>
        <time>2018-09-29T12:29:05Z</time>
      </trkpt>
      <trkpt lat="48.00345" lon="3.33663">
        <ele>70.3</ele>
        <time>2018-09-29T12:29:12Z</time>
      </trkpt>
      <trkpt lat="48.00343" lon="3.33674">
        <ele>71.3</ele>
        <time>2018-09-29T12:29:18Z</time>
      </trkpt>
      <trkpt lat="48.00341" lon="3.33685">
        <ele>70.5</ele>
        <time>2018-09-29T12:29:23Z</time>
      </trkpt>
      <trkpt lat="48.00337" lon="3.33696">
        <ele>70.7</ele>
        <time>2018-09-29T12:29:29Z</time>
      </trkpt>
      <trkpt lat="48.00335" lon="3.33707">
        <ele>71.8</ele>
        <time>2018-09-29T12:29:35Z</time>
      </trkpt>
      <trkpt lat="48.00331" lon="3.33718">
        <ele>72.4</ele>
        <time>2018-09-29T12:29:41Z</time>
      </trkpt>
      <trkpt lat="48.00329" lon="3.33729">
        <ele>73.5</ele>
        <time>2018-09-29T12:29:47Z</time>
      </trkpt>
      <trkpt lat="48.00326" lon="3.33739">
        <ele>73.2</ele>
        <time>2018-09-29T12:29:53Z</time>
      </trkpt>
      <trkpt lat="48.00322" lon="3.33749">
        <ele>74.2</ele>
        <time>2018-09-29T12:29:59Z</time>
      </trkpt>
      <trkpt lat="48.00319" lon="3.3376">
        <ele>74.3</ele>
        <time>2018-09-29T12:30:05Z</time>
      </trkpt>
      <trkpt lat="48.00316" lon="3.33769">
        <ele>74.1</ele>
        <time>2018-09-29T12:30:11Z</time>
      </trkpt>
      <trkpt lat="48.00311" lon="3.33779">
        <ele>75.2</ele>
        <time>2018-09-29T12:30:17Z</time>
      </trkpt>
      <trkpt lat="48.00309" lon="3.3379">
        <ele>74.7</ele>
        <time>2018-09-29T12:30:23Z</time>
      </trkpt>
      <trkpt lat="48.00307" lon="3.33802">
        <ele>74.1</ele>
        <time>2018-09-29T12:30:30Z</time>
      </trkpt>
      <trkpt lat="48.00305" lon="3.33813">
        <ele>72.9</ele>
        <time>2018-09-29T12:30:36Z</time>
      </trkpt>
      <trkpt lat="48.00304" lon="3.33824">
        <ele>71.9</ele>
        <time>2018-09-29T12:30:42Z</time>
      </trkpt>
      <trkpt lat="48.00301" lon="3.33834">
        <ele>72</ele>
        <time>2018-09-29T12:30:48Z</time>
      </trkpt>
      <trkpt lat="48.00298" lon="3.33845">
        <ele>71.2</ele>
        <time>2018-09-29T12:30:55Z</time>
      </trkpt>
      <trkpt lat="48.00295" lon="3.33857">
        <ele>71.4</ele>
        <time>2018-09-29T12:31:02Z</time>
      </trkpt>
      <trkpt lat="48.0029" lon="3.33866">
        <ele>72</ele>
        <time>2018-09-29T12:31:09Z</time>
      </trkpt>
      <trkpt lat="48.00288" lon="3.33877">
        <ele>71.2</ele>
        <time>2018-09-29T12:31:15Z</time>
      </trkpt>
      <trkpt lat="48.00284" lon="3.33888">
        <ele>71.6</ele>
        <time>2018-09-29T12:31:22Z</time>
      </trkpt>
      <trkpt lat="48.00279" lon="3.33897">
        <ele>71.5</ele>
        <time>2018-09-29T12:31:29Z</time>
      </trkpt>
      <trkpt lat="48.00275" lon="3.33908">
        <ele>70</ele>
        <time>2018-09-29T12:31:35Z</time>
      </trkpt>
      <trkpt lat="48.00271" lon="3.33917">
        <ele>70.5</ele>
        <time>2018-09-29T12:31:41Z</time>
      </trkpt>
      <trkpt lat="48.00266" lon="3.33927">
        <ele>71</ele>
        <time>2018-09-29T12:31:47Z</time>
      </trkpt>
      <trkpt lat="48.00261" lon="3.33936">
        <ele>70.1</ele>
        <time>2018-09-29T12:31:53Z</time>
      </trkpt>
      <trkpt lat="48.00256" lon="3.33945">
        <ele>70.1</ele>
        <time>2018-09-29T12:31:59Z</time>
      </trkpt>
      <trkpt lat="48.00251" lon="3.33954">
        <ele>70.5</ele>
        <time>2018-09-29T12:32:05Z</time>
      </trkpt>
      <trkpt lat="48.00246" lon="3.33963">
        <ele>70.9</ele>
        <time>2018-09-29T12:32:11Z</time>
      </trkpt>
      <trkpt lat="48.00241" lon="3.33972">
        <ele>71</ele>
        <time>2018-09-29T12:32:18Z</time>
      </trkpt>
      <trkpt lat="48.00236" lon="3.3398">
        <ele>70.5</ele>
        <time>2018-09-29T12:32:24Z</time>
      </trkpt>
      <trkpt lat="48.00231" lon="3.33989">
        <ele>70.8</ele>
        <time>2018-09-29T12:32:30Z</time>
      </trkpt>
      <trkpt lat="48.00226" lon="3.33998">
        <ele>70.7</ele>
        <time>2018-09-29T12:32:36Z</time>
      </trkpt>
      <trkpt lat="48.00221" lon="3.34007">
        <ele>71.2</ele>
        <time>2018-09-29T12:32:42Z</time>
      </trkpt>
      <trkpt lat="48.00216" lon="3.34017">
        <ele>69.5</ele>
        <time>2018-09-29T12:32:48Z</time>
      </trkpt>
      <trkpt lat="48.00211" lon="3.34025">
        <ele>68.6</ele>
        <time>2018-09-29T12:32:54Z</time>
      </trkpt>
      <trkpt lat="48.00206" lon="3.34033">
        <ele>68.9</ele>
        <time>2018-09-29T12:33:00Z</time>
      </trkpt>
      <trkpt lat="48.002" lon="3.3404">
        <ele>68.9</ele>
        <time>2018-09-29T12:33:06Z</time>
      </trkpt>
      <trkpt lat="48.00195" lon="3.34046">
        <ele>70.7</ele>
        <time>2018-09-29T12:33:13Z</time>
      </trkpt>
      <trkpt lat="48.00189" lon="3.34053">
        <ele>71</ele>
        <time>2018-09-29T12:33:19Z</time>
      </trkpt>
      <trkpt lat="48.00183" lon="3.34059">
        <ele>70.9</ele>
        <time>2018-09-29T12:33:26Z</time>
      </trkpt>
      <trkpt lat="48.00177" lon="3.34066">
        <ele>70.6</ele>
        <time>2018-09-29T12:33:32Z</time>
      </trkpt>
      <trkpt lat="48.00171" lon="3.34073">
        <ele>69.8</ele>
        <time>2018-09-29T12:33:38Z</time>
      </trkpt>
      <trkpt lat="48.00164" lon="3.3408">
        <ele>69</ele>
        <time>2018-09-29T12:33:44Z</time>
      </trkpt>
      <trkpt lat="48.00158" lon="3.34087">
        <ele>67.9</ele>
        <time>2018-09-29T12:33:51Z</time>
      </trkpt>
      <trkpt lat="48.00152" lon="3.34094">
        <ele>67.8</ele>
        <time>2018-09-29T12:33:57Z</time>
      </trkpt>
      <trkpt lat="48.00146" lon="3.34102">
        <ele>68</ele>
        <time>2018-09-29T12:34:03Z</time>
      </trkpt>
      <trkpt lat="48.0014" lon="3.34109">
        <ele>67.1</ele>
        <time>2018-09-29T12:34:09Z</time>
      </trkpt>
      <trkpt lat="48.00135" lon="3.34117">
        <ele>66.5</ele>
        <time>2018-09-29T12:34:15Z</time>
      </trkpt>
      <trkpt lat="48.00129" lon="3.34124">
        <ele>65.9</ele>
        <time>2018-09-29T12:34:21Z</time>
      </trkpt>
      <trkpt lat="48.00124" lon="3.34129">
        <ele>65.8</ele>
        <time>2018-09-29T12:34:28Z</time>
      </trkpt>
      <trkpt lat="48.00118" lon="3.34138">
        <ele>66.3</ele>
        <time>2018-09-29T12:34:35Z</time>
      </trkpt>
      <trkpt lat="48.00112" lon="3.34144">
        <ele>66.6</ele>
        <time>2018-09-29T12:34:41Z</time>
      </trkpt>
      <trkpt lat="48.00105" lon="3.34151">
        <ele>66.4</ele>
        <time>2018-09-29T12:34:48Z</time>
      </trkpt>
      <trkpt lat="48.00099" lon="3.34157">
        <ele>66.6</ele>
        <time>2018-09-29T12:34:54Z</time>
      </trkpt>
      <trkpt lat="48.00092" lon="3.34163">
        <ele>67.2</ele>
        <time>2018-09-29T12:35:00Z</time>
      </trkpt>
      <trkpt lat="48.00085" lon="3.3417">
        <ele>67.9</ele>
        <time>2018-09-29T12:35:07Z</time>
      </trkpt>
      <trkpt lat="48.00078" lon="3.34175">
        <ele>67.6</ele>
        <time>2018-09-29T12:35:14Z</time>
      </trkpt>
      <trkpt lat="48.00072" lon="3.3418">
        <ele>67.4</ele>
        <time>2018-09-29T12:35:21Z</time>
      </trkpt>
      <trkpt lat="48.00065" lon="3.34186">
        <ele>67.5</ele>
        <time>2018-09-29T12:35:27Z</time>
      </trkpt>
      <trkpt lat="48.00059" lon="3.34192">
        <ele>67.6</ele>
        <time>2018-09-29T12:35:33Z</time>
      </trkpt>
      <trkpt lat="48.00052" lon="3.34198">
        <ele>67.4</ele>
        <time>2018-09-29T12:35:39Z</time>
      </trkpt>
      <trkpt lat="48.00045" lon="3.34205">
        <ele>67.3</ele>
        <time>2018-09-29T12:35:46Z</time>
      </trkpt>
      <trkpt lat="48.00037" lon="3.3421">
        <ele>67</ele>
        <time>2018-09-29T12:35:52Z</time>
      </trkpt>
      <trkpt lat="48.0003" lon="3.34217">
        <ele>67.1</ele>
        <time>2018-09-29T12:35:58Z</time>
      </trkpt>
      <trkpt lat="48.00024" lon="3.34223">
        <ele>67.4</ele>
        <time>2018-09-29T12:36:04Z</time>
      </trkpt>
      <trkpt lat="48.00018" lon="3.34229">
        <ele>66.5</ele>
        <time>2018-09-29T12:36:10Z</time>
      </trkpt>
      <trkpt lat="48.00011" lon="3.34236">
        <ele>67.1</ele>
        <time>2018-09-29T12:36:16Z</time>
      </trkpt>
      <trkpt lat="48.00005" lon="3.34242">
        <ele>67.6</ele>
        <time>2018-09-29T12:36:22Z</time>
      </trkpt>
      <trkpt lat="47.99999" lon="3.34248">
        <ele>67.8</ele>
        <time>2018-09-29T12:36:28Z</time>
      </trkpt>
      <trkpt lat="47.99993" lon="3.34254">
        <ele>68.4</ele>
        <time>2018-09-29T12:36:34Z</time>
      </trkpt>
      <trkpt lat="47.99987" lon="3.3426">
        <ele>67.1</ele>
        <time>2018-09-29T12:36:40Z</time>
      </trkpt>
      <trkpt lat="47.9998" lon="3.34266">
        <ele>66.7</ele>
        <time>2018-09-29T12:36:46Z</time>
      </trkpt>
      <trkpt lat="47.99973" lon="3.3427">
        <ele>67.5</ele>
        <time>2018-09-29T12:36:52Z</time>
      </trkpt>
      <trkpt lat="47.99966" lon="3.34276">
        <ele>67.2</ele>
        <time>2018-09-29T12:36:58Z</time>
      </trkpt>
      <trkpt lat="47.99961" lon="3.34284">
        <ele>66.3</ele>
        <time>2018-09-29T12:37:04Z</time>
      </trkpt>
      <trkpt lat="47.9996" lon="3.34286">
        <ele>66.1</ele>
        <time>2018-09-29T12:37:11Z</time>
      </trkpt>
      <trkpt lat="47.9996" lon="3.34286">
        <ele>66.1</ele>
        <time>2018-09-29T12:37:13Z</time>
      </trkpt>
      <trkpt lat="47.99961" lon="3.34286">
        <ele>63.4</ele>
        <time>2018-09-29T12:37:39Z</time>
      </trkpt>
      <trkpt lat="47.99961" lon="3.34286">
        <ele>63.4</ele>
        <time>2018-09-29T12:37:40Z</time>
      </trkpt>
      <trkpt lat="47.99958" lon="3.34287">
        <ele>63</ele>
        <time>2018-09-29T12:37:51Z</time>
      </trkpt>
      <trkpt lat="47.99954" lon="3.34291">
        <ele>62.6</ele>
        <time>2018-09-29T12:37:58Z</time>
      </trkpt>
      <trkpt lat="47.99951" lon="3.34295">
        <ele>63.6</ele>
        <time>2018-09-29T12:38:05Z</time>
      </trkpt>
      <trkpt lat="47.99945" lon="3.34301">
        <ele>64.2</ele>
        <time>2018-09-29T12:38:12Z</time>
      </trkpt>
      <trkpt lat="47.99937" lon="3.34305">
        <ele>64.9</ele>
        <time>2018-09-29T12:38:19Z</time>
      </trkpt>
      <trkpt lat="47.99931" lon="3.34311">
        <ele>65.5</ele>
        <time>2018-09-29T12:38:26Z</time>
      </trkpt>
      <trkpt lat="47.99924" lon="3.34318">
        <ele>65.4</ele>
        <time>2018-09-29T12:38:32Z</time>
      </trkpt>
      <trkpt lat="47.99917" lon="3.34324">
        <ele>65.3</ele>
        <time>2018-09-29T12:38:40Z</time>
      </trkpt>
      <trkpt lat="47.99911" lon="3.3433">
        <ele>66.1</ele>
        <time>2018-09-29T12:38:47Z</time>
      </trkpt>
      <trkpt lat="47.99904" lon="3.34337">
        <ele>66.4</ele>
        <time>2018-09-29T12:38:54Z</time>
      </trkpt>
      <trkpt lat="47.99897" lon="3.34344">
        <ele>66</ele>
        <time>2018-09-29T12:39:00Z</time>
      </trkpt>
      <trkpt lat="47.9989" lon="3.34348">
        <ele>65.7</ele>
        <time>2018-09-29T12:39:07Z</time>
      </trkpt>
      <trkpt lat="47.99883" lon="3.34355">
        <ele>66.1</ele>
        <time>2018-09-29T12:39:13Z</time>
      </trkpt>
      <trkpt lat="47.99877" lon="3.34362">
        <ele>65.9</ele>
        <time>2018-09-29T12:39:20Z</time>
      </trkpt>
      <trkpt lat="47.99872" lon="3.34371">
        <ele>66.7</ele>
        <time>2018-09-29T12:39:27Z</time>
      </trkpt>
      <trkpt lat="47.99867" lon="3.34379">
        <ele>66.3</ele>
        <time>2018-09-29T12:39:34Z</time>
      </trkpt>
      <trkpt lat="47.99862" lon="3.34386">
        <ele>65.4</ele>
        <time>2018-09-29T12:39:40Z</time>
      </trkpt>
      <trkpt lat="47.99856" lon="3.34394">
        <ele>64.6</ele>
        <time>2018-09-29T12:39:47Z</time>
      </trkpt>
      <trkpt lat="47.9985" lon="3.34401">
        <ele>63.9</ele>
        <time>2018-09-29T12:39:53Z</time>
      </trkpt>
      <trkpt lat="47.99845" lon="3.3441">
        <ele>63.9</ele>
        <time>2018-09-29T12:40:00Z</time>
      </trkpt>
      <trkpt lat="47.99841" lon="3.34421">
        <ele>63.9</ele>
        <time>2018-09-29T12:40:06Z</time>
      </trkpt>
      <trkpt lat="47.99836" lon="3.34429">
        <ele>65</ele>
        <time>2018-09-29T12:40:13Z</time>
      </trkpt>
      <trkpt lat="47.99836" lon="3.34439">
        <ele>63.9</ele>
        <time>2018-09-29T12:40:20Z</time>
      </trkpt>
      <trkpt lat="47.99835" lon="3.34444">
        <ele>64</ele>
        <time>2018-09-29T12:40:27Z</time>
      </trkpt>
      <trkpt lat="47.99835" lon="3.34444">
        <ele>64</ele>
        <time>2018-09-29T12:40:30Z</time>
      </trkpt>
      <trkpt lat="47.99837" lon="3.3444">
        <ele>62.3</ele>
        <time>2018-09-29T12:40:42Z</time>
      </trkpt>
      <trkpt lat="47.99841" lon="3.34438">
        <ele>61.7</ele>
        <time>2018-09-29T12:40:49Z</time>
      </trkpt>
      <trkpt lat="47.99841" lon="3.34438">
        <ele>61.9</ele>
        <time>2018-09-29T12:40:54Z</time>
      </trkpt>
      <trkpt lat="47.9984" lon="3.34437">
        <ele>62.4</ele>
        <time>2018-09-29T12:42:20Z</time>
      </trkpt>
      <trkpt lat="47.9984" lon="3.34437">
        <ele>62.4</ele>
        <time>2018-09-29T12:42:23Z</time>
      </trkpt>
      <trkpt lat="47.99839" lon="3.34432">
        <ele>62.4</ele>
        <time>2018-09-29T12:42:59Z</time>
      </trkpt>
      <trkpt lat="47.99839" lon="3.34432">
        <ele>62.4</ele>
        <time>2018-09-29T12:43:00Z</time>
      </trkpt>
      <trkpt lat="47.99839" lon="3.34432">
        <ele>62</ele>
        <time>2018-09-29T12:43:53Z</time>
      </trkpt>
      <trkpt lat="47.99839" lon="3.34432">
        <ele>62</ele>
        <time>2018-09-29T12:43:54Z</time>
      </trkpt>
      <trkpt lat="47.99834" lon="3.34441">
        <ele>62.6</ele>
        <time>2018-09-29T12:46:56Z</time>
      </trkpt>
      <trkpt lat="47.9983" lon="3.34448">
        <ele>62.8</ele>
        <time>2018-09-29T12:47:03Z</time>
      </trkpt>
      <trkpt lat="47.99827" lon="3.34457">
        <ele>63.1</ele>
        <time>2018-09-29T12:47:11Z</time>
      </trkpt>
      <trkpt lat="47.99823" lon="3.34466">
        <ele>63.6</ele>
        <time>2018-09-29T12:47:18Z</time>
      </trkpt>
      <trkpt lat="47.99819" lon="3.34475">
        <ele>63.9</ele>
        <time>2018-09-29T12:47:25Z</time>
      </trkpt>
      <trkpt lat="47.99815" lon="3.34485">
        <ele>64.5</ele>
        <time>2018-09-29T12:47:32Z</time>
      </trkpt>
      <trkpt lat="47.99812" lon="3.34494">
        <ele>66.4</ele>
        <time>2018-09-29T12:47:39Z</time>
      </trkpt>
      <trkpt lat="47.99809" lon="3.34503">
        <ele>68.6</ele>
        <time>2018-09-29T12:47:46Z</time>
      </trkpt>
      <trkpt lat="47.99806" lon="3.34514">
        <ele>67.7</ele>
        <time>2018-09-29T12:47:52Z</time>
      </trkpt>
      <trkpt lat="47.99803" lon="3.34524">
        <ele>68.3</ele>
        <time>2018-09-29T12:47:58Z</time>
      </trkpt>
      <trkpt lat="47.99801" lon="3.34527">
        <ele>68.4</ele>
        <time>2018-09-29T12:48:05Z</time>
      </trkpt>
      <trkpt lat="47.99801" lon="3.34527">
        <ele>68.4</ele>
        <time>2018-09-29T12:48:07Z</time>
      </trkpt>
      <trkpt lat="47.998" lon="3.34537">
        <ele>68.1</ele>
        <time>2018-09-29T12:48:21Z</time>
      </trkpt>
      <trkpt lat="47.99797" lon="3.34549">
        <ele>68.5</ele>
        <time>2018-09-29T12:48:28Z</time>
      </trkpt>
      <trkpt lat="47.99793" lon="3.34558">
        <ele>68</ele>
        <time>2018-09-29T12:48:34Z</time>
      </trkpt>
      <trkpt lat="47.9979" lon="3.34568">
        <ele>69.1</ele>
        <time>2018-09-29T12:48:40Z</time>
      </trkpt>
      <trkpt lat="47.99786" lon="3.34579">
        <ele>69.8</ele>
        <time>2018-09-29T12:48:46Z</time>
      </trkpt>
      <trkpt lat="47.99786" lon="3.34582">
        <ele>70.1</ele>
        <time>2018-09-29T12:48:53Z</time>
      </trkpt>
      <trkpt lat="47.99786" lon="3.34582">
        <ele>70.1</ele>
        <time>2018-09-29T12:48:55Z</time>
      </trkpt>
      <trkpt lat="47.99779" lon="3.34587">
        <ele>69.9</ele>
        <time>2018-09-29T12:49:02Z</time>
      </trkpt>
      <trkpt lat="47.99772" lon="3.34588">
        <ele>69.8</ele>
        <time>2018-09-29T12:49:09Z</time>
      </trkpt>
      <trkpt lat="47.99769" lon="3.34583">
        <ele>70.1</ele>
        <time>2018-09-29T12:49:16Z</time>
      </trkpt>
      <trkpt lat="47.99763" lon="3.34579">
        <ele>70.3</ele>
        <time>2018-09-29T12:49:23Z</time>
      </trkpt>
      <trkpt lat="47.99763" lon="3.34582">
        <ele>69.9</ele>
        <time>2018-09-29T12:49:30Z</time>
      </trkpt>
      <trkpt lat="47.99763" lon="3.34584">
        <ele>70.2</ele>
        <time>2018-09-29T12:49:37Z</time>
      </trkpt>
      <trkpt lat="47.99763" lon="3.34584">
        <ele>70.2</ele>
        <time>2018-09-29T12:49:38Z</time>
      </trkpt>
      <trkpt lat="47.99763" lon="3.34587">
        <ele>70</ele>
        <time>2018-09-29T12:49:52Z</time>
      </trkpt>
      <trkpt lat="47.99763" lon="3.34587">
        <ele>70</ele>
        <time>2018-09-29T12:49:53Z</time>
      </trkpt>
      <trkpt lat="47.99769" lon="3.34584">
        <ele>70.9</ele>
        <time>2018-09-29T12:50:44Z</time>
      </trkpt>
      <trkpt lat="47.99769" lon="3.34584">
        <ele>71.1</ele>
        <time>2018-09-29T12:50:51Z</time>
      </trkpt>
      <trkpt lat="47.99767" lon="3.34591">
        <ele>70.8</ele>
        <time>2018-09-29T12:51:21Z</time>
      </trkpt>
      <trkpt lat="47.99767" lon="3.34591">
        <ele>71</ele>
        <time>2018-09-29T12:51:28Z</time>
      </trkpt>
      <trkpt lat="47.99768" lon="3.34589">
        <ele>70.1</ele>
        <time>2018-09-29T12:52:25Z</time>
      </trkpt>
      <trkpt lat="47.99768" lon="3.34589">
        <ele>70.1</ele>
        <time>2018-09-29T12:52:26Z</time>
      </trkpt>
      <trkpt lat="47.9977" lon="3.34591">
        <ele>69.9</ele>
        <time>2018-09-29T12:53:25Z</time>
      </trkpt>
      <trkpt lat="47.9977" lon="3.34591">
        <ele>69.9</ele>
        <time>2018-09-29T12:53:26Z</time>
      </trkpt>
      <trkpt lat="47.99773" lon="3.34589">
        <ele>69.2</ele>
        <time>2018-09-29T12:54:18Z</time>
      </trkpt>
      <trkpt lat="47.99773" lon="3.34589">
        <ele>69.2</ele>
        <time>2018-09-29T12:54:23Z</time>
      </trkpt>
      <trkpt lat="47.99775" lon="3.34589">
        <ele>68</ele>
        <time>2018-09-29T12:54:40Z</time>
      </trkpt>
      <trkpt lat="47.99775" lon="3.34589">
        <ele>68</ele>
        <time>2018-09-29T12:54:42Z</time>
      </trkpt>
      <trkpt lat="47.99775" lon="3.3459">
        <ele>72.2</ele>
        <time>2018-09-29T12:55:27Z</time>
      </trkpt>
      <trkpt lat="47.99775" lon="3.3459">
        <ele>72.2</ele>
        <time>2018-09-29T12:55:31Z</time>
      </trkpt>
      <trkpt lat="47.99775" lon="3.34588">
        <ele>73.2</ele>
        <time>2018-09-29T12:56:05Z</time>
      </trkpt>
      <trkpt lat="47.99775" lon="3.34588">
        <ele>73.2</ele>
        <time>2018-09-29T12:56:06Z</time>
      </trkpt>
      <trkpt lat="47.99773" lon="3.34589">
        <ele>72.2</ele>
        <time>2018-09-29T12:56:31Z</time>
      </trkpt>
      <trkpt lat="47.99773" lon="3.34589">
        <ele>72.2</ele>
        <time>2018-09-29T12:56:32Z</time>
      </trkpt>
      <trkpt lat="47.99771" lon="3.34591">
        <ele>71.2</ele>
        <time>2018-09-29T12:57:10Z</time>
      </trkpt>
      <trkpt lat="47.99771" lon="3.34591">
        <ele>71.2</ele>
        <time>2018-09-29T12:57:13Z</time>
      </trkpt>
      <trkpt lat="47.99774" lon="3.34595">
        <ele>70.4</ele>
        <time>2018-09-29T12:59:18Z</time>
      </trkpt>
      <trkpt lat="47.99774" lon="3.34595">
        <ele>70.4</ele>
        <time>2018-09-29T12:59:25Z</time>
      </trkpt>
      <trkpt lat="47.99775" lon="3.34596">
        <ele>71.8</ele>
        <time>2018-09-29T13:00:49Z</time>
      </trkpt>
      <trkpt lat="47.99775" lon="3.34596">
        <ele>71.8</ele>
        <time>2018-09-29T13:00:50Z</time>
      </trkpt>
      <trkpt lat="47.9978" lon="3.34599">
        <ele>70.4</ele>
        <time>2018-09-29T13:01:05Z</time>
      </trkpt>
      <trkpt lat="47.99776" lon="3.34599">
        <ele>68.8</ele>
        <time>2018-09-29T13:01:12Z</time>
      </trkpt>
      <trkpt lat="47.99771" lon="3.34593">
        <ele>68.3</ele>
        <time>2018-09-29T13:01:19Z</time>
      </trkpt>
      <trkpt lat="47.9977" lon="3.34593">
        <ele>68.2</ele>
        <time>2018-09-29T13:01:26Z</time>
      </trkpt>
      <trkpt lat="47.9977" lon="3.34593">
        <ele>68.2</ele>
        <time>2018-09-29T13:01:27Z</time>
      </trkpt>
      <trkpt lat="47.9977" lon="3.34589">
        <ele>70.8</ele>
        <time>2018-09-29T13:02:54Z</time>
      </trkpt>
      <trkpt lat="47.9977" lon="3.34589">
        <ele>70.8</ele>
        <time>2018-09-29T13:02:55Z</time>
      </trkpt>
      <trkpt lat="47.9977" lon="3.34587">
        <ele>71.9</ele>
        <time>2018-09-29T13:03:12Z</time>
      </trkpt>
      <trkpt lat="47.9977" lon="3.34587">
        <ele>71.9</ele>
        <time>2018-09-29T13:03:13Z</time>
      </trkpt>
      <trkpt lat="47.99765" lon="3.34587">
        <ele>71.4</ele>
        <time>2018-09-29T13:04:18Z</time>
      </trkpt>
      <trkpt lat="47.99765" lon="3.34587">
        <ele>71.4</ele>
        <time>2018-09-29T13:04:19Z</time>
      </trkpt>
      <trkpt lat="47.99758" lon="3.34581">
        <ele>69.9</ele>
        <time>2018-09-29T13:04:26Z</time>
      </trkpt>
      <trkpt lat="47.99752" lon="3.34576">
        <ele>68.4</ele>
        <time>2018-09-29T13:04:33Z</time>
      </trkpt>
      <trkpt lat="47.99745" lon="3.34572">
        <ele>66.9</ele>
        <time>2018-09-29T13:04:40Z</time>
      </trkpt>
      <trkpt lat="47.99738" lon="3.34567">
        <ele>66.2</ele>
        <time>2018-09-29T13:04:47Z</time>
      </trkpt>
      <trkpt lat="47.99732" lon="3.34561">
        <ele>65.4</ele>
        <time>2018-09-29T13:04:53Z</time>
      </trkpt>
      <trkpt lat="47.99728" lon="3.34556">
        <ele>64.6</ele>
        <time>2018-09-29T13:05:00Z</time>
      </trkpt>
      <trkpt lat="47.99723" lon="3.34551">
        <ele>63.3</ele>
        <time>2018-09-29T13:05:07Z</time>
      </trkpt>
      <trkpt lat="47.99718" lon="3.34548">
        <ele>62.4</ele>
        <time>2018-09-29T13:05:14Z</time>
      </trkpt>
      <trkpt lat="47.99712" lon="3.34544">
        <ele>60.7</ele>
        <time>2018-09-29T13:05:21Z</time>
      </trkpt>
      <trkpt lat="47.99708" lon="3.3454">
        <ele>59.1</ele>
        <time>2018-09-29T13:05:28Z</time>
      </trkpt>
      <trkpt lat="47.99703" lon="3.34535">
        <ele>57.6</ele>
        <time>2018-09-29T13:05:35Z</time>
      </trkpt>
      <trkpt lat="47.99696" lon="3.34528">
        <ele>56.7</ele>
        <time>2018-09-29T13:05:42Z</time>
      </trkpt>
      <trkpt lat="47.99689" lon="3.34521">
        <ele>57.4</ele>
        <time>2018-09-29T13:05:49Z</time>
      </trkpt>
      <trkpt lat="47.99682" lon="3.34516">
        <ele>57</ele>
        <time>2018-09-29T13:05:55Z</time>
      </trkpt>
      <trkpt lat="47.99676" lon="3.3451">
        <ele>58.3</ele>
        <time>2018-09-29T13:06:01Z</time>
      </trkpt>
      <trkpt lat="47.99669" lon="3.34503">
        <ele>59.4</ele>
        <time>2018-09-29T13:06:07Z</time>
      </trkpt>
      <trkpt lat="47.99662" lon="3.34497">
        <ele>59.7</ele>
        <time>2018-09-29T13:06:13Z</time>
      </trkpt>
      <trkpt lat="47.99655" lon="3.34491">
        <ele>59.8</ele>
        <time>2018-09-29T13:06:19Z</time>
      </trkpt>
      <trkpt lat="47.99648" lon="3.34484">
        <ele>59.3</ele>
        <time>2018-09-29T13:06:26Z</time>
      </trkpt>
      <trkpt lat="47.9964" lon="3.34479">
        <ele>59.9</ele>
        <time>2018-09-29T13:06:32Z</time>
      </trkpt>
      <trkpt lat="47.99632" lon="3.34474">
        <ele>57.9</ele>
        <time>2018-09-29T13:06:38Z</time>
      </trkpt>
      <trkpt lat="47.99625" lon="3.34471">
        <ele>57.1</ele>
        <time>2018-09-29T13:06:44Z</time>
      </trkpt>
      <trkpt lat="47.99617" lon="3.34468">
        <ele>56.5</ele>
        <time>2018-09-29T13:06:50Z</time>
      </trkpt>
      <trkpt lat="47.99609" lon="3.34466">
        <ele>57.2</ele>
        <time>2018-09-29T13:06:56Z</time>
      </trkpt>
      <trkpt lat="47.99601" lon="3.34465">
        <ele>58.5</ele>
        <time>2018-09-29T13:07:02Z</time>
      </trkpt>
      <trkpt lat="47.99593" lon="3.34463">
        <ele>58.7</ele>
        <time>2018-09-29T13:07:08Z</time>
      </trkpt>
      <trkpt lat="47.99585" lon="3.34463">
        <ele>58.4</ele>
        <time>2018-09-29T13:07:14Z</time>
      </trkpt>
      <trkpt lat="47.99577" lon="3.34463">
        <ele>57.9</ele>
        <time>2018-09-29T13:07:20Z</time>
      </trkpt>
      <trkpt lat="47.99569" lon="3.34463">
        <ele>58.9</ele>
        <time>2018-09-29T13:07:26Z</time>
      </trkpt>
      <trkpt lat="47.99562" lon="3.34463">
        <ele>59.8</ele>
        <time>2018-09-29T13:07:33Z</time>
      </trkpt>
      <trkpt lat="47.99553" lon="3.34463">
        <ele>59.3</ele>
        <time>2018-09-29T13:07:40Z</time>
      </trkpt>
      <trkpt lat="47.99545" lon="3.34464">
        <ele>60.4</ele>
        <time>2018-09-29T13:07:46Z</time>
      </trkpt>
      <trkpt lat="47.99537" lon="3.34465">
        <ele>59.7</ele>
        <time>2018-09-29T13:07:52Z</time>
      </trkpt>
      <trkpt lat="47.9953" lon="3.34465">
        <ele>61.2</ele>
        <time>2018-09-29T13:07:58Z</time>
      </trkpt>
      <trkpt lat="47.99522" lon="3.34466">
        <ele>60.7</ele>
        <time>2018-09-29T13:08:05Z</time>
      </trkpt>
      <trkpt lat="47.99513" lon="3.34466">
        <ele>60.5</ele>
        <time>2018-09-29T13:08:12Z</time>
      </trkpt>
      <trkpt lat="47.99505" lon="3.34466">
        <ele>61.7</ele>
        <time>2018-09-29T13:08:19Z</time>
      </trkpt>
      <trkpt lat="47.99498" lon="3.34466">
        <ele>61.7</ele>
        <time>2018-09-29T13:08:25Z</time>
      </trkpt>
      <trkpt lat="47.9949" lon="3.34464">
        <ele>61.8</ele>
        <time>2018-09-29T13:08:31Z</time>
      </trkpt>
      <trkpt lat="47.99482" lon="3.34462">
        <ele>63.1</ele>
        <time>2018-09-29T13:08:37Z</time>
      </trkpt>
      <trkpt lat="47.99474" lon="3.34461">
        <ele>63.5</ele>
        <time>2018-09-29T13:08:43Z</time>
      </trkpt>
      <trkpt lat="47.99466" lon="3.3446">
        <ele>64</ele>
        <time>2018-09-29T13:08:49Z</time>
      </trkpt>
      <trkpt lat="47.99459" lon="3.34457">
        <ele>63.5</ele>
        <time>2018-09-29T13:08:55Z</time>
      </trkpt>
      <trkpt lat="47.99451" lon="3.34459">
        <ele>63.8</ele>
        <time>2018-09-29T13:09:01Z</time>
      </trkpt>
      <trkpt lat="47.99443" lon="3.34462">
        <ele>62.4</ele>
        <time>2018-09-29T13:09:08Z</time>
      </trkpt>
      <trkpt lat="47.99435" lon="3.34461">
        <ele>60.2</ele>
        <time>2018-09-29T13:09:15Z</time>
      </trkpt>
      <trkpt lat="47.99426" lon="3.3446">
        <ele>60</ele>
        <time>2018-09-29T13:09:22Z</time>
      </trkpt>
      <trkpt lat="47.99419" lon="3.34458">
        <ele>59.8</ele>
        <time>2018-09-29T13:09:28Z</time>
      </trkpt>
      <trkpt lat="47.99411" lon="3.34459">
        <ele>60.6</ele>
        <time>2018-09-29T13:09:35Z</time>
      </trkpt>
      <trkpt lat="47.99403" lon="3.34462">
        <ele>60.2</ele>
        <time>2018-09-29T13:09:42Z</time>
      </trkpt>
      <trkpt lat="47.99395" lon="3.34466">
        <ele>61.5</ele>
        <time>2018-09-29T13:09:48Z</time>
      </trkpt>
      <trkpt lat="47.99389" lon="3.34474">
        <ele>62.4</ele>
        <time>2018-09-29T13:09:54Z</time>
      </trkpt>
      <trkpt lat="47.99384" lon="3.34481">
        <ele>62.3</ele>
        <time>2018-09-29T13:10:00Z</time>
      </trkpt>
      <trkpt lat="47.9938" lon="3.34492">
        <ele>62.7</ele>
        <time>2018-09-29T13:10:06Z</time>
      </trkpt>
      <trkpt lat="47.99375" lon="3.34502">
        <ele>62.7</ele>
        <time>2018-09-29T13:10:12Z</time>
      </trkpt>
      <trkpt lat="47.9937" lon="3.34511">
        <ele>63.4</ele>
        <time>2018-09-29T13:10:18Z</time>
      </trkpt>
      <trkpt lat="47.99365" lon="3.34521">
        <ele>63.1</ele>
        <time>2018-09-29T13:10:24Z</time>
      </trkpt>
      <trkpt lat="47.9936" lon="3.3453">
        <ele>62.4</ele>
        <time>2018-09-29T13:10:30Z</time>
      </trkpt>
      <trkpt lat="47.99356" lon="3.3454">
        <ele>62.3</ele>
        <time>2018-09-29T13:10:36Z</time>
      </trkpt>
      <trkpt lat="47.99351" lon="3.34549">
        <ele>62.5</ele>
        <time>2018-09-29T13:10:42Z</time>
      </trkpt>
      <trkpt lat="47.99347" lon="3.34558">
        <ele>62.9</ele>
        <time>2018-09-29T13:10:48Z</time>
      </trkpt>
      <trkpt lat="47.99343" lon="3.34568">
        <ele>63.4</ele>
        <time>2018-09-29T13:10:54Z</time>
      </trkpt>
      <trkpt lat="47.99339" lon="3.34579">
        <ele>63.6</ele>
        <time>2018-09-29T13:11:00Z</time>
      </trkpt>
      <trkpt lat="47.99335" lon="3.3459">
        <ele>63.5</ele>
        <time>2018-09-29T13:11:06Z</time>
      </trkpt>
      <trkpt lat="47.9933" lon="3.346">
        <ele>62.9</ele>
        <time>2018-09-29T13:11:13Z</time>
      </trkpt>
      <trkpt lat="47.99325" lon="3.3461">
        <ele>63.5</ele>
        <time>2018-09-29T13:11:20Z</time>
      </trkpt>
      <trkpt lat="47.99321" lon="3.34619">
        <ele>62.2</ele>
        <time>2018-09-29T13:11:26Z</time>
      </trkpt>
      <trkpt lat="47.99316" lon="3.34628">
        <ele>62.1</ele>
        <time>2018-09-29T13:11:32Z</time>
      </trkpt>
      <trkpt lat="47.99312" lon="3.34636">
        <ele>61.9</ele>
        <time>2018-09-29T13:11:39Z</time>
      </trkpt>
      <trkpt lat="47.99308" lon="3.34646">
        <ele>61.9</ele>
        <time>2018-09-29T13:11:45Z</time>
      </trkpt>
      <trkpt lat="47.99303" lon="3.34655">
        <ele>60.4</ele>
        <time>2018-09-29T13:11:51Z</time>
      </trkpt>
      <trkpt lat="47.99299" lon="3.34664">
        <ele>59.5</ele>
        <time>2018-09-29T13:11:57Z</time>
      </trkpt>
      <trkpt lat="47.99294" lon="3.34673">
        <ele>59.5</ele>
        <time>2018-09-29T13:12:03Z</time>
      </trkpt>
      <trkpt lat="47.99291" lon="3.34683">
        <ele>59.7</ele>
        <time>2018-09-29T13:12:10Z</time>
      </trkpt>
      <trkpt lat="47.99286" lon="3.34692">
        <ele>59.1</ele>
        <time>2018-09-29T13:12:16Z</time>
      </trkpt>
      <trkpt lat="47.99281" lon="3.347">
        <ele>59.7</ele>
        <time>2018-09-29T13:12:22Z</time>
      </trkpt>
      <trkpt lat="47.99276" lon="3.34708">
        <ele>58.9</ele>
        <time>2018-09-29T13:12:28Z</time>
      </trkpt>
      <trkpt lat="47.99271" lon="3.34717">
        <ele>58.3</ele>
        <time>2018-09-29T13:12:34Z</time>
      </trkpt>
      <trkpt lat="47.99266" lon="3.34726">
        <ele>59.1</ele>
        <time>2018-09-29T13:12:40Z</time>
      </trkpt>
      <trkpt lat="47.99261" lon="3.34735">
        <ele>59.7</ele>
        <time>2018-09-29T13:12:46Z</time>
      </trkpt>
      <trkpt lat="47.99256" lon="3.34745">
        <ele>59.9</ele>
        <time>2018-09-29T13:12:53Z</time>
      </trkpt>
      <trkpt lat="47.9925" lon="3.34753">
        <ele>59.3</ele>
        <time>2018-09-29T13:12:59Z</time>
      </trkpt>
      <trkpt lat="47.99245" lon="3.34762">
        <ele>60.1</ele>
        <time>2018-09-29T13:13:05Z</time>
      </trkpt>
      <trkpt lat="47.99239" lon="3.3477">
        <ele>60.7</ele>
        <time>2018-09-29T13:13:11Z</time>
      </trkpt>
      <trkpt lat="47.99233" lon="3.34778">
        <ele>61.7</ele>
        <time>2018-09-29T13:13:17Z</time>
      </trkpt>
      <trkpt lat="47.99227" lon="3.34786">
        <ele>61.6</ele>
        <time>2018-09-29T13:13:24Z</time>
      </trkpt>
      <trkpt lat="47.99221" lon="3.34792">
        <ele>60.5</ele>
        <time>2018-09-29T13:13:30Z</time>
      </trkpt>
      <trkpt lat="47.99214" lon="3.34798">
        <ele>61.3</ele>
        <time>2018-09-29T13:13:36Z</time>
      </trkpt>
      <trkpt lat="47.99208" lon="3.34804">
        <ele>60.4</ele>
        <time>2018-09-29T13:13:42Z</time>
      </trkpt>
      <trkpt lat="47.99202" lon="3.34809">
        <ele>61.3</ele>
        <time>2018-09-29T13:13:48Z</time>
      </trkpt>
      <trkpt lat="47.99195" lon="3.34816">
        <ele>62.2</ele>
        <time>2018-09-29T13:13:54Z</time>
      </trkpt>
      <trkpt lat="47.99188" lon="3.34823">
        <ele>62.3</ele>
        <time>2018-09-29T13:14:00Z</time>
      </trkpt>
      <trkpt lat="47.99183" lon="3.34829">
        <ele>63.4</ele>
        <time>2018-09-29T13:14:06Z</time>
      </trkpt>
      <trkpt lat="47.99176" lon="3.34835">
        <ele>65</ele>
        <time>2018-09-29T13:14:13Z</time>
      </trkpt>
      <trkpt lat="47.9917" lon="3.34843">
        <ele>65.8</ele>
        <time>2018-09-29T13:14:19Z</time>
      </trkpt>
      <trkpt lat="47.99164" lon="3.3485">
        <ele>65.5</ele>
        <time>2018-09-29T13:14:25Z</time>
      </trkpt>
      <trkpt lat="47.99157" lon="3.34858">
        <ele>64.7</ele>
        <time>2018-09-29T13:14:32Z</time>
      </trkpt>
      <trkpt lat="47.99152" lon="3.34864">
        <ele>63.5</ele>
        <time>2018-09-29T13:14:38Z</time>
      </trkpt>
      <trkpt lat="47.99147" lon="3.34869">
        <ele>64.2</ele>
        <time>2018-09-29T13:14:45Z</time>
      </trkpt>
      <trkpt lat="47.99147" lon="3.34869">
        <ele>64.2</ele>
        <time>2018-09-29T13:14:50Z</time>
      </trkpt>
      <trkpt lat="47.99144" lon="3.34871">
        <ele>64.1</ele>
        <time>2018-09-29T13:15:01Z</time>
      </trkpt>
      <trkpt lat="47.99139" lon="3.34875">
        <ele>63.3</ele>
        <time>2018-09-29T13:15:08Z</time>
      </trkpt>
      <trkpt lat="47.99133" lon="3.3488">
        <ele>63.5</ele>
        <time>2018-09-29T13:15:15Z</time>
      </trkpt>
      <trkpt lat="47.9913" lon="3.34882">
        <ele>63.4</ele>
        <time>2018-09-29T13:15:22Z</time>
      </trkpt>
      <trkpt lat="47.9913" lon="3.34883">
        <ele>63.6</ele>
        <time>2018-09-29T13:15:26Z</time>
      </trkpt>
      <trkpt lat="47.99132" lon="3.34882">
        <ele>63.7</ele>
        <time>2018-09-29T13:16:04Z</time>
      </trkpt>
      <trkpt lat="47.99132" lon="3.34882">
        <ele>63.7</ele>
        <time>2018-09-29T13:16:06Z</time>
      </trkpt>
      <trkpt lat="47.9913" lon="3.34883">
        <ele>62.9</ele>
        <time>2018-09-29T13:17:05Z</time>
      </trkpt>
      <trkpt lat="47.9913" lon="3.34883">
        <ele>62.9</ele>
        <time>2018-09-29T13:17:07Z</time>
      </trkpt>
      <trkpt lat="47.99131" lon="3.34883">
        <ele>61.6</ele>
        <time>2018-09-29T13:17:24Z</time>
      </trkpt>
      <trkpt lat="47.99131" lon="3.34883">
        <ele>61.6</ele>
        <time>2018-09-29T13:17:25Z</time>
      </trkpt>
      <trkpt lat="47.99124" lon="3.34886">
        <ele>59.7</ele>
        <time>2018-09-29T13:19:10Z</time>
      </trkpt>
      <trkpt lat="47.99117" lon="3.34889">
        <ele>61.5</ele>
        <time>2018-09-29T13:19:16Z</time>
      </trkpt>
      <trkpt lat="47.99109" lon="3.34894">
        <ele>62.6</ele>
        <time>2018-09-29T13:19:21Z</time>
      </trkpt>
      <trkpt lat="47.99102" lon="3.349">
        <ele>63.4</ele>
        <time>2018-09-29T13:19:28Z</time>
      </trkpt>
      <trkpt lat="47.99095" lon="3.34905">
        <ele>64.9</ele>
        <time>2018-09-29T13:19:33Z</time>
      </trkpt>
      <trkpt lat="47.99089" lon="3.34912">
        <ele>65.1</ele>
        <time>2018-09-29T13:19:38Z</time>
      </trkpt>
      <trkpt lat="47.99083" lon="3.34919">
        <ele>65</ele>
        <time>2018-09-29T13:19:44Z</time>
      </trkpt>
      <trkpt lat="47.99076" lon="3.34925">
        <ele>65</ele>
        <time>2018-09-29T13:19:50Z</time>
      </trkpt>
      <trkpt lat="47.9907" lon="3.34932">
        <ele>65.5</ele>
        <time>2018-09-29T13:19:56Z</time>
      </trkpt>
      <trkpt lat="47.99064" lon="3.3494">
        <ele>65.5</ele>
        <time>2018-09-29T13:20:02Z</time>
      </trkpt>
      <trkpt lat="47.99058" lon="3.34947">
        <ele>66.2</ele>
        <time>2018-09-29T13:20:08Z</time>
      </trkpt>
      <trkpt lat="47.99052" lon="3.34956">
        <ele>66.3</ele>
        <time>2018-09-29T13:20:14Z</time>
      </trkpt>
      <trkpt lat="47.99046" lon="3.34964">
        <ele>66.5</ele>
        <time>2018-09-29T13:20:20Z</time>
      </trkpt>
      <trkpt lat="47.9904" lon="3.34973">
        <ele>66.7</ele>
        <time>2018-09-29T13:20:26Z</time>
      </trkpt>
      <trkpt lat="47.99035" lon="3.34982">
        <ele>66.5</ele>
        <time>2018-09-29T13:20:32Z</time>
      </trkpt>
      <trkpt lat="47.9903" lon="3.3499">
        <ele>66.6</ele>
        <time>2018-09-29T13:20:38Z</time>
      </trkpt>
      <trkpt lat="47.99025" lon="3.34999">
        <ele>66.6</ele>
        <time>2018-09-29T13:20:44Z</time>
      </trkpt>
      <trkpt lat="47.9902" lon="3.35008">
        <ele>66.2</ele>
        <time>2018-09-29T13:20:50Z</time>
      </trkpt>
      <trkpt lat="47.99015" lon="3.35018">
        <ele>65.4</ele>
        <time>2018-09-29T13:20:56Z</time>
      </trkpt>
      <trkpt lat="47.99011" lon="3.35027">
        <ele>65.6</ele>
        <time>2018-09-29T13:21:02Z</time>
      </trkpt>
      <trkpt lat="47.99006" lon="3.35037">
        <ele>65.7</ele>
        <time>2018-09-29T13:21:08Z</time>
      </trkpt>
      <trkpt lat="47.99002" lon="3.35046">
        <ele>65.1</ele>
        <time>2018-09-29T13:21:14Z</time>
      </trkpt>
      <trkpt lat="47.98997" lon="3.35056">
        <ele>64.5</ele>
        <time>2018-09-29T13:21:20Z</time>
      </trkpt>
      <trkpt lat="47.98992" lon="3.35066">
        <ele>63.7</ele>
        <time>2018-09-29T13:21:27Z</time>
      </trkpt>
      <trkpt lat="47.98988" lon="3.35076">
        <ele>62.7</ele>
        <time>2018-09-29T13:21:34Z</time>
      </trkpt>
      <trkpt lat="47.98984" lon="3.35085">
        <ele>62.3</ele>
        <time>2018-09-29T13:21:40Z</time>
      </trkpt>
      <trkpt lat="47.98979" lon="3.35095">
        <ele>62.3</ele>
        <time>2018-09-29T13:21:47Z</time>
      </trkpt>
      <trkpt lat="47.98975" lon="3.35105">
        <ele>62.1</ele>
        <time>2018-09-29T13:21:53Z</time>
      </trkpt>
      <trkpt lat="47.98973" lon="3.35115">
        <ele>61.9</ele>
        <time>2018-09-29T13:21:59Z</time>
      </trkpt>
      <trkpt lat="47.98971" lon="3.35126">
        <ele>62.2</ele>
        <time>2018-09-29T13:22:06Z</time>
      </trkpt>
      <trkpt lat="47.98972" lon="3.35139">
        <ele>61.3</ele>
        <time>2018-09-29T13:22:13Z</time>
      </trkpt>
      <trkpt lat="47.98972" lon="3.3515">
        <ele>61.3</ele>
        <time>2018-09-29T13:22:19Z</time>
      </trkpt>
      <trkpt lat="47.98973" lon="3.35161">
        <ele>61.1</ele>
        <time>2018-09-29T13:22:25Z</time>
      </trkpt>
      <trkpt lat="47.98974" lon="3.35173">
        <ele>60.5</ele>
        <time>2018-09-29T13:22:32Z</time>
      </trkpt>
      <trkpt lat="47.98976" lon="3.35183">
        <ele>60.3</ele>
        <time>2018-09-29T13:22:38Z</time>
      </trkpt>
      <trkpt lat="47.98977" lon="3.35186">
        <ele>60.1</ele>
        <time>2018-09-29T13:22:45Z</time>
      </trkpt>
      <trkpt lat="47.98973" lon="3.3519">
        <ele>60.3</ele>
        <time>2018-09-29T13:22:52Z</time>
      </trkpt>
      <trkpt lat="47.9897" lon="3.352">
        <ele>60.5</ele>
        <time>2018-09-29T13:22:59Z</time>
      </trkpt>
      <trkpt lat="47.98967" lon="3.3521">
        <ele>61</ele>
        <time>2018-09-29T13:23:06Z</time>
      </trkpt>
      <trkpt lat="47.98963" lon="3.35219">
        <ele>62</ele>
        <time>2018-09-29T13:23:13Z</time>
      </trkpt>
      <trkpt lat="47.98959" lon="3.3523">
        <ele>63.3</ele>
        <time>2018-09-29T13:23:19Z</time>
      </trkpt>
      <trkpt lat="47.98956" lon="3.3524">
        <ele>64</ele>
        <time>2018-09-29T13:23:25Z</time>
      </trkpt>
      <trkpt lat="47.98951" lon="3.3525">
        <ele>63.4</ele>
        <time>2018-09-29T13:23:31Z</time>
      </trkpt>
      <trkpt lat="47.98947" lon="3.35259">
        <ele>63.8</ele>
        <time>2018-09-29T13:23:37Z</time>
      </trkpt>
      <trkpt lat="47.98943" lon="3.35269">
        <ele>64.2</ele>
        <time>2018-09-29T13:23:44Z</time>
      </trkpt>
      <trkpt lat="47.98939" lon="3.35279">
        <ele>65.1</ele>
        <time>2018-09-29T13:23:50Z</time>
      </trkpt>
      <trkpt lat="47.98935" lon="3.35288">
        <ele>65.4</ele>
        <time>2018-09-29T13:23:56Z</time>
      </trkpt>
      <trkpt lat="47.9893" lon="3.35298">
        <ele>66.6</ele>
        <time>2018-09-29T13:24:02Z</time>
      </trkpt>
      <trkpt lat="47.98926" lon="3.35308">
        <ele>66</ele>
        <time>2018-09-29T13:24:08Z</time>
      </trkpt>
      <trkpt lat="47.98923" lon="3.35318">
        <ele>65.7</ele>
        <time>2018-09-29T13:24:14Z</time>
      </trkpt>
      <trkpt lat="47.98919" lon="3.35327">
        <ele>65.1</ele>
        <time>2018-09-29T13:24:21Z</time>
      </trkpt>
      <trkpt lat="47.98915" lon="3.35337">
        <ele>65.6</ele>
        <time>2018-09-29T13:24:27Z</time>
      </trkpt>
      <trkpt lat="47.98912" lon="3.35348">
        <ele>66.2</ele>
        <time>2018-09-29T13:24:33Z</time>
      </trkpt>
      <trkpt lat="47.98907" lon="3.35358">
        <ele>66.4</ele>
        <time>2018-09-29T13:24:39Z</time>
      </trkpt>
      <trkpt lat="47.98903" lon="3.35367">
        <ele>66.2</ele>
        <time>2018-09-29T13:24:45Z</time>
      </trkpt>
      <trkpt lat="47.98898" lon="3.35376">
        <ele>65.9</ele>
        <time>2018-09-29T13:24:51Z</time>
      </trkpt>
      <trkpt lat="47.98893" lon="3.35385">
        <ele>65.7</ele>
        <time>2018-09-29T13:24:57Z</time>
      </trkpt>
      <trkpt lat="47.98888" lon="3.35394">
        <ele>65.2</ele>
        <time>2018-09-29T13:25:03Z</time>
      </trkpt>
      <trkpt lat="47.98883" lon="3.35402">
        <ele>64.6</ele>
        <time>2018-09-29T13:25:09Z</time>
      </trkpt>
      <trkpt lat="47.98877" lon="3.35411">
        <ele>64.5</ele>
        <time>2018-09-29T13:25:15Z</time>
      </trkpt>
      <trkpt lat="47.98871" lon="3.35419">
        <ele>64.4</ele>
        <time>2018-09-29T13:25:21Z</time>
      </trkpt>
      <trkpt lat="47.98866" lon="3.35427">
        <ele>64.2</ele>
        <time>2018-09-29T13:25:27Z</time>
      </trkpt>
      <trkpt lat="47.98861" lon="3.35436">
        <ele>63.4</ele>
        <time>2018-09-29T13:25:33Z</time>
      </trkpt>
      <trkpt lat="47.98856" lon="3.35446">
        <ele>63.6</ele>
        <time>2018-09-29T13:25:39Z</time>
      </trkpt>
      <trkpt lat="47.98851" lon="3.35455">
        <ele>63.5</ele>
        <time>2018-09-29T13:25:45Z</time>
      </trkpt>
      <trkpt lat="47.98846" lon="3.35463">
        <ele>62.9</ele>
        <time>2018-09-29T13:25:51Z</time>
      </trkpt>
      <trkpt lat="47.98842" lon="3.35471">
        <ele>62</ele>
        <time>2018-09-29T13:25:58Z</time>
      </trkpt>
      <trkpt lat="47.98838" lon="3.3548">
        <ele>61.5</ele>
        <time>2018-09-29T13:26:05Z</time>
      </trkpt>
      <trkpt lat="47.98832" lon="3.3549">
        <ele>61.8</ele>
        <time>2018-09-29T13:26:11Z</time>
      </trkpt>
      <trkpt lat="47.98827" lon="3.35499">
        <ele>60.9</ele>
        <time>2018-09-29T13:26:17Z</time>
      </trkpt>
      <trkpt lat="47.98823" lon="3.35508">
        <ele>63.4</ele>
        <time>2018-09-29T13:26:22Z</time>
      </trkpt>
      <trkpt lat="47.98817" lon="3.35517">
        <ele>63.9</ele>
        <time>2018-09-29T13:26:28Z</time>
      </trkpt>
      <trkpt lat="47.98812" lon="3.35526">
        <ele>62.8</ele>
        <time>2018-09-29T13:26:34Z</time>
      </trkpt>
      <trkpt lat="47.98807" lon="3.35534">
        <ele>64.2</ele>
        <time>2018-09-29T13:26:40Z</time>
      </trkpt>
      <trkpt lat="47.988" lon="3.35542">
        <ele>65</ele>
        <time>2018-09-29T13:26:46Z</time>
      </trkpt>
      <trkpt lat="47.98794" lon="3.3555">
        <ele>63.5</ele>
        <time>2018-09-29T13:26:52Z</time>
      </trkpt>
      <trkpt lat="47.98788" lon="3.35557">
        <ele>64.3</ele>
        <time>2018-09-29T13:26:58Z</time>
      </trkpt>
      <trkpt lat="47.98782" lon="3.35565">
        <ele>63.5</ele>
        <time>2018-09-29T13:27:05Z</time>
      </trkpt>
      <trkpt lat="47.98775" lon="3.35573">
        <ele>64.7</ele>
        <time>2018-09-29T13:27:12Z</time>
      </trkpt>
      <trkpt lat="47.98768" lon="3.3558">
        <ele>63.9</ele>
        <time>2018-09-29T13:27:18Z</time>
      </trkpt>
      <trkpt lat="47.98762" lon="3.35588">
        <ele>62.3</ele>
        <time>2018-09-29T13:27:24Z</time>
      </trkpt>
      <trkpt lat="47.98756" lon="3.35596">
        <ele>63.5</ele>
        <time>2018-09-29T13:27:30Z</time>
      </trkpt>
      <trkpt lat="47.9875" lon="3.35605">
        <ele>63.7</ele>
        <time>2018-09-29T13:27:36Z</time>
      </trkpt>
      <trkpt lat="47.98743" lon="3.3561">
        <ele>64</ele>
        <time>2018-09-29T13:27:42Z</time>
      </trkpt>
      <trkpt lat="47.98736" lon="3.35617">
        <ele>64.1</ele>
        <time>2018-09-29T13:27:48Z</time>
      </trkpt>
      <trkpt lat="47.98729" lon="3.35623">
        <ele>64</ele>
        <time>2018-09-29T13:27:54Z</time>
      </trkpt>
      <trkpt lat="47.98722" lon="3.35629">
        <ele>63.9</ele>
        <time>2018-09-29T13:28:00Z</time>
      </trkpt>
      <trkpt lat="47.98715" lon="3.35634">
        <ele>63</ele>
        <time>2018-09-29T13:28:06Z</time>
      </trkpt>
      <trkpt lat="47.98709" lon="3.3564">
        <ele>63.6</ele>
        <time>2018-09-29T13:28:12Z</time>
      </trkpt>
      <trkpt lat="47.98702" lon="3.35646">
        <ele>63.6</ele>
        <time>2018-09-29T13:28:18Z</time>
      </trkpt>
      <trkpt lat="47.98695" lon="3.35652">
        <ele>63.4</ele>
        <time>2018-09-29T13:28:24Z</time>
      </trkpt>
      <trkpt lat="47.98688" lon="3.35658">
        <ele>62.6</ele>
        <time>2018-09-29T13:28:30Z</time>
      </trkpt>
      <trkpt lat="47.98682" lon="3.35664">
        <ele>63.3</ele>
        <time>2018-09-29T13:28:36Z</time>
      </trkpt>
      <trkpt lat="47.98675" lon="3.35668">
        <ele>64.3</ele>
        <time>2018-09-29T13:28:42Z</time>
      </trkpt>
      <trkpt lat="47.98667" lon="3.35672">
        <ele>62.7</ele>
        <time>2018-09-29T13:28:49Z</time>
      </trkpt>
      <trkpt lat="47.98661" lon="3.35676">
        <ele>63.1</ele>
        <time>2018-09-29T13:28:55Z</time>
      </trkpt>
      <trkpt lat="47.98653" lon="3.35682">
        <ele>64.6</ele>
        <time>2018-09-29T13:29:01Z</time>
      </trkpt>
      <trkpt lat="47.98646" lon="3.35686">
        <ele>65</ele>
        <time>2018-09-29T13:29:07Z</time>
      </trkpt>
      <trkpt lat="47.98639" lon="3.3569">
        <ele>65.3</ele>
        <time>2018-09-29T13:29:13Z</time>
      </trkpt>
      <trkpt lat="47.98633" lon="3.35695">
        <ele>65.3</ele>
        <time>2018-09-29T13:29:19Z</time>
      </trkpt>
      <trkpt lat="47.98626" lon="3.35698">
        <ele>66.6</ele>
        <time>2018-09-29T13:29:25Z</time>
      </trkpt>
      <trkpt lat="47.98618" lon="3.35702">
        <ele>66</ele>
        <time>2018-09-29T13:29:32Z</time>
      </trkpt>
      <trkpt lat="47.98611" lon="3.35706">
        <ele>63.9</ele>
        <time>2018-09-29T13:29:38Z</time>
      </trkpt>
      <trkpt lat="47.98604" lon="3.3571">
        <ele>66.7</ele>
        <time>2018-09-29T13:29:44Z</time>
      </trkpt>
      <trkpt lat="47.98596" lon="3.35714">
        <ele>67.4</ele>
        <time>2018-09-29T13:29:50Z</time>
      </trkpt>
      <trkpt lat="47.98588" lon="3.35719">
        <ele>66.6</ele>
        <time>2018-09-29T13:29:56Z</time>
      </trkpt>
      <trkpt lat="47.98581" lon="3.35721">
        <ele>66.5</ele>
        <time>2018-09-29T13:30:02Z</time>
      </trkpt>
      <trkpt lat="47.98573" lon="3.35721">
        <ele>69.2</ele>
        <time>2018-09-29T13:30:08Z</time>
      </trkpt>
      <trkpt lat="47.98566" lon="3.35724">
        <ele>68.8</ele>
        <time>2018-09-29T13:30:14Z</time>
      </trkpt>
      <trkpt lat="47.98558" lon="3.35725">
        <ele>70.7</ele>
        <time>2018-09-29T13:30:20Z</time>
      </trkpt>
      <trkpt lat="47.98551" lon="3.35727">
        <ele>69.7</ele>
        <time>2018-09-29T13:30:26Z</time>
      </trkpt>
      <trkpt lat="47.98543" lon="3.3573">
        <ele>70.1</ele>
        <time>2018-09-29T13:30:32Z</time>
      </trkpt>
      <trkpt lat="47.98535" lon="3.35735">
        <ele>68.8</ele>
        <time>2018-09-29T13:30:38Z</time>
      </trkpt>
      <trkpt lat="47.98528" lon="3.35739">
        <ele>69.9</ele>
        <time>2018-09-29T13:30:44Z</time>
      </trkpt>
      <trkpt lat="47.98521" lon="3.35742">
        <ele>69.1</ele>
        <time>2018-09-29T13:30:50Z</time>
      </trkpt>
      <trkpt lat="47.98514" lon="3.35746">
        <ele>70.6</ele>
        <time>2018-09-29T13:30:56Z</time>
      </trkpt>
      <trkpt lat="47.98507" lon="3.35749">
        <ele>70.2</ele>
        <time>2018-09-29T13:31:02Z</time>
      </trkpt>
      <trkpt lat="47.98499" lon="3.35752">
        <ele>71.1</ele>
        <time>2018-09-29T13:31:08Z</time>
      </trkpt>
      <trkpt lat="47.98492" lon="3.35754">
        <ele>70</ele>
        <time>2018-09-29T13:31:14Z</time>
      </trkpt>
      <trkpt lat="47.98483" lon="3.35756">
        <ele>70.5</ele>
        <time>2018-09-29T13:31:20Z</time>
      </trkpt>
      <trkpt lat="47.98476" lon="3.35757">
        <ele>70.1</ele>
        <time>2018-09-29T13:31:26Z</time>
      </trkpt>
      <trkpt lat="47.98469" lon="3.35758">
        <ele>70.6</ele>
        <time>2018-09-29T13:31:32Z</time>
      </trkpt>
      <trkpt lat="47.98461" lon="3.3576">
        <ele>71.1</ele>
        <time>2018-09-29T13:31:38Z</time>
      </trkpt>
      <trkpt lat="47.98453" lon="3.35761">
        <ele>70.5</ele>
        <time>2018-09-29T13:31:44Z</time>
      </trkpt>
      <trkpt lat="47.98445" lon="3.35762">
        <ele>69.3</ele>
        <time>2018-09-29T13:31:51Z</time>
      </trkpt>
      <trkpt lat="47.98438" lon="3.35763">
        <ele>69.1</ele>
        <time>2018-09-29T13:31:57Z</time>
      </trkpt>
      <trkpt lat="47.98429" lon="3.35764">
        <ele>70.4</ele>
        <time>2018-09-29T13:32:03Z</time>
      </trkpt>
      <trkpt lat="47.98422" lon="3.35766">
        <ele>69.9</ele>
        <time>2018-09-29T13:32:09Z</time>
      </trkpt>
      <trkpt lat="47.98414" lon="3.35764">
        <ele>72.3</ele>
        <time>2018-09-29T13:32:15Z</time>
      </trkpt>
      <trkpt lat="47.98406" lon="3.35764">
        <ele>72.2</ele>
        <time>2018-09-29T13:32:20Z</time>
      </trkpt>
      <trkpt lat="47.98399" lon="3.35766">
        <ele>72.4</ele>
        <time>2018-09-29T13:32:26Z</time>
      </trkpt>
      <trkpt lat="47.98391" lon="3.35767">
        <ele>71.8</ele>
        <time>2018-09-29T13:32:32Z</time>
      </trkpt>
      <trkpt lat="47.98383" lon="3.35768">
        <ele>73.1</ele>
        <time>2018-09-29T13:32:38Z</time>
      </trkpt>
      <trkpt lat="47.98375" lon="3.35769">
        <ele>71.8</ele>
        <time>2018-09-29T13:32:44Z</time>
      </trkpt>
      <trkpt lat="47.98367" lon="3.35769">
        <ele>72.7</ele>
        <time>2018-09-29T13:32:50Z</time>
      </trkpt>
      <trkpt lat="47.9836" lon="3.35769">
        <ele>72.3</ele>
        <time>2018-09-29T13:32:56Z</time>
      </trkpt>
      <trkpt lat="47.98352" lon="3.35768">
        <ele>73.6</ele>
        <time>2018-09-29T13:33:02Z</time>
      </trkpt>
      <trkpt lat="47.98344" lon="3.35769">
        <ele>72.2</ele>
        <time>2018-09-29T13:33:08Z</time>
      </trkpt>
      <trkpt lat="47.98337" lon="3.35772">
        <ele>70.9</ele>
        <time>2018-09-29T13:33:14Z</time>
      </trkpt>
      <trkpt lat="47.98328" lon="3.35775">
        <ele>71</ele>
        <time>2018-09-29T13:33:21Z</time>
      </trkpt>
      <trkpt lat="47.98321" lon="3.35779">
        <ele>70.7</ele>
        <time>2018-09-29T13:33:27Z</time>
      </trkpt>
      <trkpt lat="47.98314" lon="3.35784">
        <ele>70</ele>
        <time>2018-09-29T13:33:34Z</time>
      </trkpt>
      <trkpt lat="47.98307" lon="3.35787">
        <ele>69.4</ele>
        <time>2018-09-29T13:33:40Z</time>
      </trkpt>
      <trkpt lat="47.98299" lon="3.35791">
        <ele>69</ele>
        <time>2018-09-29T13:33:46Z</time>
      </trkpt>
      <trkpt lat="47.98291" lon="3.35793">
        <ele>68.8</ele>
        <time>2018-09-29T13:33:52Z</time>
      </trkpt>
      <trkpt lat="47.98283" lon="3.35794">
        <ele>68.7</ele>
        <time>2018-09-29T13:33:58Z</time>
      </trkpt>
      <trkpt lat="47.98275" lon="3.35796">
        <ele>69.5</ele>
        <time>2018-09-29T13:34:04Z</time>
      </trkpt>
      <trkpt lat="47.98268" lon="3.35802">
        <ele>69</ele>
        <time>2018-09-29T13:34:10Z</time>
      </trkpt>
      <trkpt lat="47.98262" lon="3.35808">
        <ele>68.6</ele>
        <time>2018-09-29T13:34:16Z</time>
      </trkpt>
      <trkpt lat="47.98258" lon="3.35813">
        <ele>67.7</ele>
        <time>2018-09-29T13:34:23Z</time>
      </trkpt>
      <trkpt lat="47.98258" lon="3.35813">
        <ele>67.3</ele>
        <time>2018-09-29T13:34:30Z</time>
      </trkpt>
      <trkpt lat="47.98257" lon="3.35818">
        <ele>66.7</ele>
        <time>2018-09-29T13:34:38Z</time>
      </trkpt>
      <trkpt lat="47.98257" lon="3.35818">
        <ele>66.7</ele>
        <time>2018-09-29T13:34:41Z</time>
      </trkpt>
      <trkpt lat="47.98261" lon="3.3581">
        <ele>67.4</ele>
        <time>2018-09-29T13:35:07Z</time>
      </trkpt>
      <trkpt lat="47.98261" lon="3.35802">
        <ele>68.6</ele>
        <time>2018-09-29T13:35:15Z</time>
      </trkpt>
      <trkpt lat="47.98261" lon="3.35802">
        <ele>69.1</ele>
        <time>2018-09-29T13:35:21Z</time>
      </trkpt>
      <trkpt lat="47.98263" lon="3.35794">
        <ele>69.8</ele>
        <time>2018-09-29T13:35:53Z</time>
      </trkpt>
      <trkpt lat="47.98265" lon="3.35792">
        <ele>70.3</ele>
        <time>2018-09-29T13:36:00Z</time>
      </trkpt>
      <trkpt lat="47.98265" lon="3.35792">
        <ele>70.3</ele>
        <time>2018-09-29T13:36:03Z</time>
      </trkpt>
      <trkpt lat="47.98267" lon="3.35793">
        <ele>70.9</ele>
        <time>2018-09-29T13:36:38Z</time>
      </trkpt>
      <trkpt lat="47.98267" lon="3.35793">
        <ele>70.9</ele>
        <time>2018-09-29T13:36:39Z</time>
      </trkpt>
      <trkpt lat="47.98273" lon="3.35794">
        <ele>70.5</ele>
        <time>2018-09-29T13:36:53Z</time>
      </trkpt>
      <trkpt lat="47.98274" lon="3.35795">
        <ele>69.5</ele>
        <time>2018-09-29T13:37:00Z</time>
      </trkpt>
      <trkpt lat="47.98281" lon="3.35796">
        <ele>68.2</ele>
        <time>2018-09-29T13:37:10Z</time>
      </trkpt>
      <trkpt lat="47.98287" lon="3.35797">
        <ele>67.9</ele>
        <time>2018-09-29T13:37:17Z</time>
      </trkpt>
      <trkpt lat="47.98288" lon="3.35797">
        <ele>68.1</ele>
        <time>2018-09-29T13:37:23Z</time>
      </trkpt>
      <trkpt lat="47.98292" lon="3.35796">
        <ele>67.9</ele>
        <time>2018-09-29T13:37:31Z</time>
      </trkpt>
      <trkpt lat="47.98292" lon="3.35796">
        <ele>67.9</ele>
        <time>2018-09-29T13:37:37Z</time>
      </trkpt>
      <trkpt lat="47.98289" lon="3.35795">
        <ele>68.5</ele>
        <time>2018-09-29T13:37:48Z</time>
      </trkpt>
      <trkpt lat="47.98283" lon="3.35795">
        <ele>68.1</ele>
        <time>2018-09-29T13:37:55Z</time>
      </trkpt>
      <trkpt lat="47.98283" lon="3.35795">
        <ele>66.7</ele>
        <time>2018-09-29T13:38:01Z</time>
      </trkpt>
      <trkpt lat="47.98275" lon="3.35795">
        <ele>66.3</ele>
        <time>2018-09-29T13:38:35Z</time>
      </trkpt>
      <trkpt lat="47.98266" lon="3.35794">
        <ele>66.3</ele>
        <time>2018-09-29T13:38:41Z</time>
      </trkpt>
      <trkpt lat="47.98258" lon="3.35793">
        <ele>65.5</ele>
        <time>2018-09-29T13:38:47Z</time>
      </trkpt>
      <trkpt lat="47.9825" lon="3.35792">
        <ele>65.6</ele>
        <time>2018-09-29T13:38:53Z</time>
      </trkpt>
      <trkpt lat="47.98243" lon="3.35789">
        <ele>66.3</ele>
        <time>2018-09-29T13:38:59Z</time>
      </trkpt>
      <trkpt lat="47.98235" lon="3.35785">
        <ele>67.4</ele>
        <time>2018-09-29T13:39:05Z</time>
      </trkpt>
      <trkpt lat="47.98228" lon="3.35782">
        <ele>67.4</ele>
        <time>2018-09-29T13:39:11Z</time>
      </trkpt>
      <trkpt lat="47.98221" lon="3.35778">
        <ele>68.8</ele>
        <time>2018-09-29T13:39:17Z</time>
      </trkpt>
      <trkpt lat="47.98214" lon="3.35776">
        <ele>68.8</ele>
        <time>2018-09-29T13:39:23Z</time>
      </trkpt>
      <trkpt lat="47.98206" lon="3.35774">
        <ele>68.8</ele>
        <time>2018-09-29T13:39:29Z</time>
      </trkpt>
      <trkpt lat="47.98198" lon="3.35773">
        <ele>69.1</ele>
        <time>2018-09-29T13:39:35Z</time>
      </trkpt>
      <trkpt lat="47.9819" lon="3.35773">
        <ele>68.9</ele>
        <time>2018-09-29T13:39:41Z</time>
      </trkpt>
      <trkpt lat="47.98182" lon="3.35773">
        <ele>69.4</ele>
        <time>2018-09-29T13:39:47Z</time>
      </trkpt>
      <trkpt lat="47.98174" lon="3.35774">
        <ele>69.1</ele>
        <time>2018-09-29T13:39:53Z</time>
      </trkpt>
      <trkpt lat="47.98166" lon="3.35774">
        <ele>70.6</ele>
        <time>2018-09-29T13:39:58Z</time>
      </trkpt>
      <trkpt lat="47.98158" lon="3.35776">
        <ele>70.1</ele>
        <time>2018-09-29T13:40:04Z</time>
      </trkpt>
      <trkpt lat="47.98151" lon="3.35778">
        <ele>68.5</ele>
        <time>2018-09-29T13:40:11Z</time>
      </trkpt>
      <trkpt lat="47.98143" lon="3.3578">
        <ele>66.7</ele>
        <time>2018-09-29T13:40:16Z</time>
      </trkpt>
      <trkpt lat="47.98134" lon="3.35784">
        <ele>67.5</ele>
        <time>2018-09-29T13:40:22Z</time>
      </trkpt>
      <trkpt lat="47.98127" lon="3.35787">
        <ele>69</ele>
        <time>2018-09-29T13:40:27Z</time>
      </trkpt>
      <trkpt lat="47.9812" lon="3.35791">
        <ele>69.6</ele>
        <time>2018-09-29T13:40:33Z</time>
      </trkpt>
      <trkpt lat="47.98112" lon="3.35795">
        <ele>69.7</ele>
        <time>2018-09-29T13:40:39Z</time>
      </trkpt>
      <trkpt lat="47.98105" lon="3.35799">
        <ele>70.5</ele>
        <time>2018-09-29T13:40:45Z</time>
      </trkpt>
      <trkpt lat="47.98097" lon="3.35802">
        <ele>71</ele>
        <time>2018-09-29T13:40:51Z</time>
      </trkpt>
      <trkpt lat="47.9809" lon="3.35808">
        <ele>70.6</ele>
        <time>2018-09-29T13:40:57Z</time>
      </trkpt>
      <trkpt lat="47.98082" lon="3.35812">
        <ele>71.1</ele>
        <time>2018-09-29T13:41:03Z</time>
      </trkpt>
      <trkpt lat="47.98075" lon="3.35818">
        <ele>71.2</ele>
        <time>2018-09-29T13:41:09Z</time>
      </trkpt>
      <trkpt lat="47.98068" lon="3.35823">
        <ele>70.2</ele>
        <time>2018-09-29T13:41:15Z</time>
      </trkpt>
      <trkpt lat="47.98061" lon="3.35829">
        <ele>69.6</ele>
        <time>2018-09-29T13:41:21Z</time>
      </trkpt>
      <trkpt lat="47.98054" lon="3.35835">
        <ele>69.1</ele>
        <time>2018-09-29T13:41:27Z</time>
      </trkpt>
      <trkpt lat="47.98047" lon="3.3584">
        <ele>68</ele>
        <time>2018-09-29T13:41:33Z</time>
      </trkpt>
      <trkpt lat="47.9804" lon="3.35846">
        <ele>68.1</ele>
        <time>2018-09-29T13:41:39Z</time>
      </trkpt>
      <trkpt lat="47.98032" lon="3.35852">
        <ele>68.7</ele>
        <time>2018-09-29T13:41:45Z</time>
      </trkpt>
      <trkpt lat="47.98025" lon="3.35858">
        <ele>68.6</ele>
        <time>2018-09-29T13:41:51Z</time>
      </trkpt>
      <trkpt lat="47.98019" lon="3.35864">
        <ele>68.7</ele>
        <time>2018-09-29T13:41:57Z</time>
      </trkpt>
      <trkpt lat="47.98012" lon="3.35871">
        <ele>68.9</ele>
        <time>2018-09-29T13:42:03Z</time>
      </trkpt>
      <trkpt lat="47.98006" lon="3.35877">
        <ele>68.6</ele>
        <time>2018-09-29T13:42:09Z</time>
      </trkpt>
      <trkpt lat="47.98001" lon="3.35884">
        <ele>67.9</ele>
        <time>2018-09-29T13:42:15Z</time>
      </trkpt>
      <trkpt lat="47.97995" lon="3.35892">
        <ele>66.6</ele>
        <time>2018-09-29T13:42:21Z</time>
      </trkpt>
      <trkpt lat="47.9799" lon="3.35901">
        <ele>66</ele>
        <time>2018-09-29T13:42:27Z</time>
      </trkpt>
      <trkpt lat="47.97985" lon="3.35909">
        <ele>66.2</ele>
        <time>2018-09-29T13:42:33Z</time>
      </trkpt>
      <trkpt lat="47.97979" lon="3.35918">
        <ele>65.5</ele>
        <time>2018-09-29T13:42:39Z</time>
      </trkpt>
      <trkpt lat="47.97974" lon="3.35927">
        <ele>65.4</ele>
        <time>2018-09-29T13:42:45Z</time>
      </trkpt>
      <trkpt lat="47.97969" lon="3.35936">
        <ele>65.5</ele>
        <time>2018-09-29T13:42:51Z</time>
      </trkpt>
      <trkpt lat="47.97965" lon="3.35946">
        <ele>65</ele>
        <time>2018-09-29T13:42:57Z</time>
      </trkpt>
      <trkpt lat="47.9796" lon="3.35955">
        <ele>65.3</ele>
        <time>2018-09-29T13:43:03Z</time>
      </trkpt>
      <trkpt lat="47.97956" lon="3.35965">
        <ele>65.7</ele>
        <time>2018-09-29T13:43:09Z</time>
      </trkpt>
      <trkpt lat="47.97952" lon="3.35974">
        <ele>65.9</ele>
        <time>2018-09-29T13:43:15Z</time>
      </trkpt>
      <trkpt lat="47.97948" lon="3.35985">
        <ele>65.3</ele>
        <time>2018-09-29T13:43:21Z</time>
      </trkpt>
      <trkpt lat="47.97944" lon="3.35995">
        <ele>66.2</ele>
        <time>2018-09-29T13:43:27Z</time>
      </trkpt>
      <trkpt lat="47.97942" lon="3.36006">
        <ele>65.6</ele>
        <time>2018-09-29T13:43:33Z</time>
      </trkpt>
      <trkpt lat="47.97939" lon="3.36016">
        <ele>65.1</ele>
        <time>2018-09-29T13:43:39Z</time>
      </trkpt>
      <trkpt lat="47.97935" lon="3.36025">
        <ele>65</ele>
        <time>2018-09-29T13:43:45Z</time>
      </trkpt>
      <trkpt lat="47.97931" lon="3.36035">
        <ele>65.6</ele>
        <time>2018-09-29T13:43:51Z</time>
      </trkpt>
      <trkpt lat="47.97928" lon="3.36044">
        <ele>65.8</ele>
        <time>2018-09-29T13:43:57Z</time>
      </trkpt>
      <trkpt lat="47.97924" lon="3.36054">
        <ele>66.2</ele>
        <time>2018-09-29T13:44:03Z</time>
      </trkpt>
      <trkpt lat="47.97921" lon="3.36064">
        <ele>66.6</ele>
        <time>2018-09-29T13:44:09Z</time>
      </trkpt>
      <trkpt lat="47.97917" lon="3.36075">
        <ele>66.2</ele>
        <time>2018-09-29T13:44:16Z</time>
      </trkpt>
      <trkpt lat="47.97914" lon="3.36086">
        <ele>65.6</ele>
        <time>2018-09-29T13:44:23Z</time>
      </trkpt>
      <trkpt lat="47.9791" lon="3.36096">
        <ele>65.3</ele>
        <time>2018-09-29T13:44:29Z</time>
      </trkpt>
      <trkpt lat="47.97907" lon="3.36107">
        <ele>64.6</ele>
        <time>2018-09-29T13:44:35Z</time>
      </trkpt>
      <trkpt lat="47.97904" lon="3.36116">
        <ele>64.5</ele>
        <time>2018-09-29T13:44:41Z</time>
      </trkpt>
      <trkpt lat="47.97901" lon="3.36127">
        <ele>64.4</ele>
        <time>2018-09-29T13:44:48Z</time>
      </trkpt>
      <trkpt lat="47.97898" lon="3.36139">
        <ele>64.5</ele>
        <time>2018-09-29T13:44:55Z</time>
      </trkpt>
      <trkpt lat="47.97895" lon="3.3615">
        <ele>64</ele>
        <time>2018-09-29T13:45:02Z</time>
      </trkpt>
      <trkpt lat="47.97892" lon="3.36161">
        <ele>63.9</ele>
        <time>2018-09-29T13:45:08Z</time>
      </trkpt>
      <trkpt lat="47.97889" lon="3.36171">
        <ele>63.5</ele>
        <time>2018-09-29T13:45:14Z</time>
      </trkpt>
      <trkpt lat="47.97887" lon="3.36182">
        <ele>63.5</ele>
        <time>2018-09-29T13:45:20Z</time>
      </trkpt>
      <trkpt lat="47.97884" lon="3.36194">
        <ele>63.6</ele>
        <time>2018-09-29T13:45:27Z</time>
      </trkpt>
      <trkpt lat="47.9788" lon="3.36204">
        <ele>64.2</ele>
        <time>2018-09-29T13:45:33Z</time>
      </trkpt>
      <trkpt lat="47.97878" lon="3.36215">
        <ele>64.4</ele>
        <time>2018-09-29T13:45:39Z</time>
      </trkpt>
      <trkpt lat="47.97875" lon="3.36225">
        <ele>64.5</ele>
        <time>2018-09-29T13:45:45Z</time>
      </trkpt>
      <trkpt lat="47.97873" lon="3.36236">
        <ele>64.5</ele>
        <time>2018-09-29T13:45:52Z</time>
      </trkpt>
      <trkpt lat="47.97871" lon="3.36247">
        <ele>63.9</ele>
        <time>2018-09-29T13:45:59Z</time>
      </trkpt>
      <trkpt lat="47.97869" lon="3.36259">
        <ele>63</ele>
        <time>2018-09-29T13:46:06Z</time>
      </trkpt>
      <trkpt lat="47.97867" lon="3.3627">
        <ele>64</ele>
        <time>2018-09-29T13:46:13Z</time>
      </trkpt>
      <trkpt lat="47.97865" lon="3.36281">
        <ele>64.2</ele>
        <time>2018-09-29T13:46:20Z</time>
      </trkpt>
      <trkpt lat="47.97863" lon="3.36293">
        <ele>65.2</ele>
        <time>2018-09-29T13:46:27Z</time>
      </trkpt>
      <trkpt lat="47.97861" lon="3.36303">
        <ele>65.2</ele>
        <time>2018-09-29T13:46:33Z</time>
      </trkpt>
      <trkpt lat="47.97859" lon="3.36314">
        <ele>65.7</ele>
        <time>2018-09-29T13:46:39Z</time>
      </trkpt>
      <trkpt lat="47.97856" lon="3.36325">
        <ele>65.3</ele>
        <time>2018-09-29T13:46:46Z</time>
      </trkpt>
      <trkpt lat="47.97854" lon="3.36337">
        <ele>65.4</ele>
        <time>2018-09-29T13:46:52Z</time>
      </trkpt>
      <trkpt lat="47.97852" lon="3.36347">
        <ele>66.1</ele>
        <time>2018-09-29T13:46:58Z</time>
      </trkpt>
      <trkpt lat="47.9785" lon="3.36358">
        <ele>66.5</ele>
        <time>2018-09-29T13:47:04Z</time>
      </trkpt>
      <trkpt lat="47.97847" lon="3.36368">
        <ele>66.6</ele>
        <time>2018-09-29T13:47:10Z</time>
      </trkpt>
      <trkpt lat="47.97844" lon="3.36376">
        <ele>66.9</ele>
        <time>2018-09-29T13:47:17Z</time>
      </trkpt>
      <trkpt lat="47.97842" lon="3.36385">
        <ele>67</ele>
        <time>2018-09-29T13:47:24Z</time>
      </trkpt>
      <trkpt lat="47.97841" lon="3.36389">
        <ele>67</ele>
        <time>2018-09-29T13:47:31Z</time>
      </trkpt>
      <trkpt lat="47.97841" lon="3.36389">
        <ele>67</ele>
        <time>2018-09-29T13:47:34Z</time>
      </trkpt>
      <trkpt lat="47.97839" lon="3.36386">
        <ele>66.5</ele>
        <time>2018-09-29T13:48:24Z</time>
      </trkpt>
      <trkpt lat="47.97839" lon="3.36386">
        <ele>66.5</ele>
        <time>2018-09-29T13:48:25Z</time>
      </trkpt>
      <trkpt lat="47.97842" lon="3.36393">
        <ele>67.2</ele>
        <time>2018-09-29T13:51:38Z</time>
      </trkpt>
      <trkpt lat="47.97846" lon="3.36401">
        <ele>66.3</ele>
        <time>2018-09-29T13:51:45Z</time>
      </trkpt>
      <trkpt lat="47.9785" lon="3.36408">
        <ele>66</ele>
        <time>2018-09-29T13:51:52Z</time>
      </trkpt>
      <trkpt lat="47.97855" lon="3.36414">
        <ele>64.5</ele>
        <time>2018-09-29T13:51:59Z</time>
      </trkpt>
      <trkpt lat="47.97861" lon="3.36422">
        <ele>63.6</ele>
        <time>2018-09-29T13:52:06Z</time>
      </trkpt>
      <trkpt lat="47.97865" lon="3.36431">
        <ele>63.2</ele>
        <time>2018-09-29T13:52:13Z</time>
      </trkpt>
      <trkpt lat="47.97869" lon="3.36441">
        <ele>63.2</ele>
        <time>2018-09-29T13:52:20Z</time>
      </trkpt>
      <trkpt lat="47.97872" lon="3.36451">
        <ele>63.6</ele>
        <time>2018-09-29T13:52:26Z</time>
      </trkpt>
      <trkpt lat="47.97875" lon="3.3646">
        <ele>62.2</ele>
        <time>2018-09-29T13:52:33Z</time>
      </trkpt>
      <trkpt lat="47.97878" lon="3.36471">
        <ele>62.3</ele>
        <time>2018-09-29T13:52:40Z</time>
      </trkpt>
      <trkpt lat="47.97881" lon="3.36483">
        <ele>63.4</ele>
        <time>2018-09-29T13:52:47Z</time>
      </trkpt>
      <trkpt lat="47.97884" lon="3.36494">
        <ele>64.1</ele>
        <time>2018-09-29T13:52:54Z</time>
      </trkpt>
      <trkpt lat="47.97885" lon="3.36505">
        <ele>64</ele>
        <time>2018-09-29T13:53:01Z</time>
      </trkpt>
      <trkpt lat="47.97888" lon="3.36517">
        <ele>63.3</ele>
        <time>2018-09-29T13:53:08Z</time>
      </trkpt>
      <trkpt lat="47.97889" lon="3.36529">
        <ele>63.5</ele>
        <time>2018-09-29T13:53:15Z</time>
      </trkpt>
      <trkpt lat="47.9789" lon="3.3654">
        <ele>63.7</ele>
        <time>2018-09-29T13:53:21Z</time>
      </trkpt>
      <trkpt lat="47.97892" lon="3.36551">
        <ele>64.2</ele>
        <time>2018-09-29T13:53:28Z</time>
      </trkpt>
      <trkpt lat="47.97893" lon="3.36562">
        <ele>63.2</ele>
        <time>2018-09-29T13:53:35Z</time>
      </trkpt>
      <trkpt lat="47.97895" lon="3.36572">
        <ele>61.4</ele>
        <time>2018-09-29T13:53:42Z</time>
      </trkpt>
      <trkpt lat="47.97896" lon="3.36583">
        <ele>60.1</ele>
        <time>2018-09-29T13:53:49Z</time>
      </trkpt>
      <trkpt lat="47.97897" lon="3.36595">
        <ele>61.1</ele>
        <time>2018-09-29T13:53:56Z</time>
      </trkpt>
      <trkpt lat="47.97899" lon="3.36607">
        <ele>61.5</ele>
        <time>2018-09-29T13:54:03Z</time>
      </trkpt>
      <trkpt lat="47.97901" lon="3.36618">
        <ele>62.6</ele>
        <time>2018-09-29T13:54:10Z</time>
      </trkpt>
      <trkpt lat="47.97904" lon="3.36629">
        <ele>62.9</ele>
        <time>2018-09-29T13:54:16Z</time>
      </trkpt>
      <trkpt lat="47.97907" lon="3.36639">
        <ele>63.6</ele>
        <time>2018-09-29T13:54:22Z</time>
      </trkpt>
      <trkpt lat="47.97913" lon="3.36648">
        <ele>63.9</ele>
        <time>2018-09-29T13:54:29Z</time>
      </trkpt>
      <trkpt lat="47.97918" lon="3.36656">
        <ele>65.5</ele>
        <time>2018-09-29T13:54:35Z</time>
      </trkpt>
      <trkpt lat="47.97924" lon="3.36662">
        <ele>65.1</ele>
        <time>2018-09-29T13:54:41Z</time>
      </trkpt>
      <trkpt lat="47.97931" lon="3.36668">
        <ele>64.7</ele>
        <time>2018-09-29T13:54:48Z</time>
      </trkpt>
      <trkpt lat="47.97937" lon="3.36675">
        <ele>64.9</ele>
        <time>2018-09-29T13:54:54Z</time>
      </trkpt>
      <trkpt lat="47.97943" lon="3.36682">
        <ele>64.5</ele>
        <time>2018-09-29T13:55:01Z</time>
      </trkpt>
      <trkpt lat="47.97949" lon="3.36689">
        <ele>63.8</ele>
        <time>2018-09-29T13:55:08Z</time>
      </trkpt>
      <trkpt lat="47.97956" lon="3.36695">
        <ele>64.2</ele>
        <time>2018-09-29T13:55:14Z</time>
      </trkpt>
      <trkpt lat="47.97962" lon="3.36702">
        <ele>64.7</ele>
        <time>2018-09-29T13:55:20Z</time>
      </trkpt>
      <trkpt lat="47.97968" lon="3.36708">
        <ele>65.2</ele>
        <time>2018-09-29T13:55:27Z</time>
      </trkpt>
      <trkpt lat="47.97975" lon="3.36716">
        <ele>65.7</ele>
        <time>2018-09-29T13:55:34Z</time>
      </trkpt>
      <trkpt lat="47.97981" lon="3.36724">
        <ele>65.3</ele>
        <time>2018-09-29T13:55:41Z</time>
      </trkpt>
      <trkpt lat="47.97986" lon="3.36733">
        <ele>64.4</ele>
        <time>2018-09-29T13:55:48Z</time>
      </trkpt>
      <trkpt lat="47.9799" lon="3.36741">
        <ele>63.8</ele>
        <time>2018-09-29T13:55:54Z</time>
      </trkpt>
      <trkpt lat="47.97995" lon="3.36751">
        <ele>64.5</ele>
        <time>2018-09-29T13:56:00Z</time>
      </trkpt>
      <trkpt lat="47.97999" lon="3.36759">
        <ele>63.7</ele>
        <time>2018-09-29T13:56:07Z</time>
      </trkpt>
      <trkpt lat="47.98005" lon="3.36767">
        <ele>63.2</ele>
        <time>2018-09-29T13:56:14Z</time>
      </trkpt>
      <trkpt lat="47.98011" lon="3.36776">
        <ele>64.4</ele>
        <time>2018-09-29T13:56:20Z</time>
      </trkpt>
      <trkpt lat="47.98015" lon="3.36785">
        <ele>65.1</ele>
        <time>2018-09-29T13:56:26Z</time>
      </trkpt>
      <trkpt lat="47.9802" lon="3.36793">
        <ele>65.6</ele>
        <time>2018-09-29T13:56:32Z</time>
      </trkpt>
      <trkpt lat="47.98025" lon="3.36801">
        <ele>64.9</ele>
        <time>2018-09-29T13:56:38Z</time>
      </trkpt>
      <trkpt lat="47.9803" lon="3.36811">
        <ele>63.7</ele>
        <time>2018-09-29T13:56:45Z</time>
      </trkpt>
      <trkpt lat="47.98035" lon="3.36819">
        <ele>64.1</ele>
        <time>2018-09-29T13:56:51Z</time>
      </trkpt>
      <trkpt lat="47.9804" lon="3.36828">
        <ele>65.3</ele>
        <time>2018-09-29T13:56:57Z</time>
      </trkpt>
      <trkpt lat="47.98044" lon="3.36837">
        <ele>65.7</ele>
        <time>2018-09-29T13:57:03Z</time>
      </trkpt>
      <trkpt lat="47.98049" lon="3.36846">
        <ele>65.4</ele>
        <time>2018-09-29T13:57:09Z</time>
      </trkpt>
      <trkpt lat="47.98054" lon="3.36855">
        <ele>65.1</ele>
        <time>2018-09-29T13:57:16Z</time>
      </trkpt>
      <trkpt lat="47.98058" lon="3.36865">
        <ele>65.4</ele>
        <time>2018-09-29T13:57:23Z</time>
      </trkpt>
      <trkpt lat="47.98064" lon="3.36874">
        <ele>65.9</ele>
        <time>2018-09-29T13:57:30Z</time>
      </trkpt>
      <trkpt lat="47.98069" lon="3.36882">
        <ele>66.3</ele>
        <time>2018-09-29T13:57:37Z</time>
      </trkpt>
      <trkpt lat="47.98075" lon="3.36889">
        <ele>66.1</ele>
        <time>2018-09-29T13:57:44Z</time>
      </trkpt>
      <trkpt lat="47.9808" lon="3.36899">
        <ele>65.7</ele>
        <time>2018-09-29T13:57:51Z</time>
      </trkpt>
      <trkpt lat="47.98085" lon="3.36909">
        <ele>66.3</ele>
        <time>2018-09-29T13:57:58Z</time>
      </trkpt>
      <trkpt lat="47.98089" lon="3.3692">
        <ele>66.5</ele>
        <time>2018-09-29T13:58:05Z</time>
      </trkpt>
      <trkpt lat="47.98093" lon="3.36929">
        <ele>66.3</ele>
        <time>2018-09-29T13:58:12Z</time>
      </trkpt>
      <trkpt lat="47.98096" lon="3.36939">
        <ele>66.4</ele>
        <time>2018-09-29T13:58:19Z</time>
      </trkpt>
      <trkpt lat="47.981" lon="3.36948">
        <ele>66</ele>
        <time>2018-09-29T13:58:26Z</time>
      </trkpt>
      <trkpt lat="47.98103" lon="3.36956">
        <ele>65.9</ele>
        <time>2018-09-29T13:58:33Z</time>
      </trkpt>
      <trkpt lat="47.98105" lon="3.36966">
        <ele>65.1</ele>
        <time>2018-09-29T13:58:40Z</time>
      </trkpt>
      <trkpt lat="47.98107" lon="3.36975">
        <ele>64.2</ele>
        <time>2018-09-29T13:58:47Z</time>
      </trkpt>
      <trkpt lat="47.9811" lon="3.36983">
        <ele>63.8</ele>
        <time>2018-09-29T13:58:54Z</time>
      </trkpt>
      <trkpt lat="47.98112" lon="3.36993">
        <ele>64</ele>
        <time>2018-09-29T13:59:01Z</time>
      </trkpt>
      <trkpt lat="47.98116" lon="3.37003">
        <ele>64</ele>
        <time>2018-09-29T13:59:08Z</time>
      </trkpt>
      <trkpt lat="47.98118" lon="3.37013">
        <ele>64.2</ele>
        <time>2018-09-29T13:59:15Z</time>
      </trkpt>
      <trkpt lat="47.9812" lon="3.37021">
        <ele>64</ele>
        <time>2018-09-29T13:59:22Z</time>
      </trkpt>
      <trkpt lat="47.9812" lon="3.37024">
        <ele>64.1</ele>
        <time>2018-09-29T13:59:29Z</time>
      </trkpt>
      <trkpt lat="47.9812" lon="3.37024">
        <ele>64.1</ele>
        <time>2018-09-29T13:59:32Z</time>
      </trkpt>
      <trkpt lat="47.98122" lon="3.37033">
        <ele>63.4</ele>
        <time>2018-09-29T14:01:33Z</time>
      </trkpt>
      <trkpt lat="47.98126" lon="3.37045">
        <ele>63.1</ele>
        <time>2018-09-29T14:01:40Z</time>
      </trkpt>
      <trkpt lat="47.98129" lon="3.37055">
        <ele>62.9</ele>
        <time>2018-09-29T14:01:47Z</time>
      </trkpt>
      <trkpt lat="47.98131" lon="3.37065">
        <ele>62.5</ele>
        <time>2018-09-29T14:01:54Z</time>
      </trkpt>
      <trkpt lat="47.98134" lon="3.37077">
        <ele>62.6</ele>
        <time>2018-09-29T14:02:01Z</time>
      </trkpt>
      <trkpt lat="47.98136" lon="3.37088">
        <ele>62.9</ele>
        <time>2018-09-29T14:02:08Z</time>
      </trkpt>
      <trkpt lat="47.98138" lon="3.371">
        <ele>62.9</ele>
        <time>2018-09-29T14:02:15Z</time>
      </trkpt>
      <trkpt lat="47.9814" lon="3.37111">
        <ele>63</ele>
        <time>2018-09-29T14:02:21Z</time>
      </trkpt>
      <trkpt lat="47.98141" lon="3.37121">
        <ele>63.2</ele>
        <time>2018-09-29T14:02:27Z</time>
      </trkpt>
      <trkpt lat="47.98144" lon="3.37132">
        <ele>63.6</ele>
        <time>2018-09-29T14:02:33Z</time>
      </trkpt>
      <trkpt lat="47.98145" lon="3.37143">
        <ele>64</ele>
        <time>2018-09-29T14:02:39Z</time>
      </trkpt>
      <trkpt lat="47.98146" lon="3.37155">
        <ele>63.6</ele>
        <time>2018-09-29T14:02:46Z</time>
      </trkpt>
      <trkpt lat="47.98147" lon="3.37166">
        <ele>63.3</ele>
        <time>2018-09-29T14:02:52Z</time>
      </trkpt>
      <trkpt lat="47.98148" lon="3.37177">
        <ele>63.8</ele>
        <time>2018-09-29T14:02:58Z</time>
      </trkpt>
      <trkpt lat="47.98148" lon="3.37188">
        <ele>64.5</ele>
        <time>2018-09-29T14:03:04Z</time>
      </trkpt>
      <trkpt lat="47.98149" lon="3.372">
        <ele>65.3</ele>
        <time>2018-09-29T14:03:10Z</time>
      </trkpt>
      <trkpt lat="47.98149" lon="3.3721">
        <ele>65.8</ele>
        <time>2018-09-29T14:03:16Z</time>
      </trkpt>
      <trkpt lat="47.98149" lon="3.37221">
        <ele>64.9</ele>
        <time>2018-09-29T14:03:22Z</time>
      </trkpt>
      <trkpt lat="47.98149" lon="3.37232">
        <ele>65.6</ele>
        <time>2018-09-29T14:03:28Z</time>
      </trkpt>
      <trkpt lat="47.9815" lon="3.37243">
        <ele>66</ele>
        <time>2018-09-29T14:03:34Z</time>
      </trkpt>
      <trkpt lat="47.9815" lon="3.37254">
        <ele>67.1</ele>
        <time>2018-09-29T14:03:40Z</time>
      </trkpt>
      <trkpt lat="47.98149" lon="3.37265">
        <ele>67.7</ele>
        <time>2018-09-29T14:03:46Z</time>
      </trkpt>
      <trkpt lat="47.98149" lon="3.37277">
        <ele>68.1</ele>
        <time>2018-09-29T14:03:52Z</time>
      </trkpt>
      <trkpt lat="47.98148" lon="3.37288">
        <ele>68.7</ele>
        <time>2018-09-29T14:03:58Z</time>
      </trkpt>
      <trkpt lat="47.98146" lon="3.37299">
        <ele>67.3</ele>
        <time>2018-09-29T14:04:04Z</time>
      </trkpt>
      <trkpt lat="47.98146" lon="3.37309">
        <ele>67.2</ele>
        <time>2018-09-29T14:04:10Z</time>
      </trkpt>
      <trkpt lat="47.98145" lon="3.37321">
        <ele>67.7</ele>
        <time>2018-09-29T14:04:16Z</time>
      </trkpt>
      <trkpt lat="47.98144" lon="3.37333">
        <ele>67.7</ele>
        <time>2018-09-29T14:04:22Z</time>
      </trkpt>
      <trkpt lat="47.98144" lon="3.37344">
        <ele>67.1</ele>
        <time>2018-09-29T14:04:28Z</time>
      </trkpt>
      <trkpt lat="47.98144" lon="3.37356">
        <ele>67.1</ele>
        <time>2018-09-29T14:04:35Z</time>
      </trkpt>
      <trkpt lat="47.98144" lon="3.37367">
        <ele>66.6</ele>
        <time>2018-09-29T14:04:41Z</time>
      </trkpt>
      <trkpt lat="47.98145" lon="3.37378">
        <ele>66</ele>
        <time>2018-09-29T14:04:47Z</time>
      </trkpt>
      <trkpt lat="47.98145" lon="3.37389">
        <ele>65.3</ele>
        <time>2018-09-29T14:04:53Z</time>
      </trkpt>
      <trkpt lat="47.98145" lon="3.374">
        <ele>64.9</ele>
        <time>2018-09-29T14:04:59Z</time>
      </trkpt>
      <trkpt lat="47.98146" lon="3.37413">
        <ele>64.1</ele>
        <time>2018-09-29T14:05:06Z</time>
      </trkpt>
      <trkpt lat="47.98145" lon="3.37423">
        <ele>65.5</ele>
        <time>2018-09-29T14:05:12Z</time>
      </trkpt>
      <trkpt lat="47.98145" lon="3.37436">
        <ele>65.4</ele>
        <time>2018-09-29T14:05:19Z</time>
      </trkpt>
      <trkpt lat="47.98147" lon="3.37447">
        <ele>65.3</ele>
        <time>2018-09-29T14:05:26Z</time>
      </trkpt>
      <trkpt lat="47.9815" lon="3.37458">
        <ele>64.8</ele>
        <time>2018-09-29T14:05:33Z</time>
      </trkpt>
      <trkpt lat="47.98154" lon="3.37467">
        <ele>65.5</ele>
        <time>2018-09-29T14:05:39Z</time>
      </trkpt>
      <trkpt lat="47.98158" lon="3.37476">
        <ele>65.7</ele>
        <time>2018-09-29T14:05:45Z</time>
      </trkpt>
      <trkpt lat="47.98162" lon="3.37486">
        <ele>65.8</ele>
        <time>2018-09-29T14:05:52Z</time>
      </trkpt>
      <trkpt lat="47.98166" lon="3.37494">
        <ele>66.4</ele>
        <time>2018-09-29T14:05:59Z</time>
      </trkpt>
      <trkpt lat="47.98171" lon="3.37502">
        <ele>65.2</ele>
        <time>2018-09-29T14:06:06Z</time>
      </trkpt>
      <trkpt lat="47.98175" lon="3.3751">
        <ele>67.3</ele>
        <time>2018-09-29T14:06:13Z</time>
      </trkpt>
      <trkpt lat="47.98178" lon="3.37519">
        <ele>70.4</ele>
        <time>2018-09-29T14:06:20Z</time>
      </trkpt>
      <trkpt lat="47.98184" lon="3.37526">
        <ele>69.8</ele>
        <time>2018-09-29T14:06:27Z</time>
      </trkpt>
      <trkpt lat="47.98191" lon="3.37533">
        <ele>70.7</ele>
        <time>2018-09-29T14:06:34Z</time>
      </trkpt>
      <trkpt lat="47.98198" lon="3.37537">
        <ele>70.6</ele>
        <time>2018-09-29T14:06:41Z</time>
      </trkpt>
      <trkpt lat="47.98204" lon="3.37543">
        <ele>71</ele>
        <time>2018-09-29T14:06:48Z</time>
      </trkpt>
      <trkpt lat="47.98211" lon="3.37549">
        <ele>72.5</ele>
        <time>2018-09-29T14:06:55Z</time>
      </trkpt>
      <trkpt lat="47.98216" lon="3.37552">
        <ele>72.8</ele>
        <time>2018-09-29T14:07:02Z</time>
      </trkpt>
      <trkpt lat="47.98222" lon="3.37557">
        <ele>72.9</ele>
        <time>2018-09-29T14:07:09Z</time>
      </trkpt>
      <trkpt lat="47.98223" lon="3.37559">
        <ele>73.2</ele>
        <time>2018-09-29T14:07:16Z</time>
      </trkpt>
      <trkpt lat="47.9823" lon="3.37561">
        <ele>72.8</ele>
        <time>2018-09-29T14:07:23Z</time>
      </trkpt>
      <trkpt lat="47.98234" lon="3.37565">
        <ele>71.4</ele>
        <time>2018-09-29T14:07:30Z</time>
      </trkpt>
      <trkpt lat="47.98234" lon="3.37575">
        <ele>71.3</ele>
        <time>2018-09-29T14:07:37Z</time>
      </trkpt>
      <trkpt lat="47.98233" lon="3.37584">
        <ele>71</ele>
        <time>2018-09-29T14:07:44Z</time>
      </trkpt>
      <trkpt lat="47.98232" lon="3.37595">
        <ele>70.4</ele>
        <time>2018-09-29T14:07:51Z</time>
      </trkpt>
      <trkpt lat="47.98232" lon="3.37604">
        <ele>68.5</ele>
        <time>2018-09-29T14:07:58Z</time>
      </trkpt>
      <trkpt lat="47.9823" lon="3.37614">
        <ele>67.6</ele>
        <time>2018-09-29T14:08:04Z</time>
      </trkpt>
      <trkpt lat="47.98229" lon="3.37625">
        <ele>67.4</ele>
        <time>2018-09-29T14:08:10Z</time>
      </trkpt>
      <trkpt lat="47.98228" lon="3.37636">
        <ele>66.4</ele>
        <time>2018-09-29T14:08:17Z</time>
      </trkpt>
      <trkpt lat="47.98228" lon="3.37647">
        <ele>65.4</ele>
        <time>2018-09-29T14:08:24Z</time>
      </trkpt>
      <trkpt lat="47.98226" lon="3.37659">
        <ele>63.2</ele>
        <time>2018-09-29T14:08:31Z</time>
      </trkpt>
      <trkpt lat="47.98225" lon="3.37669">
        <ele>64.4</ele>
        <time>2018-09-29T14:08:36Z</time>
      </trkpt>
      <trkpt lat="47.98224" lon="3.37682">
        <ele>65.1</ele>
        <time>2018-09-29T14:08:42Z</time>
      </trkpt>
      <trkpt lat="47.98223" lon="3.37693">
        <ele>64.4</ele>
        <time>2018-09-29T14:08:48Z</time>
      </trkpt>
      <trkpt lat="47.98222" lon="3.37703">
        <ele>65.3</ele>
        <time>2018-09-29T14:08:53Z</time>
      </trkpt>
      <trkpt lat="47.98221" lon="3.37714">
        <ele>65.6</ele>
        <time>2018-09-29T14:08:59Z</time>
      </trkpt>
      <trkpt lat="47.98221" lon="3.37727">
        <ele>67</ele>
        <time>2018-09-29T14:09:05Z</time>
      </trkpt>
      <trkpt lat="47.9822" lon="3.37739">
        <ele>66.9</ele>
        <time>2018-09-29T14:09:11Z</time>
      </trkpt>
      <trkpt lat="47.98221" lon="3.3775">
        <ele>66.6</ele>
        <time>2018-09-29T14:09:17Z</time>
      </trkpt>
      <trkpt lat="47.98221" lon="3.37762">
        <ele>65.9</ele>
        <time>2018-09-29T14:09:23Z</time>
      </trkpt>
      <trkpt lat="47.98222" lon="3.37773">
        <ele>65.7</ele>
        <time>2018-09-29T14:09:29Z</time>
      </trkpt>
      <trkpt lat="47.98223" lon="3.37784">
        <ele>65.9</ele>
        <time>2018-09-29T14:09:35Z</time>
      </trkpt>
      <trkpt lat="47.98224" lon="3.37796">
        <ele>65.8</ele>
        <time>2018-09-29T14:09:41Z</time>
      </trkpt>
      <trkpt lat="47.98225" lon="3.37807">
        <ele>65.5</ele>
        <time>2018-09-29T14:09:47Z</time>
      </trkpt>
      <trkpt lat="47.98227" lon="3.37819">
        <ele>65.6</ele>
        <time>2018-09-29T14:09:54Z</time>
      </trkpt>
      <trkpt lat="47.98228" lon="3.3783">
        <ele>65</ele>
        <time>2018-09-29T14:10:01Z</time>
      </trkpt>
      <trkpt lat="47.98231" lon="3.37841">
        <ele>64.9</ele>
        <time>2018-09-29T14:10:07Z</time>
      </trkpt>
      <trkpt lat="47.98232" lon="3.37851">
        <ele>64.7</ele>
        <time>2018-09-29T14:10:13Z</time>
      </trkpt>
      <trkpt lat="47.98234" lon="3.37862">
        <ele>64.7</ele>
        <time>2018-09-29T14:10:19Z</time>
      </trkpt>
      <trkpt lat="47.98236" lon="3.37872">
        <ele>65.1</ele>
        <time>2018-09-29T14:10:25Z</time>
      </trkpt>
      <trkpt lat="47.98239" lon="3.37884">
        <ele>64.6</ele>
        <time>2018-09-29T14:10:32Z</time>
      </trkpt>
      <trkpt lat="47.98241" lon="3.37894">
        <ele>64</ele>
        <time>2018-09-29T14:10:38Z</time>
      </trkpt>
      <trkpt lat="47.98245" lon="3.37904">
        <ele>64</ele>
        <time>2018-09-29T14:10:44Z</time>
      </trkpt>
      <trkpt lat="47.98247" lon="3.37915">
        <ele>63.5</ele>
        <time>2018-09-29T14:10:50Z</time>
      </trkpt>
      <trkpt lat="47.98251" lon="3.37926">
        <ele>63.1</ele>
        <time>2018-09-29T14:10:56Z</time>
      </trkpt>
      <trkpt lat="47.98253" lon="3.37937">
        <ele>63.3</ele>
        <time>2018-09-29T14:11:02Z</time>
      </trkpt>
      <trkpt lat="47.98255" lon="3.37947">
        <ele>62.9</ele>
        <time>2018-09-29T14:11:08Z</time>
      </trkpt>
      <trkpt lat="47.98258" lon="3.37957">
        <ele>62.8</ele>
        <time>2018-09-29T14:11:14Z</time>
      </trkpt>
      <trkpt lat="47.98262" lon="3.37967">
        <ele>62.5</ele>
        <time>2018-09-29T14:11:20Z</time>
      </trkpt>
      <trkpt lat="47.98264" lon="3.37978">
        <ele>62.9</ele>
        <time>2018-09-29T14:11:26Z</time>
      </trkpt>
      <trkpt lat="47.98266" lon="3.37989">
        <ele>62.9</ele>
        <time>2018-09-29T14:11:32Z</time>
      </trkpt>
      <trkpt lat="47.98268" lon="3.38">
        <ele>63.1</ele>
        <time>2018-09-29T14:11:38Z</time>
      </trkpt>
      <trkpt lat="47.98269" lon="3.38012">
        <ele>62.8</ele>
        <time>2018-09-29T14:11:45Z</time>
      </trkpt>
      <trkpt lat="47.98271" lon="3.38022">
        <ele>62.4</ele>
        <time>2018-09-29T14:11:51Z</time>
      </trkpt>
      <trkpt lat="47.98273" lon="3.38034">
        <ele>62.5</ele>
        <time>2018-09-29T14:11:57Z</time>
      </trkpt>
      <trkpt lat="47.98275" lon="3.38044">
        <ele>63.1</ele>
        <time>2018-09-29T14:12:03Z</time>
      </trkpt>
      <trkpt lat="47.98276" lon="3.38055">
        <ele>63.2</ele>
        <time>2018-09-29T14:12:09Z</time>
      </trkpt>
      <trkpt lat="47.98277" lon="3.38066">
        <ele>63.3</ele>
        <time>2018-09-29T14:12:15Z</time>
      </trkpt>
      <trkpt lat="47.98277" lon="3.38078">
        <ele>63.6</ele>
        <time>2018-09-29T14:12:22Z</time>
      </trkpt>
      <trkpt lat="47.98278" lon="3.38089">
        <ele>63.7</ele>
        <time>2018-09-29T14:12:28Z</time>
      </trkpt>
      <trkpt lat="47.98279" lon="3.38101">
        <ele>63.9</ele>
        <time>2018-09-29T14:12:35Z</time>
      </trkpt>
      <trkpt lat="47.98281" lon="3.38112">
        <ele>64.1</ele>
        <time>2018-09-29T14:12:42Z</time>
      </trkpt>
      <trkpt lat="47.98282" lon="3.38124">
        <ele>64.9</ele>
        <time>2018-09-29T14:12:48Z</time>
      </trkpt>
      <trkpt lat="47.98283" lon="3.38135">
        <ele>64.9</ele>
        <time>2018-09-29T14:12:54Z</time>
      </trkpt>
      <trkpt lat="47.98284" lon="3.38147">
        <ele>65.1</ele>
        <time>2018-09-29T14:13:01Z</time>
      </trkpt>
      <trkpt lat="47.98285" lon="3.38158">
        <ele>66</ele>
        <time>2018-09-29T14:13:07Z</time>
      </trkpt>
      <trkpt lat="47.98285" lon="3.38169">
        <ele>66.3</ele>
        <time>2018-09-29T14:13:13Z</time>
      </trkpt>
      <trkpt lat="47.98286" lon="3.38181">
        <ele>67.4</ele>
        <time>2018-09-29T14:13:19Z</time>
      </trkpt>
      <trkpt lat="47.98286" lon="3.38192">
        <ele>67.8</ele>
        <time>2018-09-29T14:13:25Z</time>
      </trkpt>
      <trkpt lat="47.98286" lon="3.38203">
        <ele>66.9</ele>
        <time>2018-09-29T14:13:31Z</time>
      </trkpt>
      <trkpt lat="47.98288" lon="3.38215">
        <ele>65.6</ele>
        <time>2018-09-29T14:13:38Z</time>
      </trkpt>
      <trkpt lat="47.98288" lon="3.38226">
        <ele>65.7</ele>
        <time>2018-09-29T14:13:45Z</time>
      </trkpt>
      <trkpt lat="47.98289" lon="3.38239">
        <ele>66.7</ele>
        <time>2018-09-29T14:13:52Z</time>
      </trkpt>
      <trkpt lat="47.98289" lon="3.3825">
        <ele>67.2</ele>
        <time>2018-09-29T14:13:58Z</time>
      </trkpt>
      <trkpt lat="47.9829" lon="3.3826">
        <ele>67.1</ele>
        <time>2018-09-29T14:14:04Z</time>
      </trkpt>
      <trkpt lat="47.9829" lon="3.38272">
        <ele>69</ele>
        <time>2018-09-29T14:14:10Z</time>
      </trkpt>
      <trkpt lat="47.98291" lon="3.38283">
        <ele>69.4</ele>
        <time>2018-09-29T14:14:16Z</time>
      </trkpt>
      <trkpt lat="47.98292" lon="3.38294">
        <ele>69.5</ele>
        <time>2018-09-29T14:14:22Z</time>
      </trkpt>
      <trkpt lat="47.98292" lon="3.38305">
        <ele>68.7</ele>
        <time>2018-09-29T14:14:28Z</time>
      </trkpt>
      <trkpt lat="47.98295" lon="3.38317">
        <ele>68.4</ele>
        <time>2018-09-29T14:14:35Z</time>
      </trkpt>
      <trkpt lat="47.98295" lon="3.38328">
        <ele>69.1</ele>
        <time>2018-09-29T14:14:42Z</time>
      </trkpt>
      <trkpt lat="47.98296" lon="3.38339">
        <ele>68.4</ele>
        <time>2018-09-29T14:14:49Z</time>
      </trkpt>
      <trkpt lat="47.98297" lon="3.3835">
        <ele>68.2</ele>
        <time>2018-09-29T14:14:55Z</time>
      </trkpt>
      <trkpt lat="47.98298" lon="3.38361">
        <ele>69.6</ele>
        <time>2018-09-29T14:15:01Z</time>
      </trkpt>
      <trkpt lat="47.98299" lon="3.38373">
        <ele>69.3</ele>
        <time>2018-09-29T14:15:08Z</time>
      </trkpt>
      <trkpt lat="47.98301" lon="3.38385">
        <ele>69</ele>
        <time>2018-09-29T14:15:15Z</time>
      </trkpt>
      <trkpt lat="47.98303" lon="3.38396">
        <ele>70.1</ele>
        <time>2018-09-29T14:15:22Z</time>
      </trkpt>
      <trkpt lat="47.98304" lon="3.38408">
        <ele>70.3</ele>
        <time>2018-09-29T14:15:29Z</time>
      </trkpt>
      <trkpt lat="47.98306" lon="3.3842">
        <ele>68.9</ele>
        <time>2018-09-29T14:15:36Z</time>
      </trkpt>
      <trkpt lat="47.98307" lon="3.38432">
        <ele>67.5</ele>
        <time>2018-09-29T14:15:43Z</time>
      </trkpt>
      <trkpt lat="47.98306" lon="3.38441">
        <ele>68.3</ele>
        <time>2018-09-29T14:15:50Z</time>
      </trkpt>
      <trkpt lat="47.98307" lon="3.38453">
        <ele>67.9</ele>
        <time>2018-09-29T14:15:57Z</time>
      </trkpt>
      <trkpt lat="47.98308" lon="3.38465">
        <ele>68.4</ele>
        <time>2018-09-29T14:16:04Z</time>
      </trkpt>
      <trkpt lat="47.98309" lon="3.38476">
        <ele>68.1</ele>
        <time>2018-09-29T14:16:10Z</time>
      </trkpt>
      <trkpt lat="47.98309" lon="3.38487">
        <ele>68.1</ele>
        <time>2018-09-29T14:16:16Z</time>
      </trkpt>
      <trkpt lat="47.9831" lon="3.38499">
        <ele>68.2</ele>
        <time>2018-09-29T14:16:23Z</time>
      </trkpt>
      <trkpt lat="47.9831" lon="3.3851">
        <ele>68.1</ele>
        <time>2018-09-29T14:16:29Z</time>
      </trkpt>
      <trkpt lat="47.9831" lon="3.38522">
        <ele>68.6</ele>
        <time>2018-09-29T14:16:35Z</time>
      </trkpt>
      <trkpt lat="47.9831" lon="3.38534">
        <ele>69</ele>
        <time>2018-09-29T14:16:41Z</time>
      </trkpt>
      <trkpt lat="47.98311" lon="3.38546">
        <ele>68.4</ele>
        <time>2018-09-29T14:16:48Z</time>
      </trkpt>
      <trkpt lat="47.9831" lon="3.38557">
        <ele>70.6</ele>
        <time>2018-09-29T14:16:54Z</time>
      </trkpt>
      <trkpt lat="47.9831" lon="3.38569">
        <ele>71.5</ele>
        <time>2018-09-29T14:17:00Z</time>
      </trkpt>
      <trkpt lat="47.98312" lon="3.38579">
        <ele>71.6</ele>
        <time>2018-09-29T14:17:07Z</time>
      </trkpt>
      <trkpt lat="47.98313" lon="3.3859">
        <ele>72</ele>
        <time>2018-09-29T14:17:13Z</time>
      </trkpt>
      <trkpt lat="47.98312" lon="3.38603">
        <ele>73.1</ele>
        <time>2018-09-29T14:17:19Z</time>
      </trkpt>
      <trkpt lat="47.98311" lon="3.38615">
        <ele>73</ele>
        <time>2018-09-29T14:17:25Z</time>
      </trkpt>
      <trkpt lat="47.98311" lon="3.38627">
        <ele>73.3</ele>
        <time>2018-09-29T14:17:31Z</time>
      </trkpt>
      <trkpt lat="47.98311" lon="3.38638">
        <ele>73.5</ele>
        <time>2018-09-29T14:17:37Z</time>
      </trkpt>
      <trkpt lat="47.98311" lon="3.3865">
        <ele>73.8</ele>
        <time>2018-09-29T14:17:43Z</time>
      </trkpt>
      <trkpt lat="47.9831" lon="3.38662">
        <ele>74.2</ele>
        <time>2018-09-29T14:17:50Z</time>
      </trkpt>
      <trkpt lat="47.9831" lon="3.38674">
        <ele>73.7</ele>
        <time>2018-09-29T14:17:57Z</time>
      </trkpt>
      <trkpt lat="47.9831" lon="3.38686">
        <ele>73.6</ele>
        <time>2018-09-29T14:18:03Z</time>
      </trkpt>
      <trkpt lat="47.9831" lon="3.38697">
        <ele>73.8</ele>
        <time>2018-09-29T14:18:09Z</time>
      </trkpt>
      <trkpt lat="47.9831" lon="3.38708">
        <ele>73.7</ele>
        <time>2018-09-29T14:18:15Z</time>
      </trkpt>
      <trkpt lat="47.98311" lon="3.3872">
        <ele>73.7</ele>
        <time>2018-09-29T14:18:22Z</time>
      </trkpt>
      <trkpt lat="47.9831" lon="3.38728">
        <ele>73.8</ele>
        <time>2018-09-29T14:18:29Z</time>
      </trkpt>
      <trkpt lat="47.98317" lon="3.38734">
        <ele>73.8</ele>
        <time>2018-09-29T14:18:36Z</time>
      </trkpt>
      <trkpt lat="47.98321" lon="3.38735">
        <ele>73.6</ele>
        <time>2018-09-29T14:18:43Z</time>
      </trkpt>
      <trkpt lat="47.98318" lon="3.38733">
        <ele>73.7</ele>
        <time>2018-09-29T14:18:50Z</time>
      </trkpt>
      <trkpt lat="47.98318" lon="3.38733">
        <ele>73.6</ele>
        <time>2018-09-29T14:18:56Z</time>
      </trkpt>
      <trkpt lat="47.98319" lon="3.38737">
        <ele>72.6</ele>
        <time>2018-09-29T14:19:08Z</time>
      </trkpt>
      <trkpt lat="47.98319" lon="3.38737">
        <ele>72.6</ele>
        <time>2018-09-29T14:19:11Z</time>
      </trkpt>
      <trkpt lat="47.98317" lon="3.38736">
        <ele>71.3</ele>
        <time>2018-09-29T14:20:08Z</time>
      </trkpt>
      <trkpt lat="47.98317" lon="3.38736">
        <ele>71.3</ele>
        <time>2018-09-29T14:20:10Z</time>
      </trkpt>
      <trkpt lat="47.9832" lon="3.38735">
        <ele>74.6</ele>
        <time>2018-09-29T14:20:38Z</time>
      </trkpt>
      <trkpt lat="47.9832" lon="3.38736">
        <ele>74.7</ele>
        <time>2018-09-29T14:20:43Z</time>
      </trkpt>
      <trkpt lat="47.9832" lon="3.38734">
        <ele>77.8</ele>
        <time>2018-09-29T14:21:23Z</time>
      </trkpt>
      <trkpt lat="47.9832" lon="3.38734">
        <ele>77.8</ele>
        <time>2018-09-29T14:21:24Z</time>
      </trkpt>
      <trkpt lat="47.98327" lon="3.38738">
        <ele>77.6</ele>
        <time>2018-09-29T14:21:31Z</time>
      </trkpt>
      <trkpt lat="47.98333" lon="3.38744">
        <ele>77.1</ele>
        <time>2018-09-29T14:21:38Z</time>
      </trkpt>
    </trkseg>
  </trk>
</gpx>